<?xml version="1.0" encoding="UTF-8" standalone="no" ?>
<gpx xmlns="http://www.topografix.com/GPX/1/1" xmlns:xsi="http://www.w3.org/2001/XMLSchema-instance" xsi:schemaLocation="http://www.topografix.com/GPX/1/1 http://www.topografix.com/GPX/1/1/gpx.xsd" version="1.1" creator="VisuGPX - https://www.visugpx.com">
  <metadata>
    <name>3-Bourg-Saint-Maurice - Aussois - 98.6 km</name>
    <desc><![CDATA[3ème étape Bourg-St-Maurice Aussois Fleurs et Neige 34 rue St-Nicolas]]></desc>
  </metadata>
  <trk>
    <name><![CDATA[3-Bourg-Saint-Maurice - Aussois - 98.6 km]]></name>
    <trkseg>
      <trkpt lat="45.61769" lon="6.76864">
        <ele>819.822423</ele>
        <time>2022-05-27T20:08:30.900Z</time>
      </trkpt>
      <trkpt lat="45.61779" lon="6.76873">
        <ele>819.822423</ele>
        <time>2022-05-27T20:08:32.676Z</time>
      </trkpt>
      <trkpt lat="45.61791" lon="6.76885">
        <ele>819.822423</ele>
        <time>2022-05-27T20:08:34.905Z</time>
      </trkpt>
      <trkpt lat="45.61799" lon="6.76893">
        <ele>819.822423</ele>
        <time>2022-05-27T20:08:36.304Z</time>
      </trkpt>
      <trkpt lat="45.61801" lon="6.76907">
        <ele>819.822423</ele>
        <time>2022-05-27T20:08:37.660Z</time>
      </trkpt>
      <trkpt lat="45.61783" lon="6.76952">
        <ele>819.822423</ele>
        <time>2022-05-27T20:08:42.873Z</time>
      </trkpt>
      <trkpt lat="45.61825" lon="6.76969">
        <ele>818.656146</ele>
        <time>2022-05-27T20:08:49.033Z</time>
      </trkpt>
      <trkpt lat="45.61845" lon="6.76976">
        <ele>817.999499</ele>
        <time>2022-05-27T20:08:51.922Z</time>
      </trkpt>
      <trkpt lat="45.61851" lon="6.77082">
        <ele>815.600768</ele>
        <time>2022-05-27T20:08:59.395Z</time>
      </trkpt>
      <trkpt lat="45.61843" lon="6.77091">
        <ele>815.270584</ele>
        <time>2022-05-27T20:09:00.455Z</time>
      </trkpt>
      <trkpt lat="45.61849" lon="6.77105">
        <ele>814.907585</ele>
        <time>2022-05-27T20:09:01.611Z</time>
      </trkpt>
      <trkpt lat="45.61857" lon="6.77102">
        <ele>814.647654</ele>
        <time>2022-05-27T20:09:02.478Z</time>
      </trkpt>
      <trkpt lat="45.61859" lon="6.77093">
        <ele>814.433206</ele>
        <time>2022-05-27T20:09:03.190Z</time>
      </trkpt>
      <trkpt lat="45.61887" lon="6.77092">
        <ele>813.73151</ele>
        <time>2022-05-27T20:09:06.074Z</time>
      </trkpt>
      <trkpt lat="45.61925" lon="6.77092">
        <ele>813.02377</ele>
        <time>2022-05-27T20:09:10.042Z</time>
      </trkpt>
      <trkpt lat="45.61937" lon="6.77093">
        <ele>812.805988</ele>
        <time>2022-05-27T20:09:11.316Z</time>
      </trkpt>
      <trkpt lat="45.61974" lon="6.77095">
        <ele>812.106736</ele>
        <time>2022-05-27T20:09:15.438Z</time>
      </trkpt>
      <trkpt lat="45.62008" lon="6.771">
        <ele>811.453883</ele>
        <time>2022-05-27T20:09:19.481Z</time>
      </trkpt>
      <trkpt lat="45.62023" lon="6.77114">
        <ele>811.121462</ele>
        <time>2022-05-27T20:09:21.571Z</time>
      </trkpt>
      <trkpt lat="45.62025" lon="6.77122">
        <ele>811.006678</ele>
        <time>2022-05-27T20:09:22.275Z</time>
      </trkpt>
      <trkpt lat="45.62029" lon="6.77127">
        <ele>810.912887</ele>
        <time>2022-05-27T20:09:22.864Z</time>
      </trkpt>
      <trkpt lat="45.62039" lon="6.77129">
        <ele>810.734479</ele>
        <time>2022-05-27T20:09:24.008Z</time>
      </trkpt>
      <trkpt lat="45.6205" lon="6.77145">
        <ele>810.547615</ele>
        <time>2022-05-27T20:09:25.941Z</time>
      </trkpt>
      <trkpt lat="45.6207" lon="6.7719">
        <ele>810.251252</ele>
        <time>2022-05-27T20:09:30.453Z</time>
      </trkpt>
      <trkpt lat="45.62093" lon="6.77246">
        <ele>809.890408</ele>
        <time>2022-05-27T20:09:35.992Z</time>
      </trkpt>
      <trkpt lat="45.62096" lon="6.77254">
        <ele>809.835608</ele>
        <time>2022-05-27T20:09:36.861Z</time>
      </trkpt>
      <trkpt lat="45.62143" lon="6.77375">
        <ele>809.177159</ele>
        <time>2022-05-27T20:09:49.614Z</time>
      </trkpt>
      <trkpt lat="45.62157" lon="6.77414">
        <ele>809.130914</ele>
        <time>2022-05-27T20:09:54.008Z</time>
      </trkpt>
      <trkpt lat="45.62177" lon="6.77467">
        <ele>809.068508</ele>
        <time>2022-05-27T20:10:00.070Z</time>
      </trkpt>
      <trkpt lat="45.62194" lon="6.77513">
        <ele>809.014956</ele>
        <time>2022-05-27T20:10:05.276Z</time>
      </trkpt>
      <trkpt lat="45.622" lon="6.77528">
        <ele>808.99657</ele>
        <time>2022-05-27T20:10:07.098Z</time>
      </trkpt>
      <trkpt lat="45.62233" lon="6.77599">
        <ele>808.968756</ele>
        <time>2022-05-27T20:10:15.939Z</time>
      </trkpt>
      <trkpt lat="45.62265" lon="6.77667">
        <ele>809.079216</ele>
        <time>2022-05-27T20:10:24.710Z</time>
      </trkpt>
      <trkpt lat="45.62272" lon="6.77681">
        <ele>809.101866</ele>
        <time>2022-05-27T20:10:26.495Z</time>
      </trkpt>
      <trkpt lat="45.6232" lon="6.77796">
        <ele>809.299721</ele>
        <time>2022-05-27T20:10:41.339Z</time>
      </trkpt>
      <trkpt lat="45.6233" lon="6.77828">
        <ele>809.630182</ele>
        <time>2022-05-27T20:10:45.258Z</time>
      </trkpt>
      <trkpt lat="45.62331" lon="6.77852">
        <ele>809.867083</ele>
        <time>2022-05-27T20:10:48.144Z</time>
      </trkpt>
      <trkpt lat="45.62342" lon="6.77861">
        <ele>810.039019</ele>
        <time>2022-05-27T20:10:50.247Z</time>
      </trkpt>
      <trkpt lat="45.62355" lon="6.77852">
        <ele>810.24037</ele>
        <time>2022-05-27T20:10:52.876Z</time>
      </trkpt>
      <trkpt lat="45.62367" lon="6.77854">
        <ele>810.40905</ele>
        <time>2022-05-27T20:10:55.473Z</time>
      </trkpt>
      <trkpt lat="45.62376" lon="6.77856">
        <ele>810.526163</ele>
        <time>2022-05-27T20:10:57.263Z</time>
      </trkpt>
      <trkpt lat="45.6247" lon="6.77968">
        <ele>812.683107</ele>
        <time>2022-05-27T20:11:25.100Z</time>
      </trkpt>
      <trkpt lat="45.62496" lon="6.77999">
        <ele>813.646258</ele>
        <time>2022-05-27T20:11:33.536Z</time>
      </trkpt>
      <trkpt lat="45.62513" lon="6.7803">
        <ele>814.432765</ele>
        <time>2022-05-27T20:11:40.634Z</time>
      </trkpt>
      <trkpt lat="45.62556" lon="6.78143">
        <ele>817.003687</ele>
        <time>2022-05-27T20:12:06.292Z</time>
      </trkpt>
      <trkpt lat="45.62567" lon="6.78206">
        <ele>818.543267</ele>
        <time>2022-05-27T20:12:19.454Z</time>
      </trkpt>
      <trkpt lat="45.62565" lon="6.78297">
        <ele>820.679203</ele>
        <time>2022-05-27T20:12:37.119Z</time>
      </trkpt>
      <trkpt lat="45.62574" lon="6.78353">
        <ele>822.047634</ele>
        <time>2022-05-27T20:12:48.645Z</time>
      </trkpt>
      <trkpt lat="45.62629" lon="6.78539">
        <ele>826.464636</ele>
        <time>2022-05-27T20:13:27.957Z</time>
      </trkpt>
      <trkpt lat="45.62693" lon="6.78611">
        <ele>829.05412</ele>
        <time>2022-05-27T20:13:48.743Z</time>
      </trkpt>
      <trkpt lat="45.62708" lon="6.78661">
        <ele>830.437056</ele>
        <time>2022-05-27T20:13:58.694Z</time>
      </trkpt>
      <trkpt lat="45.62711" lon="6.78722">
        <ele>831.984389</ele>
        <time>2022-05-27T20:14:10.489Z</time>
      </trkpt>
      <trkpt lat="45.627" lon="6.78854">
        <ele>835.610507</ele>
        <time>2022-05-27T20:14:39.840Z</time>
      </trkpt>
      <trkpt lat="45.62696" lon="6.78919">
        <ele>838.36956</ele>
        <time>2022-05-27T20:14:56.086Z</time>
      </trkpt>
      <trkpt lat="45.62678" lon="6.79087">
        <ele>845.521261</ele>
        <time>2022-05-27T20:15:44.865Z</time>
      </trkpt>
      <trkpt lat="45.62646" lon="6.79219">
        <ele>852.246791</ele>
        <time>2022-05-27T20:16:27.741Z</time>
      </trkpt>
      <trkpt lat="45.62636" lon="6.79282">
        <ele>855.363521</ele>
        <time>2022-05-27T20:16:47.430Z</time>
      </trkpt>
      <trkpt lat="45.6261" lon="6.79357">
        <ele>859.172093</ele>
        <time>2022-05-27T20:17:11.391Z</time>
      </trkpt>
      <trkpt lat="45.62607" lon="6.79362">
        <ele>859.410021</ele>
        <time>2022-05-27T20:17:13.173Z</time>
      </trkpt>
      <trkpt lat="45.62601" lon="6.79375">
        <ele>860.004555</ele>
        <time>2022-05-27T20:17:17.858Z</time>
      </trkpt>
      <trkpt lat="45.62587" lon="6.79393">
        <ele>860.981234</ele>
        <time>2022-05-27T20:17:24.597Z</time>
      </trkpt>
      <trkpt lat="45.62581" lon="6.79401">
        <ele>861.420463</ele>
        <time>2022-05-27T20:17:27.650Z</time>
      </trkpt>
      <trkpt lat="45.62575" lon="6.79408">
        <ele>861.850973</ele>
        <time>2022-05-27T20:17:30.940Z</time>
      </trkpt>
      <trkpt lat="45.62563" lon="6.79419">
        <ele>862.597371</ele>
        <time>2022-05-27T20:17:35.825Z</time>
      </trkpt>
      <trkpt lat="45.62561" lon="6.79422">
        <ele>862.740357</ele>
        <time>2022-05-27T20:17:36.745Z</time>
      </trkpt>
      <trkpt lat="45.62536" lon="6.7944">
        <ele>864.234564</ele>
        <time>2022-05-27T20:17:46.999Z</time>
      </trkpt>
      <trkpt lat="45.6253" lon="6.79439">
        <ele>864.569657</ele>
        <time>2022-05-27T20:17:48.890Z</time>
      </trkpt>
      <trkpt lat="45.6252" lon="6.79451">
        <ele>865.243863</ele>
        <time>2022-05-27T20:17:53.205Z</time>
      </trkpt>
      <trkpt lat="45.62522" lon="6.79464">
        <ele>865.723868</ele>
        <time>2022-05-27T20:17:56.639Z</time>
      </trkpt>
      <trkpt lat="45.62517" lon="6.79475">
        <ele>866.223809</ele>
        <time>2022-05-27T20:17:59.737Z</time>
      </trkpt>
      <trkpt lat="45.62509" lon="6.79495">
        <ele>867.105496</ele>
        <time>2022-05-27T20:18:04.963Z</time>
      </trkpt>
      <trkpt lat="45.62416" lon="6.79681">
        <ele>874.194121</ele>
        <time>2022-05-27T20:18:55.835Z</time>
      </trkpt>
      <trkpt lat="45.62402" lon="6.79713">
        <ele>875.347125</ele>
        <time>2022-05-27T20:19:04.485Z</time>
      </trkpt>
      <trkpt lat="45.62397" lon="6.79723">
        <ele>875.706625</ele>
        <time>2022-05-27T20:19:07.235Z</time>
      </trkpt>
      <trkpt lat="45.62381" lon="6.79757">
        <ele>876.933534</ele>
        <time>2022-05-27T20:19:16.682Z</time>
      </trkpt>
      <trkpt lat="45.62337" lon="6.79849">
        <ele>880.257917</ele>
        <time>2022-05-27T20:19:42.156Z</time>
      </trkpt>
      <trkpt lat="45.62329" lon="6.79865">
        <ele>880.840825</ele>
        <time>2022-05-27T20:19:46.396Z</time>
      </trkpt>
      <trkpt lat="45.62322" lon="6.79879">
        <ele>881.372344</ele>
        <time>2022-05-27T20:19:50.302Z</time>
      </trkpt>
      <trkpt lat="45.62295" lon="6.79946">
        <ele>883.56059</ele>
        <time>2022-05-27T20:20:07.120Z</time>
      </trkpt>
      <trkpt lat="45.62275" lon="6.79975">
        <ele>884.234051</ele>
        <time>2022-05-27T20:20:15.969Z</time>
      </trkpt>
      <trkpt lat="45.62273" lon="6.79977">
        <ele>884.290223</ele>
        <time>2022-05-27T20:20:16.639Z</time>
      </trkpt>
      <trkpt lat="45.62236" lon="6.80028">
        <ele>885.508024</ele>
        <time>2022-05-27T20:20:30.584Z</time>
      </trkpt>
      <trkpt lat="45.62234" lon="6.80032">
        <ele>885.597739</ele>
        <time>2022-05-27T20:20:31.465Z</time>
      </trkpt>
      <trkpt lat="45.62214" lon="6.80066">
        <ele>886.33336</ele>
        <time>2022-05-27T20:20:38.788Z</time>
      </trkpt>
      <trkpt lat="45.62198" lon="6.80103">
        <ele>887.049224</ele>
        <time>2022-05-27T20:20:45.179Z</time>
      </trkpt>
      <trkpt lat="45.62183" lon="6.80149">
        <ele>887.564664</ele>
        <time>2022-05-27T20:20:51.499Z</time>
      </trkpt>
      <trkpt lat="45.62172" lon="6.80148">
        <ele>887.428348</ele>
        <time>2022-05-27T20:20:52.899Z</time>
      </trkpt>
      <trkpt lat="45.62168" lon="6.80162">
        <ele>887.290015</ele>
        <time>2022-05-27T20:20:54.665Z</time>
      </trkpt>
      <trkpt lat="45.62141" lon="6.80189">
        <ele>886.874794</ele>
        <time>2022-05-27T20:20:59.035Z</time>
      </trkpt>
      <trkpt lat="45.6206" lon="6.80268">
        <ele>885.633971</ele>
        <time>2022-05-27T20:21:10.016Z</time>
      </trkpt>
      <trkpt lat="45.62036" lon="6.80291">
        <ele>885.067479</ele>
        <time>2022-05-27T20:21:13.010Z</time>
      </trkpt>
      <trkpt lat="45.62009" lon="6.80332">
        <ele>883.877715</ele>
        <time>2022-05-27T20:21:16.927Z</time>
      </trkpt>
      <trkpt lat="45.61969" lon="6.80398">
        <ele>882.000249</ele>
        <time>2022-05-27T20:21:23.108Z</time>
      </trkpt>
      <trkpt lat="45.61899" lon="6.80566">
        <ele>877.727359</ele>
        <time>2022-05-27T20:21:37.087Z</time>
      </trkpt>
      <trkpt lat="45.61814" lon="6.80768">
        <ele>872.541885</ele>
        <time>2022-05-27T20:21:53.788Z</time>
      </trkpt>
      <trkpt lat="45.61802" lon="6.80797">
        <ele>871.806339</ele>
        <time>2022-05-27T20:21:56.133Z</time>
      </trkpt>
      <trkpt lat="45.61785" lon="6.8086">
        <ele>870.337521</ele>
        <time>2022-05-27T20:22:00.988Z</time>
      </trkpt>
      <trkpt lat="45.61781" lon="6.80896">
        <ele>869.55251</ele>
        <time>2022-05-27T20:22:03.520Z</time>
      </trkpt>
      <trkpt lat="45.6173" lon="6.81234">
        <ele>862.396026</ele>
        <time>2022-05-27T20:22:28.721Z</time>
      </trkpt>
      <trkpt lat="45.61726" lon="6.81296">
        <ele>860.764246</ele>
        <time>2022-05-27T20:22:33.048Z</time>
      </trkpt>
      <trkpt lat="45.61716" lon="6.8145">
        <ele>856.683444</ele>
        <time>2022-05-27T20:22:43.480Z</time>
      </trkpt>
      <trkpt lat="45.61698" lon="6.81664">
        <ele>851.064026</ele>
        <time>2022-05-27T20:22:58.242Z</time>
      </trkpt>
      <trkpt lat="45.61682" lon="6.81725">
        <ele>849.768672</ele>
        <time>2022-05-27T20:23:02.944Z</time>
      </trkpt>
      <trkpt lat="45.61551" lon="6.82118">
        <ele>845.54143</ele>
        <time>2022-05-27T20:23:38.601Z</time>
      </trkpt>
      <trkpt lat="45.61535" lon="6.82157">
        <ele>845.211886</ele>
        <time>2022-05-27T20:23:43.038Z</time>
      </trkpt>
      <trkpt lat="45.61505" lon="6.82208">
        <ele>845.08993</ele>
        <time>2022-05-27T20:23:49.770Z</time>
      </trkpt>
      <trkpt lat="45.61452" lon="6.82274">
        <ele>844.954993</ele>
        <time>2022-05-27T20:24:00.328Z</time>
      </trkpt>
      <trkpt lat="45.61413" lon="6.82323">
        <ele>844.855607</ele>
        <time>2022-05-27T20:24:08.033Z</time>
      </trkpt>
      <trkpt lat="45.61349" lon="6.8241">
        <ele>844.492458</ele>
        <time>2022-05-27T20:24:19.545Z</time>
      </trkpt>
      <trkpt lat="45.61299" lon="6.82548">
        <ele>844.019108</ele>
        <time>2022-05-27T20:24:33.692Z</time>
      </trkpt>
      <trkpt lat="45.61284" lon="6.82619">
        <ele>844.315033</ele>
        <time>2022-05-27T20:24:41.165Z</time>
      </trkpt>
      <trkpt lat="45.61282" lon="6.82667">
        <ele>844.503946</ele>
        <time>2022-05-27T20:24:46.503Z</time>
      </trkpt>
      <trkpt lat="45.61288" lon="6.82709">
        <ele>844.675186</ele>
        <time>2022-05-27T20:24:51.813Z</time>
      </trkpt>
      <trkpt lat="45.61296" lon="6.82767">
        <ele>844.909113</ele>
        <time>2022-05-27T20:24:59.745Z</time>
      </trkpt>
      <trkpt lat="45.61295" lon="6.82801">
        <ele>845.085528</ele>
        <time>2022-05-27T20:25:04.662Z</time>
      </trkpt>
      <trkpt lat="45.6122" lon="6.83103">
        <ele>849.101282</ele>
        <time>2022-05-27T20:25:55.458Z</time>
      </trkpt>
      <trkpt lat="45.61117" lon="6.83447">
        <ele>853.360418</ele>
        <time>2022-05-27T20:26:49.354Z</time>
      </trkpt>
      <trkpt lat="45.61072" lon="6.83574">
        <ele>855.197346</ele>
        <time>2022-05-27T20:27:12.697Z</time>
      </trkpt>
      <trkpt lat="45.60979" lon="6.83713">
        <ele>857.923444</ele>
        <time>2022-05-27T20:27:44.293Z</time>
      </trkpt>
      <trkpt lat="45.6087" lon="6.83951">
        <ele>861.16232</ele>
        <time>2022-05-27T20:28:24.817Z</time>
      </trkpt>
      <trkpt lat="45.60814" lon="6.84189">
        <ele>865.425917</ele>
        <time>2022-05-27T20:29:05.844Z</time>
      </trkpt>
      <trkpt lat="45.60788" lon="6.84369">
        <ele>871.50996</ele>
        <time>2022-05-27T20:29:48.393Z</time>
      </trkpt>
      <trkpt lat="45.60756" lon="6.84524">
        <ele>878.585748</ele>
        <time>2022-05-27T20:30:37.303Z</time>
      </trkpt>
      <trkpt lat="45.60689" lon="6.84755">
        <ele>888.812663</ele>
        <time>2022-05-27T20:31:52.142Z</time>
      </trkpt>
      <trkpt lat="45.60668" lon="6.84844">
        <ele>891.701885</ele>
        <time>2022-05-27T20:32:11.266Z</time>
      </trkpt>
      <trkpt lat="45.60644" lon="6.85022">
        <ele>894.253396</ele>
        <time>2022-05-27T20:32:36.377Z</time>
      </trkpt>
      <trkpt lat="45.6062" lon="6.85081">
        <ele>894.698309</ele>
        <time>2022-05-27T20:32:43.750Z</time>
      </trkpt>
      <trkpt lat="45.60606" lon="6.85116">
        <ele>894.963122</ele>
        <time>2022-05-27T20:32:48.638Z</time>
      </trkpt>
      <trkpt lat="45.60596" lon="6.85169">
        <ele>895.336214</ele>
        <time>2022-05-27T20:32:55.362Z</time>
      </trkpt>
      <trkpt lat="45.60592" lon="6.8529">
        <ele>896.169619</ele>
        <time>2022-05-27T20:33:11.646Z</time>
      </trkpt>
      <trkpt lat="45.60581" lon="6.85403">
        <ele>896.955502</ele>
        <time>2022-05-27T20:33:27.229Z</time>
      </trkpt>
      <trkpt lat="45.60567" lon="6.85474">
        <ele>897.403544</ele>
        <time>2022-05-27T20:33:36.786Z</time>
      </trkpt>
      <trkpt lat="45.60552" lon="6.85509">
        <ele>897.651295</ele>
        <time>2022-05-27T20:33:42.082Z</time>
      </trkpt>
      <trkpt lat="45.60421" lon="6.85722">
        <ele>899.056284</ele>
        <time>2022-05-27T20:34:16.935Z</time>
      </trkpt>
      <trkpt lat="45.60358" lon="6.85874">
        <ele>899.602198</ele>
        <time>2022-05-27T20:34:37.415Z</time>
      </trkpt>
      <trkpt lat="45.60351" lon="6.85903">
        <ele>899.652828</ele>
        <time>2022-05-27T20:34:40.787Z</time>
      </trkpt>
      <trkpt lat="45.60348" lon="6.86098">
        <ele>899.928531</ele>
        <time>2022-05-27T20:35:02.005Z</time>
      </trkpt>
      <trkpt lat="45.60344" lon="6.86122">
        <ele>899.936766</ele>
        <time>2022-05-27T20:35:04.643Z</time>
      </trkpt>
      <trkpt lat="45.60335" lon="6.86169">
        <ele>899.952599</ele>
        <time>2022-05-27T20:35:09.680Z</time>
      </trkpt>
      <trkpt lat="45.60318" lon="6.86257">
        <ele>899.982695</ele>
        <time>2022-05-27T20:35:19.225Z</time>
      </trkpt>
      <trkpt lat="45.60294" lon="6.86397">
        <ele>900.02782</ele>
        <time>2022-05-27T20:35:34.145Z</time>
      </trkpt>
      <trkpt lat="45.60271" lon="6.86483">
        <ele>900.056073</ele>
        <time>2022-05-27T20:35:43.799Z</time>
      </trkpt>
      <trkpt lat="45.60242" lon="6.86538">
        <ele>900.077144</ele>
        <time>2022-05-27T20:35:51.109Z</time>
      </trkpt>
      <trkpt lat="45.60205" lon="6.86582">
        <ele>900.164125</ele>
        <time>2022-05-27T20:35:58.490Z</time>
      </trkpt>
      <trkpt lat="45.60033" lon="6.86755">
        <ele>900.805243</ele>
        <time>2022-05-27T20:36:31.502Z</time>
      </trkpt>
      <trkpt lat="45.6001" lon="6.86791">
        <ele>900.976303</ele>
        <time>2022-05-27T20:36:37.040Z</time>
      </trkpt>
      <trkpt lat="45.59978" lon="6.86866">
        <ele>901.287737</ele>
        <time>2022-05-27T20:36:47.368Z</time>
      </trkpt>
      <trkpt lat="45.59783" lon="6.87611">
        <ele>911.95186</ele>
        <time>2022-05-27T20:38:44.406Z</time>
      </trkpt>
      <trkpt lat="45.5973" lon="6.8794">
        <ele>937.241257</ele>
        <time>2022-05-27T20:41:00.745Z</time>
      </trkpt>
      <trkpt lat="45.59695" lon="6.87987">
        <ele>944.03396</ele>
        <time>2022-05-27T20:41:39.843Z</time>
      </trkpt>
      <trkpt lat="45.59636" lon="6.88048">
        <ele>954.291424</ele>
        <time>2022-05-27T20:42:38.819Z</time>
      </trkpt>
      <trkpt lat="45.59551" lon="6.8812">
        <ele>965.993726</ele>
        <time>2022-05-27T20:43:51.157Z</time>
      </trkpt>
      <trkpt lat="45.59532" lon="6.88118">
        <ele>968.21852</ele>
        <time>2022-05-27T20:44:02.492Z</time>
      </trkpt>
      <trkpt lat="45.59495" lon="6.88084">
        <ele>973.466813</ele>
        <time>2022-05-27T20:44:22.755Z</time>
      </trkpt>
      <trkpt lat="45.59432" lon="6.88071">
        <ele>977.038815</ele>
        <time>2022-05-27T20:44:46.171Z</time>
      </trkpt>
      <trkpt lat="45.59415" lon="6.8807">
        <ele>977.723078</ele>
        <time>2022-05-27T20:44:51.574Z</time>
      </trkpt>
      <trkpt lat="45.59366" lon="6.88103">
        <ele>979.882288</ele>
        <time>2022-05-27T20:45:06.992Z</time>
      </trkpt>
      <trkpt lat="45.59326" lon="6.88112">
        <ele>981.510119</ele>
        <time>2022-05-27T20:45:16.767Z</time>
      </trkpt>
      <trkpt lat="45.59282" lon="6.88104">
        <ele>983.67005</ele>
        <time>2022-05-27T20:45:26.754Z</time>
      </trkpt>
      <trkpt lat="45.5923" lon="6.88063">
        <ele>986.976618</ele>
        <time>2022-05-27T20:45:42.395Z</time>
      </trkpt>
      <trkpt lat="45.59221" lon="6.88063">
        <ele>987.486823</ele>
        <time>2022-05-27T20:45:45.573Z</time>
      </trkpt>
      <trkpt lat="45.59213" lon="6.88073">
        <ele>988.045344</ele>
        <time>2022-05-27T20:45:48.794Z</time>
      </trkpt>
      <trkpt lat="45.59212" lon="6.88089">
        <ele>988.668074</ele>
        <time>2022-05-27T20:45:53.464Z</time>
      </trkpt>
      <trkpt lat="45.59222" lon="6.88102">
        <ele>989.421105</ele>
        <time>2022-05-27T20:45:59.377Z</time>
      </trkpt>
      <trkpt lat="45.59306" lon="6.88138">
        <ele>996.852637</ele>
        <time>2022-05-27T20:46:45.970Z</time>
      </trkpt>
      <trkpt lat="45.59439" lon="6.88157">
        <ele>1013.215806</ele>
        <time>2022-05-27T20:48:18.186Z</time>
      </trkpt>
      <trkpt lat="45.59455" lon="6.88165">
        <ele>1014.964526</ele>
        <time>2022-05-27T20:48:29.515Z</time>
      </trkpt>
      <trkpt lat="45.5952" lon="6.88228">
        <ele>1021.800264</ele>
        <time>2022-05-27T20:49:18.025Z</time>
      </trkpt>
      <trkpt lat="45.5957" lon="6.88229">
        <ele>1026.091453</ele>
        <time>2022-05-27T20:49:39.092Z</time>
      </trkpt>
      <trkpt lat="45.59605" lon="6.8822">
        <ele>1029.246538</ele>
        <time>2022-05-27T20:49:49.759Z</time>
      </trkpt>
      <trkpt lat="45.59617" lon="6.8824">
        <ele>1030.107822</ele>
        <time>2022-05-27T20:49:55.971Z</time>
      </trkpt>
      <trkpt lat="45.59614" lon="6.88257">
        <ele>1030.456088</ele>
        <time>2022-05-27T20:50:00.186Z</time>
      </trkpt>
      <trkpt lat="45.59606" lon="6.88266">
        <ele>1030.744084</ele>
        <time>2022-05-27T20:50:03.740Z</time>
      </trkpt>
      <trkpt lat="45.59571" lon="6.88252">
        <ele>1031.716798</ele>
        <time>2022-05-27T20:50:13.613Z</time>
      </trkpt>
      <trkpt lat="45.59509" lon="6.88259">
        <ele>1033.427585</ele>
        <time>2022-05-27T20:50:27.754Z</time>
      </trkpt>
      <trkpt lat="45.59476" lon="6.8824">
        <ele>1034.410413</ele>
        <time>2022-05-27T20:50:35.656Z</time>
      </trkpt>
      <trkpt lat="45.59373" lon="6.88234">
        <ele>1035.662464</ele>
        <time>2022-05-27T20:50:57.346Z</time>
      </trkpt>
      <trkpt lat="45.59333" lon="6.88238">
        <ele>1036.082665</ele>
        <time>2022-05-27T20:51:05.785Z</time>
      </trkpt>
      <trkpt lat="45.59279" lon="6.88259">
        <ele>1036.862562</ele>
        <time>2022-05-27T20:51:12.878Z</time>
      </trkpt>
      <trkpt lat="45.59233" lon="6.8825">
        <ele>1038.357691</ele>
        <time>2022-05-27T20:51:19.993Z</time>
      </trkpt>
      <trkpt lat="45.59187" lon="6.88255">
        <ele>1039.866918</ele>
        <time>2022-05-27T20:51:30.704Z</time>
      </trkpt>
      <trkpt lat="45.59144" lon="6.88256">
        <ele>1041.268903</ele>
        <time>2022-05-27T20:51:45.955Z</time>
      </trkpt>
      <trkpt lat="45.59098" lon="6.88274">
        <ele>1043.280844</ele>
        <time>2022-05-27T20:52:06.085Z</time>
      </trkpt>
      <trkpt lat="45.59076" lon="6.88286">
        <ele>1045.093522</ele>
        <time>2022-05-27T20:52:17.346Z</time>
      </trkpt>
      <trkpt lat="45.59055" lon="6.88302">
        <ele>1046.827245</ele>
        <time>2022-05-27T20:52:28.629Z</time>
      </trkpt>
      <trkpt lat="45.59047" lon="6.88321">
        <ele>1048.016113</ele>
        <time>2022-05-27T20:52:35.578Z</time>
      </trkpt>
      <trkpt lat="45.59044" lon="6.88334">
        <ele>1048.736443</ele>
        <time>2022-05-27T20:52:40.271Z</time>
      </trkpt>
      <trkpt lat="45.59035" lon="6.88388">
        <ele>1051.573804</ele>
        <time>2022-05-27T20:52:56.829Z</time>
      </trkpt>
      <trkpt lat="45.59025" lon="6.88408">
        <ele>1052.87551</ele>
        <time>2022-05-27T20:53:02.087Z</time>
      </trkpt>
      <trkpt lat="45.59014" lon="6.88412">
        <ele>1053.750719</ele>
        <time>2022-05-27T20:53:07.120Z</time>
      </trkpt>
      <trkpt lat="45.59006" lon="6.88414">
        <ele>1054.330079</ele>
        <time>2022-05-27T20:53:11.005Z</time>
      </trkpt>
      <trkpt lat="45.58975" lon="6.88389">
        <ele>1057.263077</ele>
        <time>2022-05-27T20:53:27.563Z</time>
      </trkpt>
      <trkpt lat="45.58938" lon="6.88344">
        <ele>1061.558772</ele>
        <time>2022-05-27T20:53:55.264Z</time>
      </trkpt>
      <trkpt lat="45.58912" lon="6.88338">
        <ele>1063.996123</ele>
        <time>2022-05-27T20:54:11.842Z</time>
      </trkpt>
      <trkpt lat="45.58896" lon="6.88341">
        <ele>1065.444488</ele>
        <time>2022-05-27T20:54:17.192Z</time>
      </trkpt>
      <trkpt lat="45.58878" lon="6.8835">
        <ele>1067.152989</ele>
        <time>2022-05-27T20:54:28.390Z</time>
      </trkpt>
      <trkpt lat="45.58865" lon="6.88367">
        <ele>1068.716252</ele>
        <time>2022-05-27T20:54:34.801Z</time>
      </trkpt>
      <trkpt lat="45.58859" lon="6.88384">
        <ele>1069.914776</ele>
        <time>2022-05-27T20:54:42.737Z</time>
      </trkpt>
      <trkpt lat="45.58855" lon="6.8841">
        <ele>1071.614363</ele>
        <time>2022-05-27T20:54:49.983Z</time>
      </trkpt>
      <trkpt lat="45.58846" lon="6.88443">
        <ele>1074.110922</ele>
        <time>2022-05-27T20:55:03.190Z</time>
      </trkpt>
      <trkpt lat="45.58784" lon="6.88495">
        <ele>1081.56272</ele>
        <time>2022-05-27T20:55:42.721Z</time>
      </trkpt>
      <trkpt lat="45.58766" lon="6.88497">
        <ele>1083.49793</ele>
        <time>2022-05-27T20:55:53.211Z</time>
      </trkpt>
      <trkpt lat="45.58662" lon="6.88447">
        <ele>1096.347338</ele>
        <time>2022-05-27T20:57:00.066Z</time>
      </trkpt>
      <trkpt lat="45.5863" lon="6.88437">
        <ele>1100.792014</ele>
        <time>2022-05-27T20:57:22.313Z</time>
      </trkpt>
      <trkpt lat="45.58615" lon="6.88438">
        <ele>1102.878092</ele>
        <time>2022-05-27T20:57:32.846Z</time>
      </trkpt>
      <trkpt lat="45.58559" lon="6.88481">
        <ele>1111.766334</ele>
        <time>2022-05-27T20:58:20.218Z</time>
      </trkpt>
      <trkpt lat="45.58553" lon="6.88487">
        <ele>1112.767312</ele>
        <time>2022-05-27T20:58:25.493Z</time>
      </trkpt>
      <trkpt lat="45.58547" lon="6.88491">
        <ele>1113.622876</ele>
        <time>2022-05-27T20:58:30.567Z</time>
      </trkpt>
      <trkpt lat="45.58525" lon="6.88507">
        <ele>1117.094659</ele>
        <time>2022-05-27T20:58:48.989Z</time>
      </trkpt>
      <trkpt lat="45.58509" lon="6.8851">
        <ele>1119.333812</ele>
        <time>2022-05-27T20:59:01.910Z</time>
      </trkpt>
      <trkpt lat="45.58461" lon="6.88491">
        <ele>1126.452261</ele>
        <time>2022-05-27T20:59:42.919Z</time>
      </trkpt>
      <trkpt lat="45.58395" lon="6.8849">
        <ele>1135.740685</ele>
        <time>2022-05-27T21:00:32.665Z</time>
      </trkpt>
      <trkpt lat="45.58351" lon="6.88473">
        <ele>1141.744937</ele>
        <time>2022-05-27T21:00:59.703Z</time>
      </trkpt>
      <trkpt lat="45.58262" lon="6.88418">
        <ele>1149.859716</ele>
        <time>2022-05-27T21:01:43.244Z</time>
      </trkpt>
      <trkpt lat="45.58206" lon="6.8842">
        <ele>1154.623234</ele>
        <time>2022-05-27T21:02:07.564Z</time>
      </trkpt>
      <trkpt lat="45.58088" lon="6.88381">
        <ele>1166.823497</ele>
        <time>2022-05-27T21:03:09.336Z</time>
      </trkpt>
      <trkpt lat="45.58041" lon="6.88379">
        <ele>1171.792197</ele>
        <time>2022-05-27T21:03:40.322Z</time>
      </trkpt>
      <trkpt lat="45.57995" lon="6.88391">
        <ele>1176.877193</ele>
        <time>2022-05-27T21:04:10.633Z</time>
      </trkpt>
      <trkpt lat="45.57965" lon="6.8839">
        <ele>1180.263279</ele>
        <time>2022-05-27T21:04:30.753Z</time>
      </trkpt>
      <trkpt lat="45.5791" lon="6.88345">
        <ele>1187.587978</ele>
        <time>2022-05-27T21:05:09.893Z</time>
      </trkpt>
      <trkpt lat="45.57866" lon="6.88269">
        <ele>1195.559751</ele>
        <time>2022-05-27T21:05:49.898Z</time>
      </trkpt>
      <trkpt lat="45.57853" lon="6.88228">
        <ele>1198.310152</ele>
        <time>2022-05-27T21:06:08.399Z</time>
      </trkpt>
      <trkpt lat="45.57846" lon="6.88224">
        <ele>1198.939191</ele>
        <time>2022-05-27T21:06:11.845Z</time>
      </trkpt>
      <trkpt lat="45.57835" lon="6.88231">
        <ele>1199.976157</ele>
        <time>2022-05-27T21:06:15.785Z</time>
      </trkpt>
      <trkpt lat="45.57835" lon="6.88249">
        <ele>1201.050805</ele>
        <time>2022-05-27T21:06:25.925Z</time>
      </trkpt>
      <trkpt lat="45.57842" lon="6.88263">
        <ele>1202.105392</ele>
        <time>2022-05-27T21:06:31.449Z</time>
      </trkpt>
      <trkpt lat="45.57919" lon="6.8839">
        <ele>1211.966084</ele>
        <time>2022-05-27T21:07:21.578Z</time>
      </trkpt>
      <trkpt lat="45.57952" lon="6.88437">
        <ele>1214.537792</ele>
        <time>2022-05-27T21:07:49.154Z</time>
      </trkpt>
      <trkpt lat="45.57993" lon="6.88453">
        <ele>1216.910844</ele>
        <time>2022-05-27T21:08:08.362Z</time>
      </trkpt>
      <trkpt lat="45.57998" lon="6.8846">
        <ele>1217.305794</ele>
        <time>2022-05-27T21:08:10.694Z</time>
      </trkpt>
      <trkpt lat="45.57997" lon="6.88481">
        <ele>1218.137461</ele>
        <time>2022-05-27T21:08:15.832Z</time>
      </trkpt>
      <trkpt lat="45.57988" lon="6.88487">
        <ele>1218.695355</ele>
        <time>2022-05-27T21:08:19.327Z</time>
      </trkpt>
      <trkpt lat="45.57979" lon="6.88484">
        <ele>1219.184409</ele>
        <time>2022-05-27T21:08:20.985Z</time>
      </trkpt>
      <trkpt lat="45.5795" lon="6.88465">
        <ele>1220.959369</ele>
        <time>2022-05-27T21:08:27.533Z</time>
      </trkpt>
      <trkpt lat="45.57927" lon="6.88433">
        <ele>1220.948796</ele>
        <time>2022-05-27T21:08:32.351Z</time>
      </trkpt>
      <trkpt lat="45.57852" lon="6.88336">
        <ele>1219.436477</ele>
        <time>2022-05-27T21:08:43.695Z</time>
      </trkpt>
      <trkpt lat="45.57815" lon="6.883">
        <ele>1218.762962</ele>
        <time>2022-05-27T21:08:48.664Z</time>
      </trkpt>
      <trkpt lat="45.57805" lon="6.88295">
        <ele>1218.63907</ele>
        <time>2022-05-27T21:08:49.708Z</time>
      </trkpt>
      <trkpt lat="45.57738" lon="6.8829">
        <ele>1218.698869</ele>
        <time>2022-05-27T21:08:56.294Z</time>
      </trkpt>
      <trkpt lat="45.57708" lon="6.88301">
        <ele>1218.726189</ele>
        <time>2022-05-27T21:09:00.289Z</time>
      </trkpt>
      <trkpt lat="45.57657" lon="6.88342">
        <ele>1218.778494</ele>
        <time>2022-05-27T21:09:14.282Z</time>
      </trkpt>
      <trkpt lat="45.57641" lon="6.88364">
        <ele>1218.901631</ele>
        <time>2022-05-27T21:09:21.589Z</time>
      </trkpt>
      <trkpt lat="45.57625" lon="6.88403">
        <ele>1220.958585</ele>
        <time>2022-05-27T21:09:32.775Z</time>
      </trkpt>
      <trkpt lat="45.57607" lon="6.88424">
        <ele>1222.428424</ele>
        <time>2022-05-27T21:09:41.475Z</time>
      </trkpt>
      <trkpt lat="45.57547" lon="6.88442">
        <ele>1226.364442</ele>
        <time>2022-05-27T21:10:05.839Z</time>
      </trkpt>
      <trkpt lat="45.57506" lon="6.88435">
        <ele>1229.057582</ele>
        <time>2022-05-27T21:10:25.266Z</time>
      </trkpt>
      <trkpt lat="45.57476" lon="6.8843">
        <ele>1231.348719</ele>
        <time>2022-05-27T21:10:38.975Z</time>
      </trkpt>
      <trkpt lat="45.5744" lon="6.88449">
        <ele>1235.327774</ele>
        <time>2022-05-27T21:10:58.589Z</time>
      </trkpt>
      <trkpt lat="45.5738" lon="6.8851">
        <ele>1242.965454</ele>
        <time>2022-05-27T21:11:44.933Z</time>
      </trkpt>
      <trkpt lat="45.57329" lon="6.88539">
        <ele>1248.61547</ele>
        <time>2022-05-27T21:12:15.830Z</time>
      </trkpt>
      <trkpt lat="45.57292" lon="6.88601">
        <ele>1253.427865</ele>
        <time>2022-05-27T21:12:47.986Z</time>
      </trkpt>
      <trkpt lat="45.57286" lon="6.88607">
        <ele>1254.064491</ele>
        <time>2022-05-27T21:12:51.475Z</time>
      </trkpt>
      <trkpt lat="45.57269" lon="6.88622">
        <ele>1255.779315</ele>
        <time>2022-05-27T21:13:01.823Z</time>
      </trkpt>
      <trkpt lat="45.57239" lon="6.88629">
        <ele>1258.307235</ele>
        <time>2022-05-27T21:13:14.600Z</time>
      </trkpt>
      <trkpt lat="45.57135" lon="6.88658">
        <ele>1266.7159</ele>
        <time>2022-05-27T21:14:01.301Z</time>
      </trkpt>
      <trkpt lat="45.57099" lon="6.88679">
        <ele>1269.514302</ele>
        <time>2022-05-27T21:14:15.394Z</time>
      </trkpt>
      <trkpt lat="45.57081" lon="6.88689">
        <ele>1270.88029</ele>
        <time>2022-05-27T21:14:21.803Z</time>
      </trkpt>
      <trkpt lat="45.57041" lon="6.88718">
        <ele>1274.118563</ele>
        <time>2022-05-27T21:14:42.463Z</time>
      </trkpt>
      <trkpt lat="45.56957" lon="6.88823">
        <ele>1281.474751</ele>
        <time>2022-05-27T21:15:38.942Z</time>
      </trkpt>
      <trkpt lat="45.56904" lon="6.88869">
        <ele>1285.348869</ele>
        <time>2022-05-27T21:16:04.601Z</time>
      </trkpt>
      <trkpt lat="45.5677" lon="6.88938">
        <ele>1292.102643</ele>
        <time>2022-05-27T21:16:38.126Z</time>
      </trkpt>
      <trkpt lat="45.56749" lon="6.88942">
        <ele>1292.987427</ele>
        <time>2022-05-27T21:16:42.963Z</time>
      </trkpt>
      <trkpt lat="45.5671" lon="6.88932">
        <ele>1294.594401</ele>
        <time>2022-05-27T21:16:55.391Z</time>
      </trkpt>
      <trkpt lat="45.56692" lon="6.88939">
        <ele>1295.347982</ele>
        <time>2022-05-27T21:17:03.048Z</time>
      </trkpt>
      <trkpt lat="45.56592" lon="6.89081">
        <ele>1310.665215</ele>
        <time>2022-05-27T21:18:25.902Z</time>
      </trkpt>
      <trkpt lat="45.56492" lon="6.89146">
        <ele>1322.283604</ele>
        <time>2022-05-27T21:19:43.660Z</time>
      </trkpt>
      <trkpt lat="45.56389" lon="6.89257">
        <ele>1334.45</ele>
        <time>2022-05-27T21:20:48.321Z</time>
      </trkpt>
      <trkpt lat="45.5637" lon="6.8927">
        <ele>1335.036165</ele>
        <time>2022-05-27T21:20:56.118Z</time>
      </trkpt>
      <trkpt lat="45.56316" lon="6.89276">
        <ele>1336.548864</ele>
        <time>2022-05-27T21:21:13.898Z</time>
      </trkpt>
      <trkpt lat="45.56292" lon="6.89286">
        <ele>1337.238674</ele>
        <time>2022-05-27T21:21:20.773Z</time>
      </trkpt>
      <trkpt lat="45.56114" lon="6.89443">
        <ele>1335.056056</ele>
        <time>2022-05-27T21:21:43.697Z</time>
      </trkpt>
      <trkpt lat="45.56067" lon="6.8946">
        <ele>1333.735516</ele>
        <time>2022-05-27T21:21:48.224Z</time>
      </trkpt>
      <trkpt lat="45.56008" lon="6.89466">
        <ele>1332.108171</ele>
        <time>2022-05-27T21:21:53.923Z</time>
      </trkpt>
      <trkpt lat="45.5598" lon="6.8948">
        <ele>1331.28712</ele>
        <time>2022-05-27T21:21:56.761Z</time>
      </trkpt>
      <trkpt lat="45.55959" lon="6.89521">
        <ele>1330.312851</ele>
        <time>2022-05-27T21:22:00.232Z</time>
      </trkpt>
      <trkpt lat="45.55923" lon="6.89625">
        <ele>1330.784267</ele>
        <time>2022-05-27T21:22:14.533Z</time>
      </trkpt>
      <trkpt lat="45.55867" lon="6.89714">
        <ele>1334.093009</ele>
        <time>2022-05-27T21:22:45.156Z</time>
      </trkpt>
      <trkpt lat="45.55826" lon="6.89743">
        <ele>1335.920621</ele>
        <time>2022-05-27T21:22:59.967Z</time>
      </trkpt>
      <trkpt lat="45.55809" lon="6.89795">
        <ele>1339.84042</ele>
        <time>2022-05-27T21:23:12.377Z</time>
      </trkpt>
      <trkpt lat="45.55798" lon="6.89812">
        <ele>1341.655322</ele>
        <time>2022-05-27T21:23:19.269Z</time>
      </trkpt>
      <trkpt lat="45.55748" lon="6.89874">
        <ele>1349.439849</ele>
        <time>2022-05-27T21:24:02.702Z</time>
      </trkpt>
      <trkpt lat="45.55732" lon="6.89901">
        <ele>1352.319597</ele>
        <time>2022-05-27T21:24:17.739Z</time>
      </trkpt>
      <trkpt lat="45.55725" lon="6.89915">
        <ele>1353.656256</ele>
        <time>2022-05-27T21:24:28.119Z</time>
      </trkpt>
      <trkpt lat="45.55694" lon="6.89957">
        <ele>1359.607047</ele>
        <time>2022-05-27T21:25:01.295Z</time>
      </trkpt>
      <trkpt lat="45.5567" lon="6.89985">
        <ele>1365.693324</ele>
        <time>2022-05-27T21:25:30.207Z</time>
      </trkpt>
      <trkpt lat="45.55605" lon="6.90086">
        <ele>1384.480722</ele>
        <time>2022-05-27T21:27:06.415Z</time>
      </trkpt>
      <trkpt lat="45.55563" lon="6.90114">
        <ele>1393.023073</ele>
        <time>2022-05-27T21:27:56.335Z</time>
      </trkpt>
      <trkpt lat="45.55518" lon="6.90128">
        <ele>1396.648579</ele>
        <time>2022-05-27T21:28:27.873Z</time>
      </trkpt>
      <trkpt lat="45.55438" lon="6.90171">
        <ele>1403.402559</ele>
        <time>2022-05-27T21:29:09.072Z</time>
      </trkpt>
      <trkpt lat="45.55284" lon="6.90146">
        <ele>1400.886573</ele>
        <time>2022-05-27T21:29:24.059Z</time>
      </trkpt>
      <trkpt lat="45.55254" lon="6.90159">
        <ele>1399.235317</ele>
        <time>2022-05-27T21:29:26.790Z</time>
      </trkpt>
      <trkpt lat="45.55228" lon="6.90182">
        <ele>1397.635486</ele>
        <time>2022-05-27T21:29:29.449Z</time>
      </trkpt>
      <trkpt lat="45.55176" lon="6.90215">
        <ele>1395.192523</ele>
        <time>2022-05-27T21:29:34.553Z</time>
      </trkpt>
      <trkpt lat="45.55091" lon="6.90283">
        <ele>1391.15242</ele>
        <time>2022-05-27T21:29:43.873Z</time>
      </trkpt>
      <trkpt lat="45.5505" lon="6.90325">
        <ele>1390.806249</ele>
        <time>2022-05-27T21:29:50.439Z</time>
      </trkpt>
      <trkpt lat="45.54971" lon="6.90431">
        <ele>1396.502964</ele>
        <time>2022-05-27T21:30:24.446Z</time>
      </trkpt>
      <trkpt lat="45.54857" lon="6.90632">
        <ele>1413.878614</ele>
        <time>2022-05-27T21:32:12.551Z</time>
      </trkpt>
      <trkpt lat="45.5471" lon="6.90737">
        <ele>1431.282353</ele>
        <time>2022-05-27T21:33:56.860Z</time>
      </trkpt>
      <trkpt lat="45.54641" lon="6.9075">
        <ele>1438.274456</ele>
        <time>2022-05-27T21:34:30.749Z</time>
      </trkpt>
      <trkpt lat="45.54579" lon="6.90784">
        <ele>1440.490918</ele>
        <time>2022-05-27T21:34:53.580Z</time>
      </trkpt>
      <trkpt lat="45.54531" lon="6.90793">
        <ele>1442.12435</ele>
        <time>2022-05-27T21:35:05.021Z</time>
      </trkpt>
      <trkpt lat="45.5445" lon="6.90849">
        <ele>1445.4549</ele>
        <time>2022-05-27T21:35:21.037Z</time>
      </trkpt>
      <trkpt lat="45.54354" lon="6.90888">
        <ele>1449.877771</ele>
        <time>2022-05-27T21:35:47.672Z</time>
      </trkpt>
      <trkpt lat="45.54305" lon="6.90933">
        <ele>1452.859086</ele>
        <time>2022-05-27T21:36:15.528Z</time>
      </trkpt>
      <trkpt lat="45.54244" lon="6.90982">
        <ele>1460.235614</ele>
        <time>2022-05-27T21:36:56.119Z</time>
      </trkpt>
      <trkpt lat="45.54183" lon="6.91061">
        <ele>1468.910309</ele>
        <time>2022-05-27T21:37:47.150Z</time>
      </trkpt>
      <trkpt lat="45.54114" lon="6.91099">
        <ele>1473.658335</ele>
        <time>2022-05-27T21:38:29.696Z</time>
      </trkpt>
      <trkpt lat="45.54089" lon="6.91105">
        <ele>1474.856223</ele>
        <time>2022-05-27T21:38:40.802Z</time>
      </trkpt>
      <trkpt lat="45.54064" lon="6.91103">
        <ele>1476.007836</ele>
        <time>2022-05-27T21:38:49.359Z</time>
      </trkpt>
      <trkpt lat="45.54041" lon="6.91086">
        <ele>1477.217189</ele>
        <time>2022-05-27T21:38:56.135Z</time>
      </trkpt>
      <trkpt lat="45.54022" lon="6.91083">
        <ele>1478.095234</ele>
        <time>2022-05-27T21:38:59.249Z</time>
      </trkpt>
      <trkpt lat="45.53918" lon="6.91147">
        <ele>1477.529173</ele>
        <time>2022-05-27T21:39:10.845Z</time>
      </trkpt>
      <trkpt lat="45.53858" lon="6.91147">
        <ele>1475.993057</ele>
        <time>2022-05-27T21:39:16.697Z</time>
      </trkpt>
      <trkpt lat="45.53803" lon="6.91167">
        <ele>1476.275239</ele>
        <time>2022-05-27T21:39:22.600Z</time>
      </trkpt>
      <trkpt lat="45.53765" lon="6.91202">
        <ele>1479.565124</ele>
        <time>2022-05-27T21:39:31.524Z</time>
      </trkpt>
      <trkpt lat="45.5369" lon="6.913">
        <ele>1487.035147</ele>
        <time>2022-05-27T21:40:31.620Z</time>
      </trkpt>
      <trkpt lat="45.53663" lon="6.91387">
        <ele>1495.973848</ele>
        <time>2022-05-27T21:41:19.263Z</time>
      </trkpt>
      <trkpt lat="45.53661" lon="6.91397">
        <ele>1497.140787</ele>
        <time>2022-05-27T21:41:25.875Z</time>
      </trkpt>
      <trkpt lat="45.53649" lon="6.91423">
        <ele>1500.388212</ele>
        <time>2022-05-27T21:41:42.252Z</time>
      </trkpt>
      <trkpt lat="45.53626" lon="6.91437">
        <ele>1504.263586</ele>
        <time>2022-05-27T21:42:04.388Z</time>
      </trkpt>
      <trkpt lat="45.53581" lon="6.91431">
        <ele>1511.074734</ele>
        <time>2022-05-27T21:42:42.826Z</time>
      </trkpt>
      <trkpt lat="45.53541" lon="6.91446">
        <ele>1516.735488</ele>
        <time>2022-05-27T21:43:15.057Z</time>
      </trkpt>
      <trkpt lat="45.53515" lon="6.9146">
        <ele>1519.370328</ele>
        <time>2022-05-27T21:43:33.513Z</time>
      </trkpt>
      <trkpt lat="45.53496" lon="6.91457">
        <ele>1521.131764</ele>
        <time>2022-05-27T21:43:42.963Z</time>
      </trkpt>
      <trkpt lat="45.53465" lon="6.9146">
        <ele>1524.071663</ele>
        <time>2022-05-27T21:43:56.342Z</time>
      </trkpt>
      <trkpt lat="45.53375" lon="6.91496">
        <ele>1532.960932</ele>
        <time>2022-05-27T21:44:32.178Z</time>
      </trkpt>
      <trkpt lat="45.53304" lon="6.91498">
        <ele>1542.477382</ele>
        <time>2022-05-27T21:45:17.071Z</time>
      </trkpt>
      <trkpt lat="45.53233" lon="6.91517">
        <ele>1552.216409</ele>
        <time>2022-05-27T21:46:14.836Z</time>
      </trkpt>
      <trkpt lat="45.53204" lon="6.9153">
        <ele>1556.303189</ele>
        <time>2022-05-27T21:46:37.989Z</time>
      </trkpt>
      <trkpt lat="45.53177" lon="6.91584">
        <ele>1562.182684</ele>
        <time>2022-05-27T21:47:13.091Z</time>
      </trkpt>
      <trkpt lat="45.53171" lon="6.91589">
        <ele>1563.141662</ele>
        <time>2022-05-27T21:47:19.676Z</time>
      </trkpt>
      <trkpt lat="45.53151" lon="6.91589">
        <ele>1565.687839</ele>
        <time>2022-05-27T21:47:32.517Z</time>
      </trkpt>
      <trkpt lat="45.53137" lon="6.91572">
        <ele>1568.011575</ele>
        <time>2022-05-27T21:47:48.182Z</time>
      </trkpt>
      <trkpt lat="45.5311" lon="6.91528">
        <ele>1573.209067</ele>
        <time>2022-05-27T21:48:17.281Z</time>
      </trkpt>
      <trkpt lat="45.5309" lon="6.91505">
        <ele>1576.413963</ele>
        <time>2022-05-27T21:48:33.888Z</time>
      </trkpt>
      <trkpt lat="45.53016" lon="6.91471">
        <ele>1580.663284</ele>
        <time>2022-05-27T21:49:01.034Z</time>
      </trkpt>
      <trkpt lat="45.52964" lon="6.91412">
        <ele>1582.255516</ele>
        <time>2022-05-27T21:49:09.427Z</time>
      </trkpt>
      <trkpt lat="45.52921" lon="6.91374">
        <ele>1583.456278</ele>
        <time>2022-05-27T21:49:19.305Z</time>
      </trkpt>
      <trkpt lat="45.52846" lon="6.91354">
        <ele>1584.419456</ele>
        <time>2022-05-27T21:49:35.431Z</time>
      </trkpt>
      <trkpt lat="45.52809" lon="6.91335">
        <ele>1584.863282</ele>
        <time>2022-05-27T21:49:44.169Z</time>
      </trkpt>
      <trkpt lat="45.52686" lon="6.91301">
        <ele>1585.300277</ele>
        <time>2022-05-27T21:50:05.957Z</time>
      </trkpt>
      <trkpt lat="45.52637" lon="6.91274">
        <ele>1584.910826</ele>
        <time>2022-05-27T21:50:12.234Z</time>
      </trkpt>
      <trkpt lat="45.52486" lon="6.91265">
        <ele>1584.494238</ele>
        <time>2022-05-27T21:50:29.666Z</time>
      </trkpt>
      <trkpt lat="45.52448" lon="6.91272">
        <ele>1584.558817</ele>
        <time>2022-05-27T21:50:35.815Z</time>
      </trkpt>
      <trkpt lat="45.52423" lon="6.91279">
        <ele>1584.602186</ele>
        <time>2022-05-27T21:50:40.677Z</time>
      </trkpt>
      <trkpt lat="45.52357" lon="6.91316">
        <ele>1584.883692</ele>
        <time>2022-05-27T21:50:57.198Z</time>
      </trkpt>
      <trkpt lat="45.52312" lon="6.91354">
        <ele>1585.254188</ele>
        <time>2022-05-27T21:51:11.265Z</time>
      </trkpt>
      <trkpt lat="45.52244" lon="6.91373">
        <ele>1585.732148</ele>
        <time>2022-05-27T21:51:24.616Z</time>
      </trkpt>
      <trkpt lat="45.52199" lon="6.91394">
        <ele>1585.756083</ele>
        <time>2022-05-27T21:51:29.389Z</time>
      </trkpt>
      <trkpt lat="45.52144" lon="6.91386">
        <ele>1585.300638</ele>
        <time>2022-05-27T21:51:34.657Z</time>
      </trkpt>
      <trkpt lat="45.52099" lon="6.9134">
        <ele>1584.843398</ele>
        <time>2022-05-27T21:51:42.709Z</time>
      </trkpt>
      <trkpt lat="45.5208" lon="6.91331">
        <ele>1584.674498</ele>
        <time>2022-05-27T21:51:45.277Z</time>
      </trkpt>
      <trkpt lat="45.52059" lon="6.91331">
        <ele>1584.502488</ele>
        <time>2022-05-27T21:51:50.790Z</time>
      </trkpt>
      <trkpt lat="45.52033" lon="6.91349">
        <ele>1586.319647</ele>
        <time>2022-05-27T21:51:58.005Z</time>
      </trkpt>
      <trkpt lat="45.52018" lon="6.91373">
        <ele>1588.366739</ele>
        <time>2022-05-27T21:52:02.576Z</time>
      </trkpt>
      <trkpt lat="45.51988" lon="6.91423">
        <ele>1592.561143</ele>
        <time>2022-05-27T21:52:21.599Z</time>
      </trkpt>
      <trkpt lat="45.51964" lon="6.91447">
        <ele>1595.19445</ele>
        <time>2022-05-27T21:52:37.074Z</time>
      </trkpt>
      <trkpt lat="45.51896" lon="6.91497">
        <ele>1602.939029</ele>
        <time>2022-05-27T21:53:38.996Z</time>
      </trkpt>
      <trkpt lat="45.51791" lon="6.91544">
        <ele>1618.790151</ele>
        <time>2022-05-27T21:55:02.207Z</time>
      </trkpt>
      <trkpt lat="45.51723" lon="6.91619">
        <ele>1628.995895</ele>
        <time>2022-05-27T21:56:00.068Z</time>
      </trkpt>
      <trkpt lat="45.51703" lon="6.91627">
        <ele>1630.528869</ele>
        <time>2022-05-27T21:56:12.029Z</time>
      </trkpt>
      <trkpt lat="45.51619" lon="6.91634">
        <ele>1636.742919</ele>
        <time>2022-05-27T21:56:48.541Z</time>
      </trkpt>
      <trkpt lat="45.51555" lon="6.91654">
        <ele>1640.408003</ele>
        <time>2022-05-27T21:57:03.589Z</time>
      </trkpt>
      <trkpt lat="45.51474" lon="6.91687">
        <ele>1642.124508</ele>
        <time>2022-05-27T21:57:21.333Z</time>
      </trkpt>
      <trkpt lat="45.51409" lon="6.91728">
        <ele>1643.571786</ele>
        <time>2022-05-27T21:57:36.913Z</time>
      </trkpt>
      <trkpt lat="45.51372" lon="6.9177">
        <ele>1645.254275</ele>
        <time>2022-05-27T21:57:48.618Z</time>
      </trkpt>
      <trkpt lat="45.5129" lon="6.91887">
        <ele>1649.536776</ele>
        <time>2022-05-27T21:58:23.951Z</time>
      </trkpt>
      <trkpt lat="45.5111" lon="6.92115">
        <ele>1664.627713</ele>
        <time>2022-05-27T21:59:51.009Z</time>
      </trkpt>
      <trkpt lat="45.51031" lon="6.92244">
        <ele>1677.93752</ele>
        <time>2022-05-27T22:01:05.307Z</time>
      </trkpt>
      <trkpt lat="45.5099" lon="6.9235">
        <ele>1688.843439</ele>
        <time>2022-05-27T22:02:16.786Z</time>
      </trkpt>
      <trkpt lat="45.50959" lon="6.92402">
        <ele>1695.244032</ele>
        <time>2022-05-27T22:02:51.546Z</time>
      </trkpt>
      <trkpt lat="45.50943" lon="6.92423">
        <ele>1698.258573</ele>
        <time>2022-05-27T22:03:06.757Z</time>
      </trkpt>
      <trkpt lat="45.50897" lon="6.92465">
        <ele>1704.734794</ele>
        <time>2022-05-27T22:03:37.718Z</time>
      </trkpt>
      <trkpt lat="45.5075" lon="6.92535">
        <ele>1713.851595</ele>
        <time>2022-05-27T22:04:35.798Z</time>
      </trkpt>
      <trkpt lat="45.50685" lon="6.92642">
        <ele>1718.610867</ele>
        <time>2022-05-27T22:04:58.243Z</time>
      </trkpt>
      <trkpt lat="45.50673" lon="6.92657">
        <ele>1719.350234</ele>
        <time>2022-05-27T22:05:02.223Z</time>
      </trkpt>
      <trkpt lat="45.50619" lon="6.92711">
        <ele>1722.35292</ele>
        <time>2022-05-27T22:05:29.109Z</time>
      </trkpt>
      <trkpt lat="45.50523" lon="6.92825">
        <ele>1736.234879</ele>
        <time>2022-05-27T22:06:46.337Z</time>
      </trkpt>
      <trkpt lat="45.50454" lon="6.9292">
        <ele>1748.19983</ele>
        <time>2022-05-27T22:07:59.590Z</time>
      </trkpt>
      <trkpt lat="45.50374" lon="6.92986">
        <ele>1761.321602</ele>
        <time>2022-05-27T22:09:11.084Z</time>
      </trkpt>
      <trkpt lat="45.50332" lon="6.93007">
        <ele>1767.711338</ele>
        <time>2022-05-27T22:09:41.932Z</time>
      </trkpt>
      <trkpt lat="45.50298" lon="6.93017">
        <ele>1771.376202</ele>
        <time>2022-05-27T22:10:02.153Z</time>
      </trkpt>
      <trkpt lat="45.50258" lon="6.93024">
        <ele>1774.58504</ele>
        <time>2022-05-27T22:10:23.399Z</time>
      </trkpt>
      <trkpt lat="45.50206" lon="6.93019">
        <ele>1778.765942</ele>
        <time>2022-05-27T22:10:46.879Z</time>
      </trkpt>
      <trkpt lat="45.50179" lon="6.93025">
        <ele>1780.877119</ele>
        <time>2022-05-27T22:10:57.022Z</time>
      </trkpt>
      <trkpt lat="45.50121" lon="6.9306">
        <ele>1784.97687</ele>
        <time>2022-05-27T22:11:20.074Z</time>
      </trkpt>
      <trkpt lat="45.50044" lon="6.93085">
        <ele>1788.174474</ele>
        <time>2022-05-27T22:11:48.302Z</time>
      </trkpt>
      <trkpt lat="45.49948" lon="6.93146">
        <ele>1792.17481</ele>
        <time>2022-05-27T22:12:14.011Z</time>
      </trkpt>
      <trkpt lat="45.49914" lon="6.9316">
        <ele>1793.293736</ele>
        <time>2022-05-27T22:12:22.346Z</time>
      </trkpt>
      <trkpt lat="45.49884" lon="6.93173">
        <ele>1794.260355</ele>
        <time>2022-05-27T22:12:29.772Z</time>
      </trkpt>
      <trkpt lat="45.49836" lon="6.93192">
        <ele>1795.795444</ele>
        <time>2022-05-27T22:12:44.134Z</time>
      </trkpt>
      <trkpt lat="45.49758" lon="6.93272">
        <ele>1799.686236</ele>
        <time>2022-05-27T22:13:15.614Z</time>
      </trkpt>
      <trkpt lat="45.49738" lon="6.93295">
        <ele>1800.845005</ele>
        <time>2022-05-27T22:13:24.825Z</time>
      </trkpt>
      <trkpt lat="45.49647" lon="6.93367">
        <ele>1805.454311</ele>
        <time>2022-05-27T22:14:00.274Z</time>
      </trkpt>
      <trkpt lat="45.49561" lon="6.93422">
        <ele>1808.073535</ele>
        <time>2022-05-27T22:14:27.303Z</time>
      </trkpt>
      <trkpt lat="45.49544" lon="6.93446">
        <ele>1808.741158</ele>
        <time>2022-05-27T22:14:32.520Z</time>
      </trkpt>
      <trkpt lat="45.49515" lon="6.93509">
        <ele>1810.203021</ele>
        <time>2022-05-27T22:14:42.115Z</time>
      </trkpt>
      <trkpt lat="45.49371" lon="6.93717">
        <ele>1813.744726</ele>
        <time>2022-05-27T22:15:39.139Z</time>
      </trkpt>
      <trkpt lat="45.49352" lon="6.93757">
        <ele>1814.257784</ele>
        <time>2022-05-27T22:15:47.998Z</time>
      </trkpt>
      <trkpt lat="45.49328" lon="6.93831">
        <ele>1815.115282</ele>
        <time>2022-05-27T22:16:02.801Z</time>
      </trkpt>
      <trkpt lat="45.49298" lon="6.93891">
        <ele>1815.892698</ele>
        <time>2022-05-27T22:16:16.214Z</time>
      </trkpt>
      <trkpt lat="45.49225" lon="6.94006">
        <ele>1817.384811</ele>
        <time>2022-05-27T22:16:44.010Z</time>
      </trkpt>
      <trkpt lat="45.49185" lon="6.94063">
        <ele>1818.167455</ele>
        <time>2022-05-27T22:16:58.596Z</time>
      </trkpt>
      <trkpt lat="45.49147" lon="6.94102">
        <ele>1818.780787</ele>
        <time>2022-05-27T22:17:10.537Z</time>
      </trkpt>
      <trkpt lat="45.49115" lon="6.94129">
        <ele>1819.231836</ele>
        <time>2022-05-27T22:17:19.804Z</time>
      </trkpt>
      <trkpt lat="45.489" lon="6.9425">
        <ele>1822.033684</ele>
        <time>2022-05-27T22:18:17.562Z</time>
      </trkpt>
      <trkpt lat="45.48795" lon="6.94302">
        <ele>1823.369014</ele>
        <time>2022-05-27T22:18:45.479Z</time>
      </trkpt>
      <trkpt lat="45.48738" lon="6.94323">
        <ele>1824.071076</ele>
        <time>2022-05-27T22:19:00.316Z</time>
      </trkpt>
      <trkpt lat="45.48649" lon="6.9437">
        <ele>1825.142627</ele>
        <time>2022-05-27T22:19:22.989Z</time>
      </trkpt>
      <trkpt lat="45.48591" lon="6.9441">
        <ele>1825.668635</ele>
        <time>2022-05-27T22:19:41.327Z</time>
      </trkpt>
      <trkpt lat="45.48547" lon="6.94438">
        <ele>1826.060708</ele>
        <time>2022-05-27T22:19:49.652Z</time>
      </trkpt>
      <trkpt lat="45.48496" lon="6.94473">
        <ele>1826.413796</ele>
        <time>2022-05-27T22:19:59.112Z</time>
      </trkpt>
      <trkpt lat="45.48436" lon="6.94505">
        <ele>1825.317225</ele>
        <time>2022-05-27T22:20:10.146Z</time>
      </trkpt>
      <trkpt lat="45.4825" lon="6.94541">
        <ele>1820.278935</ele>
        <time>2022-05-27T22:20:38.622Z</time>
      </trkpt>
      <trkpt lat="45.4821" lon="6.94557">
        <ele>1818.557133</ele>
        <time>2022-05-27T22:20:42.609Z</time>
      </trkpt>
      <trkpt lat="45.48065" lon="6.94631">
        <ele>1811.87817</ele>
        <time>2022-05-27T22:20:56.877Z</time>
      </trkpt>
      <trkpt lat="45.48019" lon="6.94669">
        <ele>1809.47985</ele>
        <time>2022-05-27T22:21:01.900Z</time>
      </trkpt>
      <trkpt lat="45.47993" lon="6.94709">
        <ele>1807.974577</ele>
        <time>2022-05-27T22:21:05.860Z</time>
      </trkpt>
      <trkpt lat="45.47951" lon="6.948">
        <ele>1809.258153</ele>
        <time>2022-05-27T22:21:16.113Z</time>
      </trkpt>
      <trkpt lat="45.47859" lon="6.9493">
        <ele>1812.693496</ele>
        <time>2022-05-27T22:21:55.393Z</time>
      </trkpt>
      <trkpt lat="45.47809" lon="6.94973">
        <ele>1816.149878</ele>
        <time>2022-05-27T22:22:19.865Z</time>
      </trkpt>
      <trkpt lat="45.47753" lon="6.9502">
        <ele>1819.969746</ele>
        <time>2022-05-27T22:22:45.931Z</time>
      </trkpt>
      <trkpt lat="45.47729" lon="6.95033">
        <ele>1821.484356</ele>
        <time>2022-05-27T22:22:57.859Z</time>
      </trkpt>
      <trkpt lat="45.47709" lon="6.95032">
        <ele>1821.824216</ele>
        <time>2022-05-27T22:23:05.845Z</time>
      </trkpt>
      <trkpt lat="45.47692" lon="6.95018">
        <ele>1822.082539</ele>
        <time>2022-05-27T22:23:12.988Z</time>
      </trkpt>
      <trkpt lat="45.47681" lon="6.94996">
        <ele>1822.33017</ele>
        <time>2022-05-27T22:23:19.979Z</time>
      </trkpt>
      <trkpt lat="45.47671" lon="6.9496">
        <ele>1822.677433</ele>
        <time>2022-05-27T22:23:26.526Z</time>
      </trkpt>
      <trkpt lat="45.47665" lon="6.94946">
        <ele>1822.830231</ele>
        <time>2022-05-27T22:23:30.302Z</time>
      </trkpt>
      <trkpt lat="45.47651" lon="6.9493">
        <ele>1823.065491</ele>
        <time>2022-05-27T22:23:32.526Z</time>
      </trkpt>
      <trkpt lat="45.4761" lon="6.94916">
        <ele>1823.607602</ele>
        <time>2022-05-27T22:23:37.081Z</time>
      </trkpt>
      <trkpt lat="45.47512" lon="6.94916">
        <ele>1819.47028</ele>
        <time>2022-05-27T22:23:46.444Z</time>
      </trkpt>
      <trkpt lat="45.47498" lon="6.94907">
        <ele>1818.558881</ele>
        <time>2022-05-27T22:23:47.885Z</time>
      </trkpt>
      <trkpt lat="45.47463" lon="6.9486">
        <ele>1815.659067</ele>
        <time>2022-05-27T22:23:52.158Z</time>
      </trkpt>
      <trkpt lat="45.47454" lon="6.94854">
        <ele>1815.046037</ele>
        <time>2022-05-27T22:23:53.026Z</time>
      </trkpt>
      <trkpt lat="45.47437" lon="6.94854">
        <ele>1814.054915</ele>
        <time>2022-05-27T22:23:54.492Z</time>
      </trkpt>
      <trkpt lat="45.47413" lon="6.94868">
        <ele>1812.553823</ele>
        <time>2022-05-27T22:23:56.786Z</time>
      </trkpt>
      <trkpt lat="45.47403" lon="6.94885">
        <ele>1811.705336</ele>
        <time>2022-05-27T22:23:58.205Z</time>
      </trkpt>
      <trkpt lat="45.47393" lon="6.94916">
        <ele>1810.385116</ele>
        <time>2022-05-27T22:24:00.399Z</time>
      </trkpt>
      <trkpt lat="45.47377" lon="6.95017">
        <ele>1806.437179</ele>
        <time>2022-05-27T22:24:07.229Z</time>
      </trkpt>
      <trkpt lat="45.47359" lon="6.95082">
        <ele>1803.761438</ele>
        <time>2022-05-27T22:24:14.122Z</time>
      </trkpt>
      <trkpt lat="45.47318" lon="6.95181">
        <ele>1802.460321</ele>
        <time>2022-05-27T22:24:25.292Z</time>
      </trkpt>
      <trkpt lat="45.47273" lon="6.95265">
        <ele>1801.568896</ele>
        <time>2022-05-27T22:24:39.899Z</time>
      </trkpt>
      <trkpt lat="45.47244" lon="6.95301">
        <ele>1801.349151</ele>
        <time>2022-05-27T22:24:50.019Z</time>
      </trkpt>
      <trkpt lat="45.47214" lon="6.95338">
        <ele>1802.898653</ele>
        <time>2022-05-27T22:25:00.094Z</time>
      </trkpt>
      <trkpt lat="45.47195" lon="6.95383">
        <ele>1804.342644</ele>
        <time>2022-05-27T22:25:10.819Z</time>
      </trkpt>
      <trkpt lat="45.4716" lon="6.95545">
        <ele>1809.120269</ele>
        <time>2022-05-27T22:25:59.480Z</time>
      </trkpt>
      <trkpt lat="45.47124" lon="6.95635">
        <ele>1812.384834</ele>
        <time>2022-05-27T22:26:27.749Z</time>
      </trkpt>
      <trkpt lat="45.47069" lon="6.95718">
        <ele>1816.01389</ele>
        <time>2022-05-27T22:26:57.688Z</time>
      </trkpt>
      <trkpt lat="45.46973" lon="6.95817">
        <ele>1820.520529</ele>
        <time>2022-05-27T22:27:40.152Z</time>
      </trkpt>
      <trkpt lat="45.46954" lon="6.9585">
        <ele>1821.655422</ele>
        <time>2022-05-27T22:27:50.654Z</time>
      </trkpt>
      <trkpt lat="45.46932" lon="6.95908">
        <ele>1823.080198</ele>
        <time>2022-05-27T22:28:06.492Z</time>
      </trkpt>
      <trkpt lat="45.46904" lon="6.95947">
        <ele>1823.068381</ele>
        <time>2022-05-27T22:28:19.892Z</time>
      </trkpt>
      <trkpt lat="45.46882" lon="6.95958">
        <ele>1823.061254</ele>
        <time>2022-05-27T22:28:25.777Z</time>
      </trkpt>
      <trkpt lat="45.46847" lon="6.9596">
        <ele>1823.050722</ele>
        <time>2022-05-27T22:28:32.042Z</time>
      </trkpt>
      <trkpt lat="45.46753" lon="6.95955">
        <ele>1822.254372</ele>
        <time>2022-05-27T22:28:46.624Z</time>
      </trkpt>
      <trkpt lat="45.46716" lon="6.9596">
        <ele>1820.845486</ele>
        <time>2022-05-27T22:28:50.257Z</time>
      </trkpt>
      <trkpt lat="45.46678" lon="6.95991">
        <ele>1819.135292</ele>
        <time>2022-05-27T22:28:54.544Z</time>
      </trkpt>
      <trkpt lat="45.46527" lon="6.96181">
        <ele>1811.205123</ele>
        <time>2022-05-27T22:29:13.989Z</time>
      </trkpt>
      <trkpt lat="45.46368" lon="6.9632">
        <ele>1804.873668</ele>
        <time>2022-05-27T22:29:32.742Z</time>
      </trkpt>
      <trkpt lat="45.46314" lon="6.96394">
        <ele>1802.904044</ele>
        <time>2022-05-27T22:29:40.466Z</time>
      </trkpt>
      <trkpt lat="45.46282" lon="6.96423">
        <ele>1802.291426</ele>
        <time>2022-05-27T22:29:44.562Z</time>
      </trkpt>
      <trkpt lat="45.46277" lon="6.96414">
        <ele>1802.162212</ele>
        <time>2022-05-27T22:29:45.456Z</time>
      </trkpt>
      <trkpt lat="45.46269" lon="6.96413">
        <ele>1802.03367</ele>
        <time>2022-05-27T22:29:46.351Z</time>
      </trkpt>
      <trkpt lat="45.46264" lon="6.9642">
        <ele>1801.917057</ele>
        <time>2022-05-27T22:29:47.162Z</time>
      </trkpt>
      <trkpt lat="45.46263" lon="6.96431">
        <ele>1801.797003</ele>
        <time>2022-05-27T22:29:47.988Z</time>
      </trkpt>
      <trkpt lat="45.46227" lon="6.9645">
        <ele>1801.167966</ele>
        <time>2022-05-27T22:29:52.504Z</time>
      </trkpt>
      <trkpt lat="45.46208" lon="6.96459">
        <ele>1800.848822</ele>
        <time>2022-05-27T22:29:54.896Z</time>
      </trkpt>
      <trkpt lat="45.46191" lon="6.96464">
        <ele>1800.558483</ele>
        <time>2022-05-27T22:29:57.114Z</time>
      </trkpt>
      <trkpt lat="45.46162" lon="6.96476">
        <ele>1800.357422</ele>
        <time>2022-05-27T22:30:01.059Z</time>
      </trkpt>
      <trkpt lat="45.46134" lon="6.96496">
        <ele>1800.33483</ele>
        <time>2022-05-27T22:30:05.623Z</time>
      </trkpt>
      <trkpt lat="45.46126" lon="6.96502">
        <ele>1800.327777</ele>
        <time>2022-05-27T22:30:07.094Z</time>
      </trkpt>
      <trkpt lat="45.46122" lon="6.96505">
        <ele>1800.325075</ele>
        <time>2022-05-27T22:30:07.667Z</time>
      </trkpt>
      <trkpt lat="45.46079" lon="6.96538">
        <ele>1800.289625</ele>
        <time>2022-05-27T22:30:15.001Z</time>
      </trkpt>
      <trkpt lat="45.46045" lon="6.96566">
        <ele>1800.261469</ele>
        <time>2022-05-27T22:30:21.005Z</time>
      </trkpt>
      <trkpt lat="45.45989" lon="6.96608">
        <ele>1800.460691</ele>
        <time>2022-05-27T22:30:30.872Z</time>
      </trkpt>
      <trkpt lat="45.45974" lon="6.96623">
        <ele>1800.576836</ele>
        <time>2022-05-27T22:30:33.867Z</time>
      </trkpt>
      <trkpt lat="45.45968" lon="6.96617">
        <ele>1800.620876</ele>
        <time>2022-05-27T22:30:34.960Z</time>
      </trkpt>
      <trkpt lat="45.45961" lon="6.96618">
        <ele>1800.665456</ele>
        <time>2022-05-27T22:30:36.060Z</time>
      </trkpt>
      <trkpt lat="45.45957" lon="6.96626">
        <ele>1800.709623</ele>
        <time>2022-05-27T22:30:37.169Z</time>
      </trkpt>
      <trkpt lat="45.45957" lon="6.96636">
        <ele>1800.754125</ele>
        <time>2022-05-27T22:30:38.395Z</time>
      </trkpt>
      <trkpt lat="45.45753" lon="6.96796">
        <ele>1803.479999</ele>
        <time>2022-05-27T22:31:21.949Z</time>
      </trkpt>
      <trkpt lat="45.45641" lon="6.96885">
        <ele>1807.161934</ele>
        <time>2022-05-27T22:31:56.511Z</time>
      </trkpt>
      <trkpt lat="45.45554" lon="6.96954">
        <ele>1810.728629</ele>
        <time>2022-05-27T22:32:28.295Z</time>
      </trkpt>
      <trkpt lat="45.45513" lon="6.96988">
        <ele>1812.301747</ele>
        <time>2022-05-27T22:32:42.958Z</time>
      </trkpt>
      <trkpt lat="45.4548" lon="6.97023">
        <ele>1813.701541</ele>
        <time>2022-05-27T22:32:55.397Z</time>
      </trkpt>
      <trkpt lat="45.45436" lon="6.97084">
        <ele>1815.754842</ele>
        <time>2022-05-27T22:33:12.265Z</time>
      </trkpt>
      <trkpt lat="45.45404" lon="6.97139">
        <ele>1816.953216</ele>
        <time>2022-05-27T22:33:24.516Z</time>
      </trkpt>
      <trkpt lat="45.45356" lon="6.9722">
        <ele>1817.927122</ele>
        <time>2022-05-27T22:33:39.885Z</time>
      </trkpt>
      <trkpt lat="45.4532" lon="6.97282">
        <ele>1818.666545</ele>
        <time>2022-05-27T22:33:49.866Z</time>
      </trkpt>
      <trkpt lat="45.45305" lon="6.97307">
        <ele>1818.971416</ele>
        <time>2022-05-27T22:33:53.796Z</time>
      </trkpt>
      <trkpt lat="45.45291" lon="6.97325">
        <ele>1819.060465</ele>
        <time>2022-05-27T22:33:56.939Z</time>
      </trkpt>
      <trkpt lat="45.45241" lon="6.97384">
        <ele>1819.289716</ele>
        <time>2022-05-27T22:34:07.343Z</time>
      </trkpt>
      <trkpt lat="45.45166" lon="6.97469">
        <ele>1819.632541</ele>
        <time>2022-05-27T22:34:22.710Z</time>
      </trkpt>
      <trkpt lat="45.45132" lon="6.97527">
        <ele>1819.844014</ele>
        <time>2022-05-27T22:34:31.174Z</time>
      </trkpt>
      <trkpt lat="45.4511" lon="6.97568">
        <ele>1819.989783</ele>
        <time>2022-05-27T22:34:37.019Z</time>
      </trkpt>
      <trkpt lat="45.45092" lon="6.97603">
        <ele>1820.115098</ele>
        <time>2022-05-27T22:34:42.071Z</time>
      </trkpt>
      <trkpt lat="45.45068" lon="6.97653">
        <ele>1820.286027</ele>
        <time>2022-05-27T22:34:48.900Z</time>
      </trkpt>
      <trkpt lat="45.45054" lon="6.97683">
        <ele>1820.462383</ele>
        <time>2022-05-27T22:34:53.048Z</time>
      </trkpt>
      <trkpt lat="45.45032" lon="6.9772">
        <ele>1821.126958</ele>
        <time>2022-05-27T22:34:58.890Z</time>
      </trkpt>
      <trkpt lat="45.45017" lon="6.97732">
        <ele>1821.464802</ele>
        <time>2022-05-27T22:35:02.291Z</time>
      </trkpt>
      <trkpt lat="45.45007" lon="6.97722">
        <ele>1821.721054</ele>
        <time>2022-05-27T22:35:04.976Z</time>
      </trkpt>
      <trkpt lat="45.44996" lon="6.97732">
        <ele>1821.968473</ele>
        <time>2022-05-27T22:35:07.707Z</time>
      </trkpt>
      <trkpt lat="45.45001" lon="6.97752">
        <ele>1822.252009</ele>
        <time>2022-05-27T22:35:11.032Z</time>
      </trkpt>
      <trkpt lat="45.44991" lon="6.97779">
        <ele>1822.670647</ele>
        <time>2022-05-27T22:35:16.154Z</time>
      </trkpt>
      <trkpt lat="45.44957" lon="6.97862">
        <ele>1824.113952</ele>
        <time>2022-05-27T22:35:34.430Z</time>
      </trkpt>
      <trkpt lat="45.44936" lon="6.9791">
        <ele>1825.663845</ele>
        <time>2022-05-27T22:35:46.038Z</time>
      </trkpt>
      <trkpt lat="45.44901" lon="6.9799">
        <ele>1828.236756</ele>
        <time>2022-05-27T22:36:06.415Z</time>
      </trkpt>
      <trkpt lat="45.44888" lon="6.97995">
        <ele>1828.73569</ele>
        <time>2022-05-27T22:36:10.582Z</time>
      </trkpt>
      <trkpt lat="45.44887" lon="6.98">
        <ele>1828.879053</ele>
        <time>2022-05-27T22:36:11.766Z</time>
      </trkpt>
      <trkpt lat="45.44891" lon="6.98014">
        <ele>1829.285144</ele>
        <time>2022-05-27T22:36:15.049Z</time>
      </trkpt>
      <trkpt lat="45.44881" lon="6.9804">
        <ele>1830.107983</ele>
        <time>2022-05-27T22:36:21.985Z</time>
      </trkpt>
      <trkpt lat="45.44863" lon="6.98084">
        <ele>1831.490661</ele>
        <time>2022-05-27T22:36:33.598Z</time>
      </trkpt>
      <trkpt lat="45.44849" lon="6.98112">
        <ele>1832.377877</ele>
        <time>2022-05-27T22:36:40.857Z</time>
      </trkpt>
      <trkpt lat="45.44828" lon="6.98159">
        <ele>1833.851636</ele>
        <time>2022-05-27T22:36:52.443Z</time>
      </trkpt>
      <trkpt lat="45.44732" lon="6.9845">
        <ele>1842.804284</ele>
        <time>2022-05-27T22:37:58.260Z</time>
      </trkpt>
      <trkpt lat="45.4471" lon="6.98521">
        <ele>1845.068324</ele>
        <time>2022-05-27T22:38:17.266Z</time>
      </trkpt>
      <trkpt lat="45.44708" lon="6.98526">
        <ele>1845.24853</ele>
        <time>2022-05-27T22:38:18.562Z</time>
      </trkpt>
      <trkpt lat="45.44696" lon="6.98563">
        <ele>1846.760919</ele>
        <time>2022-05-27T22:38:29.338Z</time>
      </trkpt>
      <trkpt lat="45.44673" lon="6.98639">
        <ele>1849.801911</ele>
        <time>2022-05-27T22:38:51.406Z</time>
      </trkpt>
      <trkpt lat="45.4466" lon="6.98716">
        <ele>1852.73294</ele>
        <time>2022-05-27T22:39:12.078Z</time>
      </trkpt>
      <trkpt lat="45.44657" lon="6.98788">
        <ele>1854.996561</ele>
        <time>2022-05-27T22:39:29.419Z</time>
      </trkpt>
      <trkpt lat="45.44649" lon="6.98796">
        <ele>1855.282409</ele>
        <time>2022-05-27T22:39:32.798Z</time>
      </trkpt>
      <trkpt lat="45.44649" lon="6.98804">
        <ele>1855.430622</ele>
        <time>2022-05-27T22:39:34.628Z</time>
      </trkpt>
      <trkpt lat="45.4466" lon="6.98813">
        <ele>1855.794053</ele>
        <time>2022-05-27T22:39:37.803Z</time>
      </trkpt>
      <trkpt lat="45.44674" lon="6.98909">
        <ele>1857.755085</ele>
        <time>2022-05-27T22:39:55.447Z</time>
      </trkpt>
      <trkpt lat="45.44711" lon="6.9912">
        <ele>1862.043774</ele>
        <time>2022-05-27T22:40:28.832Z</time>
      </trkpt>
      <trkpt lat="45.44716" lon="6.9915">
        <ele>1862.633755</ele>
        <time>2022-05-27T22:40:34.190Z</time>
      </trkpt>
      <trkpt lat="45.44733" lon="6.99272">
        <ele>1865.420831</ele>
        <time>2022-05-27T22:40:59.784Z</time>
      </trkpt>
      <trkpt lat="45.4474" lon="6.99354">
        <ele>1868.534489</ele>
        <time>2022-05-27T22:41:20.468Z</time>
      </trkpt>
      <trkpt lat="45.44739" lon="6.99412">
        <ele>1870.678999</ele>
        <time>2022-05-27T22:41:35.619Z</time>
      </trkpt>
      <trkpt lat="45.44738" lon="6.99473">
        <ele>1872.991131</ele>
        <time>2022-05-27T22:41:52.408Z</time>
      </trkpt>
      <trkpt lat="45.44738" lon="6.99543">
        <ele>1875.666089</ele>
        <time>2022-05-27T22:42:11.937Z</time>
      </trkpt>
      <trkpt lat="45.44739" lon="6.99731">
        <ele>1882.941407</ele>
        <time>2022-05-27T22:43:00.947Z</time>
      </trkpt>
      <trkpt lat="45.44751" lon="6.9987">
        <ele>1887.695241</ele>
        <time>2022-05-27T22:43:33.954Z</time>
      </trkpt>
      <trkpt lat="45.44783" lon="7.00051">
        <ele>1893.94211</ele>
        <time>2022-05-27T22:44:16.293Z</time>
      </trkpt>
      <trkpt lat="45.44787" lon="7.00146">
        <ele>1897.630524</ele>
        <time>2022-05-27T22:44:39.565Z</time>
      </trkpt>
      <trkpt lat="45.44818" lon="7.00318">
        <ele>1905.143868</ele>
        <time>2022-05-27T22:45:29.303Z</time>
      </trkpt>
      <trkpt lat="45.44831" lon="7.00634">
        <ele>1919.790245</ele>
        <time>2022-05-27T22:47:08.834Z</time>
      </trkpt>
      <trkpt lat="45.44839" lon="7.00674">
        <ele>1921.402642</ele>
        <time>2022-05-27T22:47:19.637Z</time>
      </trkpt>
      <trkpt lat="45.44855" lon="7.00716">
        <ele>1923.238294</ele>
        <time>2022-05-27T22:47:31.020Z</time>
      </trkpt>
      <trkpt lat="45.44874" lon="7.00759">
        <ele>1925.173771</ele>
        <time>2022-05-27T22:47:40.145Z</time>
      </trkpt>
      <trkpt lat="45.44936" lon="7.00901">
        <ele>1927.592623</ele>
        <time>2022-05-27T22:48:06.986Z</time>
      </trkpt>
      <trkpt lat="45.44959" lon="7.0095">
        <ele>1928.408577</ele>
        <time>2022-05-27T22:48:13.624Z</time>
      </trkpt>
      <trkpt lat="45.44967" lon="7.00967">
        <ele>1928.692233</ele>
        <time>2022-05-27T22:48:16.941Z</time>
      </trkpt>
      <trkpt lat="45.44979" lon="7.00986">
        <ele>1929.214695</ele>
        <time>2022-05-27T22:48:20.829Z</time>
      </trkpt>
      <trkpt lat="45.44989" lon="7.01005">
        <ele>1929.891598</ele>
        <time>2022-05-27T22:48:25.418Z</time>
      </trkpt>
      <trkpt lat="45.45013" lon="7.01033">
        <ele>1931.113898</ele>
        <time>2022-05-27T22:48:33.611Z</time>
      </trkpt>
      <trkpt lat="45.45036" lon="7.0107">
        <ele>1932.469976</ele>
        <time>2022-05-27T22:48:43.607Z</time>
      </trkpt>
      <trkpt lat="45.45046" lon="7.01101">
        <ele>1933.433243</ele>
        <time>2022-05-27T22:48:51.352Z</time>
      </trkpt>
      <trkpt lat="45.45047" lon="7.01129">
        <ele>1934.224231</ele>
        <time>2022-05-27T22:48:58.815Z</time>
      </trkpt>
      <trkpt lat="45.45054" lon="7.01156">
        <ele>1935.000323</ele>
        <time>2022-05-27T22:49:06.080Z</time>
      </trkpt>
      <trkpt lat="45.45068" lon="7.01182">
        <ele>1935.897824</ele>
        <time>2022-05-27T22:49:14.678Z</time>
      </trkpt>
      <trkpt lat="45.45084" lon="7.0126">
        <ele>1939.770764</ele>
        <time>2022-05-27T22:49:35.844Z</time>
      </trkpt>
      <trkpt lat="45.45111" lon="7.01336">
        <ele>1943.89659</ele>
        <time>2022-05-27T22:50:01.137Z</time>
      </trkpt>
      <trkpt lat="45.45258" lon="7.01726">
        <ele>1968.762742</ele>
        <time>2022-05-27T22:52:27.118Z</time>
      </trkpt>
      <trkpt lat="45.4527" lon="7.01774">
        <ele>1971.980641</ele>
        <time>2022-05-27T22:52:46.112Z</time>
      </trkpt>
      <trkpt lat="45.45303" lon="7.0198">
        <ele>1987.173951</ele>
        <time>2022-05-27T22:54:05.101Z</time>
      </trkpt>
      <trkpt lat="45.45291" lon="7.02028">
        <ele>1991.321736</ele>
        <time>2022-05-27T22:54:28.537Z</time>
      </trkpt>
      <trkpt lat="45.45281" lon="7.02056">
        <ele>1993.857656</ele>
        <time>2022-05-27T22:54:43.042Z</time>
      </trkpt>
      <trkpt lat="45.45276" lon="7.0207">
        <ele>1995.123353</ele>
        <time>2022-05-27T22:54:50.516Z</time>
      </trkpt>
      <trkpt lat="45.45262" lon="7.02123">
        <ele>1999.803145</ele>
        <time>2022-05-27T22:55:17.569Z</time>
      </trkpt>
      <trkpt lat="45.45262" lon="7.02152">
        <ele>2002.178182</ele>
        <time>2022-05-27T22:55:31.018Z</time>
      </trkpt>
      <trkpt lat="45.45268" lon="7.02194">
        <ele>2005.616554</ele>
        <time>2022-05-27T22:55:51.552Z</time>
      </trkpt>
      <trkpt lat="45.45253" lon="7.02244">
        <ele>2010.056578</ele>
        <time>2022-05-27T22:56:17.610Z</time>
      </trkpt>
      <trkpt lat="45.45226" lon="7.02281">
        <ele>2014.337155</ele>
        <time>2022-05-27T22:56:41.682Z</time>
      </trkpt>
      <trkpt lat="45.45178" lon="7.02299">
        <ele>2020.080304</ele>
        <time>2022-05-27T22:57:09.600Z</time>
      </trkpt>
      <trkpt lat="45.45153" lon="7.02341">
        <ele>2021.928762</ele>
        <time>2022-05-27T22:57:26.930Z</time>
      </trkpt>
      <trkpt lat="45.45144" lon="7.02375">
        <ele>2022.84752</ele>
        <time>2022-05-27T22:57:35.542Z</time>
      </trkpt>
      <trkpt lat="45.45143" lon="7.02411">
        <ele>2023.761222</ele>
        <time>2022-05-27T22:57:43.282Z</time>
      </trkpt>
      <trkpt lat="45.45149" lon="7.02438">
        <ele>2024.487909</ele>
        <time>2022-05-27T22:57:47.692Z</time>
      </trkpt>
      <trkpt lat="45.45248" lon="7.02707">
        <ele>2028.026872</ele>
        <time>2022-05-27T22:58:25.136Z</time>
      </trkpt>
      <trkpt lat="45.45258" lon="7.02834">
        <ele>2029.297785</ele>
        <time>2022-05-27T22:58:39.010Z</time>
      </trkpt>
      <trkpt lat="45.45265" lon="7.02866">
        <ele>2029.814959</ele>
        <time>2022-05-27T22:58:43.571Z</time>
      </trkpt>
      <trkpt lat="45.45297" lon="7.0295">
        <ele>2031.27997</ele>
        <time>2022-05-27T22:58:58.791Z</time>
      </trkpt>
      <trkpt lat="45.4539" lon="7.0319">
        <ele>2040.003575</ele>
        <time>2022-05-27T23:00:05.699Z</time>
      </trkpt>
      <trkpt lat="45.4547" lon="7.03347">
        <ele>2048.881971</ele>
        <time>2022-05-27T23:01:00.843Z</time>
      </trkpt>
      <trkpt lat="45.45498" lon="7.03491">
        <ele>2057.913877</ele>
        <time>2022-05-27T23:01:45.011Z</time>
      </trkpt>
      <trkpt lat="45.45491" lon="7.03642">
        <ele>2071.325304</ele>
        <time>2022-05-27T23:03:01.177Z</time>
      </trkpt>
      <trkpt lat="45.45483" lon="7.03658">
        <ele>2073.137212</ele>
        <time>2022-05-27T23:03:11.945Z</time>
      </trkpt>
      <trkpt lat="45.45466" lon="7.0367">
        <ele>2075.567441</ele>
        <time>2022-05-27T23:03:25.570Z</time>
      </trkpt>
      <trkpt lat="45.45444" lon="7.03667">
        <ele>2078.506141</ele>
        <time>2022-05-27T23:03:40.189Z</time>
      </trkpt>
      <trkpt lat="45.45415" lon="7.03664">
        <ele>2082.852883</ele>
        <time>2022-05-27T23:04:02.620Z</time>
      </trkpt>
      <trkpt lat="45.45395" lon="7.03652">
        <ele>2086.097274</ele>
        <time>2022-05-27T23:04:19.714Z</time>
      </trkpt>
      <trkpt lat="45.45349" lon="7.03561">
        <ele>2097.594453</ele>
        <time>2022-05-27T23:05:21.300Z</time>
      </trkpt>
      <trkpt lat="45.45346" lon="7.03528">
        <ele>2101.104481</ele>
        <time>2022-05-27T23:05:39.570Z</time>
      </trkpt>
      <trkpt lat="45.45341" lon="7.03516">
        <ele>2102.498458</ele>
        <time>2022-05-27T23:05:45.386Z</time>
      </trkpt>
      <trkpt lat="45.45331" lon="7.03515">
        <ele>2103.793271</ele>
        <time>2022-05-27T23:05:52.429Z</time>
      </trkpt>
      <trkpt lat="45.45323" lon="7.03532">
        <ele>2105.339163</ele>
        <time>2022-05-27T23:06:02.059Z</time>
      </trkpt>
      <trkpt lat="45.4534" lon="7.03573">
        <ele>2109.033342</ele>
        <time>2022-05-27T23:06:19.972Z</time>
      </trkpt>
      <trkpt lat="45.45378" lon="7.03772">
        <ele>2123.999356</ele>
        <time>2022-05-27T23:07:41.134Z</time>
      </trkpt>
      <trkpt lat="45.45384" lon="7.03831">
        <ele>2126.968429</ele>
        <time>2022-05-27T23:08:03.354Z</time>
      </trkpt>
      <trkpt lat="45.4538" lon="7.03922">
        <ele>2131.469492</ele>
        <time>2022-05-27T23:08:30.404Z</time>
      </trkpt>
      <trkpt lat="45.45397" lon="7.0396">
        <ele>2133.694827</ele>
        <time>2022-05-27T23:08:41.310Z</time>
      </trkpt>
      <trkpt lat="45.45398" lon="7.03971">
        <ele>2134.225446</ele>
        <time>2022-05-27T23:08:44.192Z</time>
      </trkpt>
      <trkpt lat="45.45392" lon="7.03982">
        <ele>2134.922603</ele>
        <time>2022-05-27T23:08:47.277Z</time>
      </trkpt>
      <trkpt lat="45.45382" lon="7.0398">
        <ele>2135.56855</ele>
        <time>2022-05-27T23:08:49.753Z</time>
      </trkpt>
      <trkpt lat="45.45375" lon="7.0397">
        <ele>2136.175773</ele>
        <time>2022-05-27T23:08:52.237Z</time>
      </trkpt>
      <trkpt lat="45.45353" lon="7.03847">
        <ele>2141.72259</ele>
        <time>2022-05-27T23:09:18.532Z</time>
      </trkpt>
      <trkpt lat="45.45317" lon="7.03742">
        <ele>2147.010708</ele>
        <time>2022-05-27T23:09:57.719Z</time>
      </trkpt>
      <trkpt lat="45.4524" lon="7.03571">
        <ele>2164.24477</ele>
        <time>2022-05-27T23:11:27.468Z</time>
      </trkpt>
      <trkpt lat="45.45207" lon="7.03477">
        <ele>2173.345775</ele>
        <time>2022-05-27T23:12:22.403Z</time>
      </trkpt>
      <trkpt lat="45.45155" lon="7.03399">
        <ele>2182.730935</ele>
        <time>2022-05-27T23:13:11.718Z</time>
      </trkpt>
      <trkpt lat="45.45104" lon="7.03234">
        <ele>2196.575368</ele>
        <time>2022-05-27T23:14:26.883Z</time>
      </trkpt>
      <trkpt lat="45.45069" lon="7.0316">
        <ele>2202.341046</ele>
        <time>2022-05-27T23:14:59.072Z</time>
      </trkpt>
      <trkpt lat="45.45041" lon="7.03075">
        <ele>2208.210521</ele>
        <time>2022-05-27T23:15:29.034Z</time>
      </trkpt>
      <trkpt lat="45.4501" lon="7.03032">
        <ele>2211.211603</ele>
        <time>2022-05-27T23:15:47.133Z</time>
      </trkpt>
      <trkpt lat="45.44975" lon="7.0294">
        <ele>2216.279267</ele>
        <time>2022-05-27T23:16:16.476Z</time>
      </trkpt>
      <trkpt lat="45.44952" lon="7.02861">
        <ele>2220.42655</ele>
        <time>2022-05-27T23:16:42.264Z</time>
      </trkpt>
      <trkpt lat="45.44914" lon="7.02769">
        <ele>2225.616961</ele>
        <time>2022-05-27T23:17:15.699Z</time>
      </trkpt>
      <trkpt lat="45.44875" lon="7.02623">
        <ele>2232.983827</ele>
        <time>2022-05-27T23:18:03.489Z</time>
      </trkpt>
      <trkpt lat="45.44843" lon="7.0252">
        <ele>2236.458214</ele>
        <time>2022-05-27T23:18:30.199Z</time>
      </trkpt>
      <trkpt lat="45.44829" lon="7.02483">
        <ele>2237.76316</ele>
        <time>2022-05-27T23:18:38.524Z</time>
      </trkpt>
      <trkpt lat="45.44796" lon="7.02427">
        <ele>2239.983105</ele>
        <time>2022-05-27T23:18:51.802Z</time>
      </trkpt>
      <trkpt lat="45.44792" lon="7.02404">
        <ele>2240.755881</ele>
        <time>2022-05-27T23:18:55.130Z</time>
      </trkpt>
      <trkpt lat="45.44789" lon="7.02397">
        <ele>2241.048533</ele>
        <time>2022-05-27T23:18:56.560Z</time>
      </trkpt>
      <trkpt lat="45.44698" lon="7.02209">
        <ele>2249.005357</ele>
        <time>2022-05-27T23:19:52.154Z</time>
      </trkpt>
      <trkpt lat="45.44579" lon="7.02029">
        <ele>2261.975043</ele>
        <time>2022-05-27T23:21:14.175Z</time>
      </trkpt>
      <trkpt lat="45.44548" lon="7.01974">
        <ele>2265.461614</ele>
        <time>2022-05-27T23:21:33.767Z</time>
      </trkpt>
      <trkpt lat="45.44537" lon="7.01953">
        <ele>2266.665252</ele>
        <time>2022-05-27T23:21:43.758Z</time>
      </trkpt>
      <trkpt lat="45.44502" lon="7.01857">
        <ele>2271.875035</ele>
        <time>2022-05-27T23:22:15.049Z</time>
      </trkpt>
      <trkpt lat="45.4449" lon="7.0185">
        <ele>2272.753091</ele>
        <time>2022-05-27T23:22:17.164Z</time>
      </trkpt>
      <trkpt lat="45.44483" lon="7.01856">
        <ele>2273.31065</ele>
        <time>2022-05-27T23:22:23.568Z</time>
      </trkpt>
      <trkpt lat="45.44483" lon="7.0187">
        <ele>2274.001486</ele>
        <time>2022-05-27T23:22:27.236Z</time>
      </trkpt>
      <trkpt lat="45.445" lon="7.01903">
        <ele>2276.208789</ele>
        <time>2022-05-27T23:22:39.060Z</time>
      </trkpt>
      <trkpt lat="45.44515" lon="7.01957">
        <ele>2279.779769</ele>
        <time>2022-05-27T23:22:56.769Z</time>
      </trkpt>
      <trkpt lat="45.44523" lon="7.01983">
        <ele>2281.473133</ele>
        <time>2022-05-27T23:23:02.936Z</time>
      </trkpt>
      <trkpt lat="45.44557" lon="7.02086">
        <ele>2288.44607</ele>
        <time>2022-05-27T23:23:48.538Z</time>
      </trkpt>
      <trkpt lat="45.44585" lon="7.02197">
        <ele>2295.430442</ele>
        <time>2022-05-27T23:24:35.195Z</time>
      </trkpt>
      <trkpt lat="45.44598" lon="7.02227">
        <ele>2297.460057</ele>
        <time>2022-05-27T23:24:47.638Z</time>
      </trkpt>
      <trkpt lat="45.44642" lon="7.02298">
        <ele>2303.048983</ele>
        <time>2022-05-27T23:25:18.757Z</time>
      </trkpt>
      <trkpt lat="45.44664" lon="7.02367">
        <ele>2306.654302</ele>
        <time>2022-05-27T23:25:38.760Z</time>
      </trkpt>
      <trkpt lat="45.44683" lon="7.02404">
        <ele>2308.077462</ele>
        <time>2022-05-27T23:25:50.580Z</time>
      </trkpt>
      <trkpt lat="45.44683" lon="7.02416">
        <ele>2308.466119</ele>
        <time>2022-05-27T23:25:53.790Z</time>
      </trkpt>
      <trkpt lat="45.44676" lon="7.02426">
        <ele>2308.889283</ele>
        <time>2022-05-27T23:25:57.521Z</time>
      </trkpt>
      <trkpt lat="45.44665" lon="7.0242">
        <ele>2309.37355</ele>
        <time>2022-05-27T23:26:01.127Z</time>
      </trkpt>
      <trkpt lat="45.44653" lon="7.02376">
        <ele>2310.849119</ele>
        <time>2022-05-27T23:26:11.397Z</time>
      </trkpt>
      <trkpt lat="45.4462" lon="7.02313">
        <ele>2313.288275</ele>
        <time>2022-05-27T23:26:25.240Z</time>
      </trkpt>
      <trkpt lat="45.44536" lon="7.02223">
        <ele>2318.870241</ele>
        <time>2022-05-27T23:26:55.773Z</time>
      </trkpt>
      <trkpt lat="45.44496" lon="7.02132">
        <ele>2322.97205</ele>
        <time>2022-05-27T23:27:29.119Z</time>
      </trkpt>
      <trkpt lat="45.44439" lon="7.02038">
        <ele>2328.317187</ele>
        <time>2022-05-27T23:28:11.396Z</time>
      </trkpt>
      <trkpt lat="45.44426" lon="7.02017">
        <ele>2329.543556</ele>
        <time>2022-05-27T23:28:21.026Z</time>
      </trkpt>
      <trkpt lat="45.44402" lon="7.01978">
        <ele>2331.791524</ele>
        <time>2022-05-27T23:28:39.243Z</time>
      </trkpt>
      <trkpt lat="45.4436" lon="7.01925">
        <ele>2334.54173</ele>
        <time>2022-05-27T23:28:52.012Z</time>
      </trkpt>
      <trkpt lat="45.44286" lon="7.01866">
        <ele>2333.845509</ele>
        <time>2022-05-27T23:29:01.879Z</time>
      </trkpt>
      <trkpt lat="45.44276" lon="7.0185">
        <ele>2333.7226</ele>
        <time>2022-05-27T23:29:05.233Z</time>
      </trkpt>
      <trkpt lat="45.44276" lon="7.01821">
        <ele>2333.556757</ele>
        <time>2022-05-27T23:29:07.069Z</time>
      </trkpt>
      <trkpt lat="45.4429" lon="7.01784">
        <ele>2333.315463</ele>
        <time>2022-05-27T23:29:10.339Z</time>
      </trkpt>
      <trkpt lat="45.44294" lon="7.01761">
        <ele>2333.179941</ele>
        <time>2022-05-27T23:29:12.484Z</time>
      </trkpt>
      <trkpt lat="45.44292" lon="7.01736">
        <ele>2333.618638</ele>
        <time>2022-05-27T23:29:14.313Z</time>
      </trkpt>
      <trkpt lat="45.44283" lon="7.01708">
        <ele>2334.314219</ele>
        <time>2022-05-27T23:29:17.810Z</time>
      </trkpt>
      <trkpt lat="45.44252" lon="7.01676">
        <ele>2335.56637</ele>
        <time>2022-05-27T23:29:23.569Z</time>
      </trkpt>
      <trkpt lat="45.44199" lon="7.01676">
        <ele>2337.264996</ele>
        <time>2022-05-27T23:29:38.037Z</time>
      </trkpt>
      <trkpt lat="45.44185" lon="7.01661">
        <ele>2337.85463</ele>
        <time>2022-05-27T23:29:46.354Z</time>
      </trkpt>
      <trkpt lat="45.44178" lon="7.01637">
        <ele>2338.444368</ele>
        <time>2022-05-27T23:29:55.354Z</time>
      </trkpt>
      <trkpt lat="45.44179" lon="7.01534">
        <ele>2344.486738</ele>
        <time>2022-05-27T23:30:31.369Z</time>
      </trkpt>
      <trkpt lat="45.44203" lon="7.01431">
        <ele>2352.001425</ele>
        <time>2022-05-27T23:31:15.344Z</time>
      </trkpt>
      <trkpt lat="45.4421" lon="7.01378">
        <ele>2355.776288</ele>
        <time>2022-05-27T23:31:37.303Z</time>
      </trkpt>
      <trkpt lat="45.4421" lon="7.01344">
        <ele>2358.308869</ele>
        <time>2022-05-27T23:31:50.807Z</time>
      </trkpt>
      <trkpt lat="45.44201" lon="7.01288">
        <ele>2362.705659</ele>
        <time>2022-05-27T23:32:13.437Z</time>
      </trkpt>
      <trkpt lat="45.44193" lon="7.01208">
        <ele>2368.936215</ele>
        <time>2022-05-27T23:32:46.995Z</time>
      </trkpt>
      <trkpt lat="45.44196" lon="7.01161">
        <ele>2372.588433</ele>
        <time>2022-05-27T23:33:07.814Z</time>
      </trkpt>
      <trkpt lat="45.44159" lon="7.01014">
        <ele>2381.953496</ele>
        <time>2022-05-27T23:34:12.767Z</time>
      </trkpt>
      <trkpt lat="45.44133" lon="7.00859">
        <ele>2389.724404</ele>
        <time>2022-05-27T23:34:54.722Z</time>
      </trkpt>
      <trkpt lat="45.44094" lon="7.00768">
        <ele>2389.545724</ele>
        <time>2022-05-27T23:35:06.392Z</time>
      </trkpt>
      <trkpt lat="45.44037" lon="7.00664">
        <ele>2389.325984</ele>
        <time>2022-05-27T23:35:16.241Z</time>
      </trkpt>
      <trkpt lat="45.44007" lon="7.00625">
        <ele>2389.913664</ele>
        <time>2022-05-27T23:35:20.723Z</time>
      </trkpt>
      <trkpt lat="45.43946" lon="7.00579">
        <ele>2391.188369</ele>
        <time>2022-05-27T23:35:34.204Z</time>
      </trkpt>
      <trkpt lat="45.43901" lon="7.00526">
        <ele>2392.278296</ele>
        <time>2022-05-27T23:35:51.923Z</time>
      </trkpt>
      <trkpt lat="45.43822" lon="7.00483">
        <ele>2395.359456</ele>
        <time>2022-05-27T23:36:22.482Z</time>
      </trkpt>
      <trkpt lat="45.43752" lon="7.00431">
        <ele>2398.711973</ele>
        <time>2022-05-27T23:36:49.630Z</time>
      </trkpt>
      <trkpt lat="45.43726" lon="7.00428">
        <ele>2399.801776</ele>
        <time>2022-05-27T23:36:57.196Z</time>
      </trkpt>
      <trkpt lat="45.437" lon="7.00409">
        <ele>2400.394953</ele>
        <time>2022-05-27T23:37:03.687Z</time>
      </trkpt>
      <trkpt lat="45.43643" lon="7.00339">
        <ele>2401.134467</ele>
        <time>2022-05-27T23:37:15.464Z</time>
      </trkpt>
      <trkpt lat="45.43618" lon="7.00293">
        <ele>2401.540927</ele>
        <time>2022-05-27T23:37:21.483Z</time>
      </trkpt>
      <trkpt lat="45.43523" lon="7.00229">
        <ele>2403.686795</ele>
        <time>2022-05-27T23:37:41.631Z</time>
      </trkpt>
      <trkpt lat="45.4345" lon="7.00221">
        <ele>2405.769145</ele>
        <time>2022-05-27T23:38:01.778Z</time>
      </trkpt>
      <trkpt lat="45.43407" lon="7.00202">
        <ele>2407.045583</ele>
        <time>2022-05-27T23:38:16.148Z</time>
      </trkpt>
      <trkpt lat="45.43371" lon="7.00257">
        <ele>2412.132695</ele>
        <time>2022-05-27T23:38:34.094Z</time>
      </trkpt>
      <trkpt lat="45.43352" lon="7.0026">
        <ele>2413.918574</ele>
        <time>2022-05-27T23:38:41.055Z</time>
      </trkpt>
      <trkpt lat="45.433" lon="7.0023">
        <ele>2419.352255</ele>
        <time>2022-05-27T23:39:15.457Z</time>
      </trkpt>
      <trkpt lat="45.43223" lon="7.00208">
        <ele>2427.13858</ele>
        <time>2022-05-27T23:40:13.745Z</time>
      </trkpt>
      <trkpt lat="45.43199" lon="7.00181">
        <ele>2430.208562</ele>
        <time>2022-05-27T23:40:32.403Z</time>
      </trkpt>
      <trkpt lat="45.43176" lon="7.0017">
        <ele>2432.665255</ele>
        <time>2022-05-27T23:40:49.549Z</time>
      </trkpt>
      <trkpt lat="45.4315" lon="7.00171">
        <ele>2435.259612</ele>
        <time>2022-05-27T23:41:01.568Z</time>
      </trkpt>
      <trkpt lat="45.43119" lon="7.0019">
        <ele>2438.703056</ele>
        <time>2022-05-27T23:41:17.971Z</time>
      </trkpt>
      <trkpt lat="45.43116" lon="7.00213">
        <ele>2440.341759</ele>
        <time>2022-05-27T23:41:25.919Z</time>
      </trkpt>
      <trkpt lat="45.43119" lon="7.00245">
        <ele>2442.62875</ele>
        <time>2022-05-27T23:41:36.706Z</time>
      </trkpt>
      <trkpt lat="45.43127" lon="7.0027">
        <ele>2442.980444</ele>
        <time>2022-05-27T23:41:43.297Z</time>
      </trkpt>
      <trkpt lat="45.43141" lon="7.00283">
        <ele>2443.234005</ele>
        <time>2022-05-27T23:41:52.030Z</time>
      </trkpt>
      <trkpt lat="45.43156" lon="7.00292">
        <ele>2443.478737</ele>
        <time>2022-05-27T23:41:57.316Z</time>
      </trkpt>
      <trkpt lat="45.43216" lon="7.00293">
        <ele>2444.386143</ele>
        <time>2022-05-27T23:42:03.606Z</time>
      </trkpt>
      <trkpt lat="45.43277" lon="7.00333">
        <ele>2445.394416</ele>
        <time>2022-05-27T23:42:11.463Z</time>
      </trkpt>
      <trkpt lat="45.43351" lon="7.00328">
        <ele>2449.832961</ele>
        <time>2022-05-27T23:42:33.717Z</time>
      </trkpt>
      <trkpt lat="45.43359" lon="7.00337">
        <ele>2450.431282</ele>
        <time>2022-05-27T23:42:37.827Z</time>
      </trkpt>
      <trkpt lat="45.4337" lon="7.00375">
        <ele>2452.208556</ele>
        <time>2022-05-27T23:42:50.423Z</time>
      </trkpt>
      <trkpt lat="45.43382" lon="7.00396">
        <ele>2453.35973</ele>
        <time>2022-05-27T23:42:59.302Z</time>
      </trkpt>
      <trkpt lat="45.43455" lon="7.00486">
        <ele>2461.668027</ele>
        <time>2022-05-27T23:43:52.283Z</time>
      </trkpt>
      <trkpt lat="45.43504" lon="7.00505">
        <ele>2467.306887</ele>
        <time>2022-05-27T23:44:25.309Z</time>
      </trkpt>
      <trkpt lat="45.43547" lon="7.00503">
        <ele>2472.072095</ele>
        <time>2022-05-27T23:44:52.382Z</time>
      </trkpt>
      <trkpt lat="45.43566" lon="7.00509">
        <ele>2474.245731</ele>
        <time>2022-05-27T23:45:04.284Z</time>
      </trkpt>
      <trkpt lat="45.43617" lon="7.00561">
        <ele>2479.547604</ele>
        <time>2022-05-27T23:45:40.660Z</time>
      </trkpt>
      <trkpt lat="45.43676" lon="7.00599">
        <ele>2484.374793</ele>
        <time>2022-05-27T23:46:09.060Z</time>
      </trkpt>
      <trkpt lat="45.43716" lon="7.00632">
        <ele>2487.746974</ele>
        <time>2022-05-27T23:46:27.426Z</time>
      </trkpt>
      <trkpt lat="45.43717" lon="7.00646">
        <ele>2488.470669</ele>
        <time>2022-05-27T23:46:30.575Z</time>
      </trkpt>
      <trkpt lat="45.43706" lon="7.00653">
        <ele>2489.343867</ele>
        <time>2022-05-27T23:46:34.476Z</time>
      </trkpt>
      <trkpt lat="45.43675" lon="7.00625">
        <ele>2490.905725</ele>
        <time>2022-05-27T23:46:44.918Z</time>
      </trkpt>
      <trkpt lat="45.43646" lon="7.00618">
        <ele>2492.057666</ele>
        <time>2022-05-27T23:46:52.714Z</time>
      </trkpt>
      <trkpt lat="45.43563" lon="7.00572">
        <ele>2495.547128</ele>
        <time>2022-05-27T23:47:17.824Z</time>
      </trkpt>
      <trkpt lat="45.43512" lon="7.00582">
        <ele>2498.24606</ele>
        <time>2022-05-27T23:47:34.383Z</time>
      </trkpt>
      <trkpt lat="45.43472" lon="7.00599">
        <ele>2501.216618</ele>
        <time>2022-05-27T23:47:51.222Z</time>
      </trkpt>
      <trkpt lat="45.43429" lon="7.00592">
        <ele>2504.240855</ele>
        <time>2022-05-27T23:48:08.796Z</time>
      </trkpt>
      <trkpt lat="45.43421" lon="7.00597">
        <ele>2504.836279</ele>
        <time>2022-05-27T23:48:15.563Z</time>
      </trkpt>
      <trkpt lat="45.43419" lon="7.00609">
        <ele>2505.447072</ele>
        <time>2022-05-27T23:48:18.642Z</time>
      </trkpt>
      <trkpt lat="45.43423" lon="7.00616">
        <ele>2505.920356</ele>
        <time>2022-05-27T23:48:20.758Z</time>
      </trkpt>
      <trkpt lat="45.43468" lon="7.00627">
        <ele>2509.103029</ele>
        <time>2022-05-27T23:48:41.278Z</time>
      </trkpt>
      <trkpt lat="45.4351" lon="7.00613">
        <ele>2513.889141</ele>
        <time>2022-05-27T23:49:05.874Z</time>
      </trkpt>
      <trkpt lat="45.43529" lon="7.00615">
        <ele>2516.096259</ele>
        <time>2022-05-27T23:49:17.578Z</time>
      </trkpt>
      <trkpt lat="45.43565" lon="7.0065">
        <ele>2521.098518</ele>
        <time>2022-05-27T23:49:46.488Z</time>
      </trkpt>
      <trkpt lat="45.43605" lon="7.00673">
        <ele>2526.08408</ele>
        <time>2022-05-27T23:50:14.945Z</time>
      </trkpt>
      <trkpt lat="45.43667" lon="7.00763">
        <ele>2534.213023</ele>
        <time>2022-05-27T23:51:10.790Z</time>
      </trkpt>
      <trkpt lat="45.43716" lon="7.00842">
        <ele>2539.927921</ele>
        <time>2022-05-27T23:51:43.576Z</time>
      </trkpt>
      <trkpt lat="45.43792" lon="7.00916">
        <ele>2545.339221</ele>
        <time>2022-05-27T23:52:10.200Z</time>
      </trkpt>
      <trkpt lat="45.43833" lon="7.00963">
        <ele>2547.170686</ele>
        <time>2022-05-27T23:52:26.408Z</time>
      </trkpt>
      <trkpt lat="45.43857" lon="7.01013">
        <ele>2548.647371</ele>
        <time>2022-05-27T23:52:38.012Z</time>
      </trkpt>
      <trkpt lat="45.4386" lon="7.01028">
        <ele>2549.030011</ele>
        <time>2022-05-27T23:52:39.412Z</time>
      </trkpt>
      <trkpt lat="45.43857" lon="7.01041">
        <ele>2549.35443</ele>
        <time>2022-05-27T23:52:40.203Z</time>
      </trkpt>
      <trkpt lat="45.43843" lon="7.01047">
        <ele>2549.845749</ele>
        <time>2022-05-27T23:52:51.143Z</time>
      </trkpt>
      <trkpt lat="45.43812" lon="7.01032">
        <ele>2551.160336</ele>
        <time>2022-05-27T23:52:59.728Z</time>
      </trkpt>
      <trkpt lat="45.43791" lon="7.01045">
        <ele>2552.165529</ele>
        <time>2022-05-27T23:53:03.047Z</time>
      </trkpt>
      <trkpt lat="45.43776" lon="7.01071">
        <ele>2553.136205</ele>
        <time>2022-05-27T23:53:16.187Z</time>
      </trkpt>
      <trkpt lat="45.4375" lon="7.01142">
        <ele>2555.515358</ele>
        <time>2022-05-27T23:53:34.572Z</time>
      </trkpt>
      <trkpt lat="45.43717" lon="7.01204">
        <ele>2557.814701</ele>
        <time>2022-05-27T23:53:53.107Z</time>
      </trkpt>
      <trkpt lat="45.43705" lon="7.01256">
        <ele>2559.105893</ele>
        <time>2022-05-27T23:54:01.736Z</time>
      </trkpt>
      <trkpt lat="45.43621" lon="7.01378">
        <ele>2563.138829</ele>
        <time>2022-05-27T23:54:32.661Z</time>
      </trkpt>
      <trkpt lat="45.43598" lon="7.01388">
        <ele>2564.072777</ele>
        <time>2022-05-27T23:54:40.309Z</time>
      </trkpt>
      <trkpt lat="45.43564" lon="7.0138">
        <ele>2566.246767</ele>
        <time>2022-05-27T23:54:52.909Z</time>
      </trkpt>
      <trkpt lat="45.4355" lon="7.01383">
        <ele>2567.178187</ele>
        <time>2022-05-27T23:54:58.625Z</time>
      </trkpt>
      <trkpt lat="45.43504" lon="7.01433">
        <ele>2570.874979</ele>
        <time>2022-05-27T23:55:23.568Z</time>
      </trkpt>
      <trkpt lat="45.43381" lon="7.01528">
        <ele>2580.216036</ele>
        <time>2022-05-27T23:56:25.177Z</time>
      </trkpt>
      <trkpt lat="45.43286" lon="7.01724">
        <ele>2592.576441</ele>
        <time>2022-05-27T23:57:33.881Z</time>
      </trkpt>
      <trkpt lat="45.43177" lon="7.01826">
        <ele>2603.316973</ele>
        <time>2022-05-27T23:58:40.564Z</time>
      </trkpt>
      <trkpt lat="45.43133" lon="7.01849">
        <ele>2606.99493</ele>
        <time>2022-05-27T23:59:06.553Z</time>
      </trkpt>
      <trkpt lat="45.4304" lon="7.0191">
        <ele>2615.025651</ele>
        <time>2022-05-27T23:59:56.371Z</time>
      </trkpt>
      <trkpt lat="45.42884" lon="7.02116">
        <ele>2624.061499</ele>
        <time>2022-05-28T00:00:55.716Z</time>
      </trkpt>
      <trkpt lat="45.4276" lon="7.02173">
        <ele>2630.828318</ele>
        <time>2022-05-28T00:01:39.571Z</time>
      </trkpt>
      <trkpt lat="45.42679" lon="7.02209">
        <ele>2637.228734</ele>
        <time>2022-05-28T00:02:15.971Z</time>
      </trkpt>
      <trkpt lat="45.42623" lon="7.02254">
        <ele>2643.512803</ele>
        <time>2022-05-28T00:02:50.268Z</time>
      </trkpt>
      <trkpt lat="45.42598" lon="7.02268">
        <ele>2646.194034</ele>
        <time>2022-05-28T00:03:07.311Z</time>
      </trkpt>
      <trkpt lat="45.42514" lon="7.02267">
        <ele>2655.114473</ele>
        <time>2022-05-28T00:04:00.397Z</time>
      </trkpt>
      <trkpt lat="45.42422" lon="7.02281">
        <ele>2665.814927</ele>
        <time>2022-05-28T00:04:58.534Z</time>
      </trkpt>
      <trkpt lat="45.42404" lon="7.02286">
        <ele>2667.928929</ele>
        <time>2022-05-28T00:05:09.080Z</time>
      </trkpt>
      <trkpt lat="45.42381" lon="7.02306">
        <ele>2671.138571</ele>
        <time>2022-05-28T00:05:26.064Z</time>
      </trkpt>
      <trkpt lat="45.42364" lon="7.02336">
        <ele>2673.540545</ele>
        <time>2022-05-28T00:05:41.527Z</time>
      </trkpt>
      <trkpt lat="45.4236" lon="7.02361">
        <ele>2675.150383</ele>
        <time>2022-05-28T00:05:50.887Z</time>
      </trkpt>
      <trkpt lat="45.42371" lon="7.0248">
        <ele>2682.573766</ele>
        <time>2022-05-28T00:06:30.090Z</time>
      </trkpt>
      <trkpt lat="45.42368" lon="7.02507">
        <ele>2684.265921</ele>
        <time>2022-05-28T00:06:39.566Z</time>
      </trkpt>
      <trkpt lat="45.42339" lon="7.02609">
        <ele>2690.689898</ele>
        <time>2022-05-28T00:07:17.075Z</time>
      </trkpt>
      <trkpt lat="45.42345" lon="7.02682">
        <ele>2694.774102</ele>
        <time>2022-05-28T00:07:42.000Z</time>
      </trkpt>
      <trkpt lat="45.42339" lon="7.02709">
        <ele>2696.324219</ele>
        <time>2022-05-28T00:07:51.972Z</time>
      </trkpt>
      <trkpt lat="45.42302" lon="7.02796">
        <ele>2701.79525</ele>
        <time>2022-05-28T00:08:23.128Z</time>
      </trkpt>
      <trkpt lat="45.42258" lon="7.02863">
        <ele>2705.705283</ele>
        <time>2022-05-28T00:08:48.420Z</time>
      </trkpt>
      <trkpt lat="45.42238" lon="7.0288">
        <ele>2707.132177</ele>
        <time>2022-05-28T00:08:57.687Z</time>
      </trkpt>
      <trkpt lat="45.42224" lon="7.02879">
        <ele>2708.008006</ele>
        <time>2022-05-28T00:09:03.813Z</time>
      </trkpt>
      <trkpt lat="45.42211" lon="7.0287">
        <ele>2708.851675</ele>
        <time>2022-05-28T00:09:08.863Z</time>
      </trkpt>
      <trkpt lat="45.42135" lon="7.02771">
        <ele>2716.35354</ele>
        <time>2022-05-28T00:09:45.071Z</time>
      </trkpt>
      <trkpt lat="45.42109" lon="7.02744">
        <ele>2719.124376</ele>
        <time>2022-05-28T00:10:00.162Z</time>
      </trkpt>
      <trkpt lat="45.42095" lon="7.02742">
        <ele>2720.30417</ele>
        <time>2022-05-28T00:10:08.835Z</time>
      </trkpt>
      <trkpt lat="45.42087" lon="7.02748">
        <ele>2721.101072</ele>
        <time>2022-05-28T00:10:13.958Z</time>
      </trkpt>
      <trkpt lat="45.42075" lon="7.02769">
        <ele>2722.734722</ele>
        <time>2022-05-28T00:10:24.141Z</time>
      </trkpt>
      <trkpt lat="45.42044" lon="7.02853">
        <ele>2728.623691</ele>
        <time>2022-05-28T00:11:02.771Z</time>
      </trkpt>
      <trkpt lat="45.42023" lon="7.02878">
        <ele>2731.263805</ele>
        <time>2022-05-28T00:11:18.930Z</time>
      </trkpt>
      <trkpt lat="45.41997" lon="7.02883">
        <ele>2733.759086</ele>
        <time>2022-05-28T00:11:33.652Z</time>
      </trkpt>
      <trkpt lat="45.41886" lon="7.02869">
        <ele>2744.614786</ele>
        <time>2022-05-28T00:12:33.384Z</time>
      </trkpt>
      <trkpt lat="45.41872" lon="7.02875">
        <ele>2745.650741</ele>
        <time>2022-05-28T00:12:40.600Z</time>
      </trkpt>
      <trkpt lat="45.41871" lon="7.02893">
        <ele>2746.325933</ele>
        <time>2022-05-28T00:12:47.586Z</time>
      </trkpt>
      <trkpt lat="45.41896" lon="7.02901">
        <ele>2747.693722</ele>
        <time>2022-05-28T00:12:57.244Z</time>
      </trkpt>
      <trkpt lat="45.41906" lon="7.02911">
        <ele>2748.344368</ele>
        <time>2022-05-28T00:13:01.183Z</time>
      </trkpt>
      <trkpt lat="45.41934" lon="7.02979">
        <ele>2751.303834</ele>
        <time>2022-05-28T00:13:19.710Z</time>
      </trkpt>
      <trkpt lat="45.4194" lon="7.03004">
        <ele>2752.312685</ele>
        <time>2022-05-28T00:13:25.926Z</time>
      </trkpt>
      <trkpt lat="45.41935" lon="7.03017">
        <ele>2752.853987</ele>
        <time>2022-05-28T00:13:29.133Z</time>
      </trkpt>
      <trkpt lat="45.41925" lon="7.03015">
        <ele>2753.391865</ele>
        <time>2022-05-28T00:13:32.555Z</time>
      </trkpt>
      <trkpt lat="45.41916" lon="7.02991">
        <ele>2754.417768</ele>
        <time>2022-05-28T00:13:38.556Z</time>
      </trkpt>
      <trkpt lat="45.41899" lon="7.0297">
        <ele>2754.504363</ele>
        <time>2022-05-28T00:13:45.702Z</time>
      </trkpt>
      <trkpt lat="45.41876" lon="7.02967">
        <ele>2753.691906</ele>
        <time>2022-05-28T00:13:52.727Z</time>
      </trkpt>
      <trkpt lat="45.41863" lon="7.02975">
        <ele>2753.197399</ele>
        <time>2022-05-28T00:13:56.554Z</time>
      </trkpt>
      <trkpt lat="45.41819" lon="7.03035">
        <ele>2751.077361</ele>
        <time>2022-05-28T00:14:03.043Z</time>
      </trkpt>
      <trkpt lat="45.4176" lon="7.03053">
        <ele>2748.964309</ele>
        <time>2022-05-28T00:14:08.229Z</time>
      </trkpt>
      <trkpt lat="45.4172" lon="7.03072">
        <ele>2744.923407</ele>
        <time>2022-05-28T00:14:11.900Z</time>
      </trkpt>
      <trkpt lat="45.41712" lon="7.03084">
        <ele>2743.69143</ele>
        <time>2022-05-28T00:14:12.878Z</time>
      </trkpt>
      <trkpt lat="45.41705" lon="7.03097">
        <ele>2742.473046</ele>
        <time>2022-05-28T00:14:13.828Z</time>
      </trkpt>
      <trkpt lat="45.41697" lon="7.03125">
        <ele>2740.115371</ele>
        <time>2022-05-28T00:14:15.659Z</time>
      </trkpt>
      <trkpt lat="45.41695" lon="7.03164">
        <ele>2737.087632</ele>
        <time>2022-05-28T00:14:17.983Z</time>
      </trkpt>
      <trkpt lat="45.41701" lon="7.03179">
        <ele>2735.755925</ele>
        <time>2022-05-28T00:14:19.028Z</time>
      </trkpt>
      <trkpt lat="45.41712" lon="7.03192">
        <ele>2734.187427</ele>
        <time>2022-05-28T00:14:20.233Z</time>
      </trkpt>
      <trkpt lat="45.41781" lon="7.03213">
        <ele>2726.425863</ele>
        <time>2022-05-28T00:14:26.162Z</time>
      </trkpt>
      <trkpt lat="45.41814" lon="7.03245">
        <ele>2722.013476</ele>
        <time>2022-05-28T00:14:29.554Z</time>
      </trkpt>
      <trkpt lat="45.41863" lon="7.03274">
        <ele>2716.161452</ele>
        <time>2022-05-28T00:14:34.215Z</time>
      </trkpt>
      <trkpt lat="45.41874" lon="7.03286">
        <ele>2714.669951</ele>
        <time>2022-05-28T00:14:35.386Z</time>
      </trkpt>
      <trkpt lat="45.41881" lon="7.03307">
        <ele>2712.837923</ele>
        <time>2022-05-28T00:14:36.810Z</time>
      </trkpt>
      <trkpt lat="45.41896" lon="7.03434">
        <ele>2703.522344</ele>
        <time>2022-05-28T00:14:44.483Z</time>
      </trkpt>
      <trkpt lat="45.41909" lon="7.03497">
        <ele>2698.923888</ele>
        <time>2022-05-28T00:14:48.411Z</time>
      </trkpt>
      <trkpt lat="45.41973" lon="7.03604">
        <ele>2689.431338</ele>
        <time>2022-05-28T00:14:57.057Z</time>
      </trkpt>
      <trkpt lat="45.4207" lon="7.03734">
        <ele>2678.14993</ele>
        <time>2022-05-28T00:15:08.789Z</time>
      </trkpt>
      <trkpt lat="45.42073" lon="7.03755">
        <ele>2676.892774</ele>
        <time>2022-05-28T00:15:10.169Z</time>
      </trkpt>
      <trkpt lat="45.42057" lon="7.03756">
        <ele>2675.436357</ele>
        <time>2022-05-28T00:15:11.528Z</time>
      </trkpt>
      <trkpt lat="45.42015" lon="7.03692">
        <ele>2669.008678</ele>
        <time>2022-05-28T00:15:16.870Z</time>
      </trkpt>
      <trkpt lat="45.41967" lon="7.03653">
        <ele>2663.230087</ele>
        <time>2022-05-28T00:15:21.553Z</time>
      </trkpt>
      <trkpt lat="45.41919" lon="7.03627">
        <ele>2657.904176</ele>
        <time>2022-05-28T00:15:25.865Z</time>
      </trkpt>
      <trkpt lat="45.41825" lon="7.03534">
        <ele>2646.502017</ele>
        <time>2022-05-28T00:15:35.818Z</time>
      </trkpt>
      <trkpt lat="45.41791" lon="7.03513">
        <ele>2642.93684</ele>
        <time>2022-05-28T00:15:38.949Z</time>
      </trkpt>
      <trkpt lat="45.41758" lon="7.03514">
        <ele>2639.683858</ele>
        <time>2022-05-28T00:15:41.811Z</time>
      </trkpt>
      <trkpt lat="45.4174" lon="7.03507">
        <ele>2637.720382</ele>
        <time>2022-05-28T00:15:43.452Z</time>
      </trkpt>
      <trkpt lat="45.41705" lon="7.03479">
        <ele>2633.529942</ele>
        <time>2022-05-28T00:15:46.900Z</time>
      </trkpt>
      <trkpt lat="45.41686" lon="7.03442">
        <ele>2630.078851</ele>
        <time>2022-05-28T00:15:49.728Z</time>
      </trkpt>
      <trkpt lat="45.41655" lon="7.03409">
        <ele>2626.029687</ele>
        <time>2022-05-28T00:15:53.035Z</time>
      </trkpt>
      <trkpt lat="45.41618" lon="7.03393">
        <ele>2621.964092</ele>
        <time>2022-05-28T00:15:56.330Z</time>
      </trkpt>
      <trkpt lat="45.41556" lon="7.03352">
        <ele>2613.874688</ele>
        <time>2022-05-28T00:16:02.107Z</time>
      </trkpt>
      <trkpt lat="45.41524" lon="7.03303">
        <ele>2608.170776</ele>
        <time>2022-05-28T00:16:06.040Z</time>
      </trkpt>
      <trkpt lat="45.41474" lon="7.03268">
        <ele>2601.350272</ele>
        <time>2022-05-28T00:16:10.762Z</time>
      </trkpt>
      <trkpt lat="45.41437" lon="7.03231">
        <ele>2596.217944</ele>
        <time>2022-05-28T00:16:14.583Z</time>
      </trkpt>
      <trkpt lat="45.41354" lon="7.0308">
        <ele>2582.014155</ele>
        <time>2022-05-28T00:16:26.114Z</time>
      </trkpt>
      <trkpt lat="45.41316" lon="7.03028">
        <ele>2576.832939</ele>
        <time>2022-05-28T00:16:30.686Z</time>
      </trkpt>
      <trkpt lat="45.41268" lon="7.02985">
        <ele>2571.685739</ele>
        <time>2022-05-28T00:16:35.561Z</time>
      </trkpt>
      <trkpt lat="45.41243" lon="7.0297">
        <ele>2569.235919</ele>
        <time>2022-05-28T00:16:37.877Z</time>
      </trkpt>
      <trkpt lat="45.41123" lon="7.02911">
        <ele>2558.821</ele>
        <time>2022-05-28T00:16:49.120Z</time>
      </trkpt>
      <trkpt lat="45.41078" lon="7.02862">
        <ele>2554.77536</ele>
        <time>2022-05-28T00:16:54.183Z</time>
      </trkpt>
      <trkpt lat="45.41035" lon="7.02801">
        <ele>2550.443955</ele>
        <time>2022-05-28T00:16:59.737Z</time>
      </trkpt>
      <trkpt lat="45.41001" lon="7.02771">
        <ele>2548.104872</ele>
        <time>2022-05-28T00:17:03.392Z</time>
      </trkpt>
      <trkpt lat="45.40961" lon="7.02755">
        <ele>2545.669007</ele>
        <time>2022-05-28T00:17:07.215Z</time>
      </trkpt>
      <trkpt lat="45.40944" lon="7.02757">
        <ele>2544.664659</ele>
        <time>2022-05-28T00:17:08.788Z</time>
      </trkpt>
      <trkpt lat="45.40897" lon="7.02788">
        <ele>2541.581741</ele>
        <time>2022-05-28T00:17:13.600Z</time>
      </trkpt>
      <trkpt lat="45.4086" lon="7.02798">
        <ele>2539.374313</ele>
        <time>2022-05-28T00:17:17.030Z</time>
      </trkpt>
      <trkpt lat="45.40796" lon="7.02775">
        <ele>2535.282153</ele>
        <time>2022-05-28T00:17:23.118Z</time>
      </trkpt>
      <trkpt lat="45.40755" lon="7.02785">
        <ele>2532.730546</ele>
        <time>2022-05-28T00:17:26.987Z</time>
      </trkpt>
      <trkpt lat="45.4071" lon="7.02771">
        <ele>2529.931144</ele>
        <time>2022-05-28T00:17:31.368Z</time>
      </trkpt>
      <trkpt lat="45.40675" lon="7.0277">
        <ele>2527.036532</ele>
        <time>2022-05-28T00:17:34.493Z</time>
      </trkpt>
      <trkpt lat="45.40651" lon="7.02783">
        <ele>2524.28238</ele>
        <time>2022-05-28T00:17:36.705Z</time>
      </trkpt>
      <trkpt lat="45.40638" lon="7.02797">
        <ele>2522.571649</ele>
        <time>2022-05-28T00:17:38.144Z</time>
      </trkpt>
      <trkpt lat="45.40619" lon="7.02841">
        <ele>2518.708396</ele>
        <time>2022-05-28T00:17:41.211Z</time>
      </trkpt>
      <trkpt lat="45.40599" lon="7.02894">
        <ele>2514.140674</ele>
        <time>2022-05-28T00:17:44.792Z</time>
      </trkpt>
      <trkpt lat="45.40588" lon="7.02906">
        <ele>2512.761111</ele>
        <time>2022-05-28T00:17:45.850Z</time>
      </trkpt>
      <trkpt lat="45.40555" lon="7.02919">
        <ele>2509.069464</ele>
        <time>2022-05-28T00:17:48.812Z</time>
      </trkpt>
      <trkpt lat="45.40532" lon="7.02942">
        <ele>2506.366018</ele>
        <time>2022-05-28T00:17:51.259Z</time>
      </trkpt>
      <trkpt lat="45.40478" lon="7.03026">
        <ele>2498.586933</ele>
        <time>2022-05-28T00:17:58.077Z</time>
      </trkpt>
      <trkpt lat="45.40474" lon="7.03053">
        <ele>2496.72814</ele>
        <time>2022-05-28T00:17:59.761Z</time>
      </trkpt>
      <trkpt lat="45.40484" lon="7.03087">
        <ele>2494.223663</ele>
        <time>2022-05-28T00:18:02.032Z</time>
      </trkpt>
      <trkpt lat="45.40484" lon="7.03107">
        <ele>2492.880645</ele>
        <time>2022-05-28T00:18:03.242Z</time>
      </trkpt>
      <trkpt lat="45.40456" lon="7.03171">
        <ele>2489.194762</ele>
        <time>2022-05-28T00:18:08.145Z</time>
      </trkpt>
      <trkpt lat="45.40433" lon="7.03209">
        <ele>2486.950735</ele>
        <time>2022-05-28T00:18:11.591Z</time>
      </trkpt>
      <trkpt lat="45.40384" lon="7.03232">
        <ele>2483.638171</ele>
        <time>2022-05-28T00:18:16.639Z</time>
      </trkpt>
      <trkpt lat="45.40313" lon="7.03306">
        <ele>2475.40227</ele>
        <time>2022-05-28T00:18:24.329Z</time>
      </trkpt>
      <trkpt lat="45.40296" lon="7.03341">
        <ele>2471.508725</ele>
        <time>2022-05-28T00:18:26.815Z</time>
      </trkpt>
      <trkpt lat="45.40253" lon="7.03506">
        <ele>2455.482809</ele>
        <time>2022-05-28T00:18:37.072Z</time>
      </trkpt>
      <trkpt lat="45.40242" lon="7.03537">
        <ele>2452.537046</ele>
        <time>2022-05-28T00:18:39.124Z</time>
      </trkpt>
      <trkpt lat="45.40228" lon="7.03555">
        <ele>2450.302119</ele>
        <time>2022-05-28T00:18:40.676Z</time>
      </trkpt>
      <trkpt lat="45.40153" lon="7.03621">
        <ele>2439.729507</ele>
        <time>2022-05-28T00:18:48.190Z</time>
      </trkpt>
      <trkpt lat="45.40153" lon="7.03704">
        <ele>2434.970238</ele>
        <time>2022-05-28T00:18:53.109Z</time>
      </trkpt>
      <trkpt lat="45.40152" lon="7.03767">
        <ele>2433.964172</ele>
        <time>2022-05-28T00:18:59.927Z</time>
      </trkpt>
      <trkpt lat="45.40144" lon="7.0379">
        <ele>2433.562703</ele>
        <time>2022-05-28T00:19:01.448Z</time>
      </trkpt>
      <trkpt lat="45.40119" lon="7.03818">
        <ele>2432.84889</ele>
        <time>2022-05-28T00:19:06.223Z</time>
      </trkpt>
      <trkpt lat="45.40113" lon="7.03853">
        <ele>2432.27723</ele>
        <time>2022-05-28T00:19:14.633Z</time>
      </trkpt>
      <trkpt lat="45.40098" lon="7.03885">
        <ele>2431.664863</ele>
        <time>2022-05-28T00:19:20.465Z</time>
      </trkpt>
      <trkpt lat="45.40103" lon="7.0393">
        <ele>2433.454363</ele>
        <time>2022-05-28T00:19:29.733Z</time>
      </trkpt>
      <trkpt lat="45.40085" lon="7.03974">
        <ele>2437.065673</ele>
        <time>2022-05-28T00:19:40.398Z</time>
      </trkpt>
      <trkpt lat="45.40061" lon="7.04102">
        <ele>2446.375916</ele>
        <time>2022-05-28T00:20:40.180Z</time>
      </trkpt>
      <trkpt lat="45.4006" lon="7.0415">
        <ele>2449.825949</ele>
        <time>2022-05-28T00:21:04.645Z</time>
      </trkpt>
      <trkpt lat="45.40052" lon="7.04185">
        <ele>2452.922766</ele>
        <time>2022-05-28T00:21:23.885Z</time>
      </trkpt>
      <trkpt lat="45.40038" lon="7.04221">
        <ele>2456.515751</ele>
        <time>2022-05-28T00:21:48.096Z</time>
      </trkpt>
      <trkpt lat="45.40011" lon="7.04242">
        <ele>2460.230039</ele>
        <time>2022-05-28T00:22:12.222Z</time>
      </trkpt>
      <trkpt lat="45.39986" lon="7.04253">
        <ele>2463.476679</ele>
        <time>2022-05-28T00:22:31.016Z</time>
      </trkpt>
      <trkpt lat="45.39975" lon="7.04265">
        <ele>2465.178323</ele>
        <time>2022-05-28T00:22:39.650Z</time>
      </trkpt>
      <trkpt lat="45.39949" lon="7.04313">
        <ele>2470.38649</ele>
        <time>2022-05-28T00:23:00.776Z</time>
      </trkpt>
      <trkpt lat="45.3993" lon="7.04336">
        <ele>2471.087699</ele>
        <time>2022-05-28T00:23:10.788Z</time>
      </trkpt>
      <trkpt lat="45.39915" lon="7.04341">
        <ele>2470.746511</ele>
        <time>2022-05-28T00:23:15.054Z</time>
      </trkpt>
      <trkpt lat="45.39879" lon="7.0434">
        <ele>2469.960764</ele>
        <time>2022-05-28T00:23:23.146Z</time>
      </trkpt>
      <trkpt lat="45.3987" lon="7.04337">
        <ele>2469.766513</ele>
        <time>2022-05-28T00:23:24.176Z</time>
      </trkpt>
      <trkpt lat="45.39863" lon="7.04335">
        <ele>2469.592094</ele>
        <time>2022-05-28T00:23:25.517Z</time>
      </trkpt>
      <trkpt lat="45.39858" lon="7.04332">
        <ele>2469.477739</ele>
        <time>2022-05-28T00:23:26.287Z</time>
      </trkpt>
      <trkpt lat="45.39836" lon="7.04319">
        <ele>2468.970247</ele>
        <time>2022-05-28T00:23:28.757Z</time>
      </trkpt>
      <trkpt lat="45.39779" lon="7.04306">
        <ele>2467.712818</ele>
        <time>2022-05-28T00:23:33.965Z</time>
      </trkpt>
      <trkpt lat="45.39728" lon="7.04272">
        <ele>2460.171345</ele>
        <time>2022-05-28T00:23:38.691Z</time>
      </trkpt>
      <trkpt lat="45.39698" lon="7.04263">
        <ele>2455.451654</ele>
        <time>2022-05-28T00:23:41.203Z</time>
      </trkpt>
      <trkpt lat="45.39629" lon="7.04258">
        <ele>2444.763896</ele>
        <time>2022-05-28T00:23:46.891Z</time>
      </trkpt>
      <trkpt lat="45.39551" lon="7.04276">
        <ele>2432.386975</ele>
        <time>2022-05-28T00:23:53.422Z</time>
      </trkpt>
      <trkpt lat="45.39476" lon="7.0438">
        <ele>2416.019559</ele>
        <time>2022-05-28T00:24:02.058Z</time>
      </trkpt>
      <trkpt lat="45.39459" lon="7.04397">
        <ele>2412.677645</ele>
        <time>2022-05-28T00:24:03.842Z</time>
      </trkpt>
      <trkpt lat="45.39434" lon="7.04409">
        <ele>2409.353441</ele>
        <time>2022-05-28T00:24:06.060Z</time>
      </trkpt>
      <trkpt lat="45.3941" lon="7.04407">
        <ele>2406.749511</ele>
        <time>2022-05-28T00:24:08.012Z</time>
      </trkpt>
      <trkpt lat="45.39352" lon="7.04441">
        <ele>2399.649629</ele>
        <time>2022-05-28T00:24:13.368Z</time>
      </trkpt>
      <trkpt lat="45.39294" lon="7.04503">
        <ele>2391.47662</ele>
        <time>2022-05-28T00:24:19.601Z</time>
      </trkpt>
      <trkpt lat="45.39245" lon="7.04533">
        <ele>2386.979906</ele>
        <time>2022-05-28T00:24:24.267Z</time>
      </trkpt>
      <trkpt lat="45.39202" lon="7.04601">
        <ele>2381.615397</ele>
        <time>2022-05-28T00:24:29.984Z</time>
      </trkpt>
      <trkpt lat="45.39163" lon="7.04609">
        <ele>2378.320025</ele>
        <time>2022-05-28T00:24:33.559Z</time>
      </trkpt>
      <trkpt lat="45.39126" lon="7.04628">
        <ele>2374.725866</ele>
        <time>2022-05-28T00:24:37.046Z</time>
      </trkpt>
      <trkpt lat="45.39042" lon="7.04748">
        <ele>2361.366559</ele>
        <time>2022-05-28T00:24:47.138Z</time>
      </trkpt>
      <trkpt lat="45.39023" lon="7.04755">
        <ele>2359.178564</ele>
        <time>2022-05-28T00:24:48.837Z</time>
      </trkpt>
      <trkpt lat="45.38997" lon="7.04747">
        <ele>2356.268908</ele>
        <time>2022-05-28T00:24:51.048Z</time>
      </trkpt>
      <trkpt lat="45.38974" lon="7.04729">
        <ele>2353.194642</ele>
        <time>2022-05-28T00:24:53.265Z</time>
      </trkpt>
      <trkpt lat="45.38965" lon="7.04715">
        <ele>2351.592081</ele>
        <time>2022-05-28T00:24:54.453Z</time>
      </trkpt>
      <trkpt lat="45.38966" lon="7.04682">
        <ele>2348.923287</ele>
        <time>2022-05-28T00:24:56.362Z</time>
      </trkpt>
      <trkpt lat="45.39019" lon="7.046">
        <ele>2339.768862</ele>
        <time>2022-05-28T00:25:02.950Z</time>
      </trkpt>
      <trkpt lat="45.39076" lon="7.04522">
        <ele>2332.223133</ele>
        <time>2022-05-28T00:25:09.866Z</time>
      </trkpt>
      <trkpt lat="45.39121" lon="7.04443">
        <ele>2326.867945</ele>
        <time>2022-05-28T00:25:16.378Z</time>
      </trkpt>
      <trkpt lat="45.39155" lon="7.04408">
        <ele>2323.765923</ele>
        <time>2022-05-28T00:25:20.101Z</time>
      </trkpt>
      <trkpt lat="45.39186" lon="7.04353">
        <ele>2320.141464</ele>
        <time>2022-05-28T00:25:24.563Z</time>
      </trkpt>
      <trkpt lat="45.39271" lon="7.04281">
        <ele>2312.968839</ele>
        <time>2022-05-28T00:25:33.549Z</time>
      </trkpt>
      <trkpt lat="45.39372" lon="7.04167">
        <ele>2303.071006</ele>
        <time>2022-05-28T00:25:44.807Z</time>
      </trkpt>
      <trkpt lat="45.39487" lon="7.04055">
        <ele>2292.072181</ele>
        <time>2022-05-28T00:25:57.105Z</time>
      </trkpt>
      <trkpt lat="45.39623" lon="7.03971">
        <ele>2281.461287</ele>
        <time>2022-05-28T00:26:10.455Z</time>
      </trkpt>
      <trkpt lat="45.39668" lon="7.03961">
        <ele>2277.80082</ele>
        <time>2022-05-28T00:26:14.622Z</time>
      </trkpt>
      <trkpt lat="45.39672" lon="7.03944">
        <ele>2276.741024</ele>
        <time>2022-05-28T00:26:15.844Z</time>
      </trkpt>
      <trkpt lat="45.39665" lon="7.03936">
        <ele>2275.992693</ele>
        <time>2022-05-28T00:26:16.637Z</time>
      </trkpt>
      <trkpt lat="45.39624" lon="7.03939">
        <ele>2272.68463</ele>
        <time>2022-05-28T00:26:20.327Z</time>
      </trkpt>
      <trkpt lat="45.39488" lon="7.03988">
        <ele>2260.320327</ele>
        <time>2022-05-28T00:26:32.411Z</time>
      </trkpt>
      <trkpt lat="45.39327" lon="7.04022">
        <ele>2244.675222</ele>
        <time>2022-05-28T00:26:46.524Z</time>
      </trkpt>
      <trkpt lat="45.39314" lon="7.04038">
        <ele>2243.05672</ele>
        <time>2022-05-28T00:26:48.026Z</time>
      </trkpt>
      <trkpt lat="45.39301" lon="7.04079">
        <ele>2240.090864</ele>
        <time>2022-05-28T00:26:50.763Z</time>
      </trkpt>
      <trkpt lat="45.39287" lon="7.04092">
        <ele>2238.494638</ele>
        <time>2022-05-28T00:26:52.214Z</time>
      </trkpt>
      <trkpt lat="45.39171" lon="7.04145">
        <ele>2225.623383</ele>
        <time>2022-05-28T00:27:02.745Z</time>
      </trkpt>
      <trkpt lat="45.3901" lon="7.04202">
        <ele>2206.237438</ele>
        <time>2022-05-28T00:27:16.684Z</time>
      </trkpt>
      <trkpt lat="45.38973" lon="7.0424">
        <ele>2200.8291</ele>
        <time>2022-05-28T00:27:20.562Z</time>
      </trkpt>
      <trkpt lat="45.38924" lon="7.04267">
        <ele>2194.632972</ele>
        <time>2022-05-28T00:27:25.038Z</time>
      </trkpt>
      <trkpt lat="45.38866" lon="7.04323">
        <ele>2186.741437</ele>
        <time>2022-05-28T00:27:31.066Z</time>
      </trkpt>
      <trkpt lat="45.38783" lon="7.04392">
        <ele>2176.593367</ele>
        <time>2022-05-28T00:27:39.313Z</time>
      </trkpt>
      <trkpt lat="45.38723" lon="7.04432">
        <ele>2169.882226</ele>
        <time>2022-05-28T00:27:44.898Z</time>
      </trkpt>
      <trkpt lat="45.3868" lon="7.04478">
        <ele>2165.077874</ele>
        <time>2022-05-28T00:27:49.490Z</time>
      </trkpt>
      <trkpt lat="45.38626" lon="7.04513">
        <ele>2159.735414</ele>
        <time>2022-05-28T00:27:54.682Z</time>
      </trkpt>
      <trkpt lat="45.38603" lon="7.04534">
        <ele>2157.238731</ele>
        <time>2022-05-28T00:27:57.145Z</time>
      </trkpt>
      <trkpt lat="45.38577" lon="7.04582">
        <ele>2154.358449</ele>
        <time>2022-05-28T00:28:01.012Z</time>
      </trkpt>
      <trkpt lat="45.38529" lon="7.04606">
        <ele>2152.251579</ele>
        <time>2022-05-28T00:28:05.710Z</time>
      </trkpt>
      <trkpt lat="45.38508" lon="7.04606">
        <ele>2151.381886</ele>
        <time>2022-05-28T00:28:07.681Z</time>
      </trkpt>
      <trkpt lat="45.38498" lon="7.0459">
        <ele>2150.756165</ele>
        <time>2022-05-28T00:28:09.113Z</time>
      </trkpt>
      <trkpt lat="45.38498" lon="7.0458">
        <ele>2150.464834</ele>
        <time>2022-05-28T00:28:09.764Z</time>
      </trkpt>
      <trkpt lat="45.38524" lon="7.04516">
        <ele>2148.315016</ele>
        <time>2022-05-28T00:28:15.103Z</time>
      </trkpt>
      <trkpt lat="45.38548" lon="7.04335">
        <ele>2148.868762</ele>
        <time>2022-05-28T00:28:37.413Z</time>
      </trkpt>
      <trkpt lat="45.38539" lon="7.04303">
        <ele>2149.121729</ele>
        <time>2022-05-28T00:28:42.977Z</time>
      </trkpt>
      <trkpt lat="45.38509" lon="7.04279">
        <ele>2149.484201</ele>
        <time>2022-05-28T00:28:51.476Z</time>
      </trkpt>
      <trkpt lat="45.385" lon="7.04275">
        <ele>2149.591745</ele>
        <time>2022-05-28T00:28:54.202Z</time>
      </trkpt>
      <trkpt lat="45.38476" lon="7.04263">
        <ele>2150.152561</ele>
        <time>2022-05-28T00:29:00.845Z</time>
      </trkpt>
      <trkpt lat="45.38465" lon="7.04265">
        <ele>2150.395469</ele>
        <time>2022-05-28T00:29:04.427Z</time>
      </trkpt>
      <trkpt lat="45.38449" lon="7.04283">
        <ele>2150.837973</ele>
        <time>2022-05-28T00:29:10.085Z</time>
      </trkpt>
      <trkpt lat="45.38358" lon="7.04455">
        <ele>2153.037007</ele>
        <time>2022-05-28T00:29:45.664Z</time>
      </trkpt>
      <trkpt lat="45.38323" lon="7.04495">
        <ele>2152.344086</ele>
        <time>2022-05-28T00:29:50.458Z</time>
      </trkpt>
      <trkpt lat="45.38302" lon="7.04527">
        <ele>2151.865578</ele>
        <time>2022-05-28T00:29:53.693Z</time>
      </trkpt>
      <trkpt lat="45.38257" lon="7.04624">
        <ele>2150.367584</ele>
        <time>2022-05-28T00:30:02.047Z</time>
      </trkpt>
      <trkpt lat="45.38166" lon="7.04684">
        <ele>2145.405874</ele>
        <time>2022-05-28T00:30:12.752Z</time>
      </trkpt>
      <trkpt lat="45.38146" lon="7.04708">
        <ele>2144.08553</ele>
        <time>2022-05-28T00:30:15.372Z</time>
      </trkpt>
      <trkpt lat="45.38121" lon="7.04798">
        <ele>2138.296208</ele>
        <time>2022-05-28T00:30:21.189Z</time>
      </trkpt>
      <trkpt lat="45.38118" lon="7.04851">
        <ele>2132.301013</ele>
        <time>2022-05-28T00:30:24.400Z</time>
      </trkpt>
      <trkpt lat="45.38087" lon="7.04908">
        <ele>2124.124987</ele>
        <time>2022-05-28T00:30:28.794Z</time>
      </trkpt>
      <trkpt lat="45.38077" lon="7.04926">
        <ele>2121.656758</ele>
        <time>2022-05-28T00:30:30.054Z</time>
      </trkpt>
      <trkpt lat="45.38074" lon="7.04968">
        <ele>2116.854548</ele>
        <time>2022-05-28T00:30:32.509Z</time>
      </trkpt>
      <trkpt lat="45.38064" lon="7.04988">
        <ele>2114.121793</ele>
        <time>2022-05-28T00:30:33.909Z</time>
      </trkpt>
      <trkpt lat="45.37986" lon="7.05013">
        <ele>2093.728023</ele>
        <time>2022-05-28T00:30:40.518Z</time>
      </trkpt>
      <trkpt lat="45.37934" lon="7.05005">
        <ele>2080.130864</ele>
        <time>2022-05-28T00:30:44.759Z</time>
      </trkpt>
      <trkpt lat="45.37906" lon="7.04991">
        <ele>2072.234421</ele>
        <time>2022-05-28T00:30:47.212Z</time>
      </trkpt>
      <trkpt lat="45.37876" lon="7.04967">
        <ele>2063.883259</ele>
        <time>2022-05-28T00:30:50.041Z</time>
      </trkpt>
      <trkpt lat="45.37818" lon="7.04878">
        <ele>2048.345555</ele>
        <time>2022-05-28T00:30:56.977Z</time>
      </trkpt>
      <trkpt lat="45.37784" lon="7.04837">
        <ele>2040.164355</ele>
        <time>2022-05-28T00:31:00.703Z</time>
      </trkpt>
      <trkpt lat="45.37767" lon="7.04787">
        <ele>2033.05667</ele>
        <time>2022-05-28T00:31:04.039Z</time>
      </trkpt>
      <trkpt lat="45.37742" lon="7.04735">
        <ele>2029.642759</ele>
        <time>2022-05-28T00:31:07.903Z</time>
      </trkpt>
      <trkpt lat="45.37727" lon="7.04673">
        <ele>2026.279252</ele>
        <time>2022-05-28T00:31:12.008Z</time>
      </trkpt>
      <trkpt lat="45.37705" lon="7.04609">
        <ele>2022.623684</ele>
        <time>2022-05-28T00:31:16.613Z</time>
      </trkpt>
      <trkpt lat="45.37687" lon="7.04527">
        <ele>2018.466587</ele>
        <time>2022-05-28T00:31:22.269Z</time>
      </trkpt>
      <trkpt lat="45.37657" lon="7.04473">
        <ele>2015.436777</ele>
        <time>2022-05-28T00:31:26.834Z</time>
      </trkpt>
      <trkpt lat="45.37614" lon="7.04358">
        <ele>2009.750819</ele>
        <time>2022-05-28T00:31:35.160Z</time>
      </trkpt>
      <trkpt lat="45.37599" lon="7.04284">
        <ele>2005.705766</ele>
        <time>2022-05-28T00:31:39.943Z</time>
      </trkpt>
      <trkpt lat="45.37582" lon="7.04249">
        <ele>2003.270734</ele>
        <time>2022-05-28T00:31:42.565Z</time>
      </trkpt>
      <trkpt lat="45.37545" lon="7.04138">
        <ele>1996.267801</ele>
        <time>2022-05-28T00:31:50.084Z</time>
      </trkpt>
      <trkpt lat="45.37519" lon="7.04044">
        <ele>1990.962401</ele>
        <time>2022-05-28T00:31:56.357Z</time>
      </trkpt>
      <trkpt lat="45.37471" lon="7.03938">
        <ele>1984.781508</ele>
        <time>2022-05-28T00:32:04.357Z</time>
      </trkpt>
      <trkpt lat="45.37384" lon="7.03717">
        <ele>1973.338315</ele>
        <time>2022-05-28T00:32:20.681Z</time>
      </trkpt>
      <trkpt lat="45.37356" lon="7.03675">
        <ele>1970.825931</ele>
        <time>2022-05-28T00:32:24.371Z</time>
      </trkpt>
      <trkpt lat="45.37355" lon="7.03625">
        <ele>1968.296523</ele>
        <time>2022-05-28T00:32:27.524Z</time>
      </trkpt>
      <trkpt lat="45.37329" lon="7.0356">
        <ele>1964.170123</ele>
        <time>2022-05-28T00:32:32.270Z</time>
      </trkpt>
      <trkpt lat="45.37329" lon="7.03513">
        <ele>1961.589239</ele>
        <time>2022-05-28T00:32:35.220Z</time>
      </trkpt>
      <trkpt lat="45.37319" lon="7.03481">
        <ele>1959.695609</ele>
        <time>2022-05-28T00:32:37.380Z</time>
      </trkpt>
      <trkpt lat="45.37231" lon="7.03365">
        <ele>1947.89493</ele>
        <time>2022-05-28T00:32:47.794Z</time>
      </trkpt>
      <trkpt lat="45.37158" lon="7.03321">
        <ele>1939.237328</ele>
        <time>2022-05-28T00:32:54.414Z</time>
      </trkpt>
      <trkpt lat="45.37138" lon="7.03299">
        <ele>1936.360565</ele>
        <time>2022-05-28T00:32:56.611Z</time>
      </trkpt>
      <trkpt lat="45.37123" lon="7.03274">
        <ele>1934.168369</ele>
        <time>2022-05-28T00:32:58.594Z</time>
      </trkpt>
      <trkpt lat="45.37103" lon="7.03246">
        <ele>1931.514507</ele>
        <time>2022-05-28T00:33:00.985Z</time>
      </trkpt>
      <trkpt lat="45.37088" lon="7.03235">
        <ele>1929.927405</ele>
        <time>2022-05-28T00:33:02.411Z</time>
      </trkpt>
      <trkpt lat="45.37064" lon="7.03225">
        <ele>1927.595135</ele>
        <time>2022-05-28T00:33:04.540Z</time>
      </trkpt>
      <trkpt lat="45.37038" lon="7.03222">
        <ele>1925.085223</ele>
        <time>2022-05-28T00:33:06.818Z</time>
      </trkpt>
      <trkpt lat="45.37016" lon="7.03209">
        <ele>1922.825187</ele>
        <time>2022-05-28T00:33:08.870Z</time>
      </trkpt>
      <trkpt lat="45.36987" lon="7.03179">
        <ele>1919.423925</ele>
        <time>2022-05-28T00:33:12.111Z</time>
      </trkpt>
      <trkpt lat="45.36972" lon="7.03154">
        <ele>1917.947077</ele>
        <time>2022-05-28T00:33:14.127Z</time>
      </trkpt>
      <trkpt lat="45.36964" lon="7.03153">
        <ele>1917.423479</ele>
        <time>2022-05-28T00:33:14.938Z</time>
      </trkpt>
      <trkpt lat="45.36961" lon="7.03162">
        <ele>1917.034522</ele>
        <time>2022-05-28T00:33:15.532Z</time>
      </trkpt>
      <trkpt lat="45.36966" lon="7.03176">
        <ele>1916.372252</ele>
        <time>2022-05-28T00:33:16.584Z</time>
      </trkpt>
      <trkpt lat="45.37017" lon="7.03245">
        <ele>1912.153405</ele>
        <time>2022-05-28T00:33:23.367Z</time>
      </trkpt>
      <trkpt lat="45.37071" lon="7.03295">
        <ele>1908.234145</ele>
        <time>2022-05-28T00:33:29.272Z</time>
      </trkpt>
      <trkpt lat="45.37104" lon="7.03386">
        <ele>1901.299979</ele>
        <time>2022-05-28T00:33:35.569Z</time>
      </trkpt>
      <trkpt lat="45.37154" lon="7.03475">
        <ele>1893.522987</ele>
        <time>2022-05-28T00:33:42.456Z</time>
      </trkpt>
      <trkpt lat="45.37166" lon="7.03492">
        <ele>1891.887701</ele>
        <time>2022-05-28T00:33:43.934Z</time>
      </trkpt>
      <trkpt lat="45.37186" lon="7.03548">
        <ele>1886.426107</ele>
        <time>2022-05-28T00:33:47.625Z</time>
      </trkpt>
      <trkpt lat="45.3719" lon="7.03607">
        <ele>1880.801214</ele>
        <time>2022-05-28T00:33:51.126Z</time>
      </trkpt>
      <trkpt lat="45.37204" lon="7.03689">
        <ele>1872.924675</ele>
        <time>2022-05-28T00:33:56.056Z</time>
      </trkpt>
      <trkpt lat="45.37202" lon="7.03728">
        <ele>1869.31575</ele>
        <time>2022-05-28T00:33:58.325Z</time>
      </trkpt>
      <trkpt lat="45.37214" lon="7.03791">
        <ele>1864.035563</ele>
        <time>2022-05-28T00:34:02.209Z</time>
      </trkpt>
      <trkpt lat="45.37219" lon="7.03832">
        <ele>1860.957188</ele>
        <time>2022-05-28T00:34:04.743Z</time>
      </trkpt>
      <trkpt lat="45.37247" lon="7.03887">
        <ele>1855.96517</ele>
        <time>2022-05-28T00:34:08.835Z</time>
      </trkpt>
      <trkpt lat="45.37258" lon="7.03949">
        <ele>1851.314497</ele>
        <time>2022-05-28T00:34:12.635Z</time>
      </trkpt>
      <trkpt lat="45.37288" lon="7.04052">
        <ele>1844.665303</ele>
        <time>2022-05-28T00:34:19.568Z</time>
      </trkpt>
      <trkpt lat="45.37292" lon="7.04089">
        <ele>1842.734562</ele>
        <time>2022-05-28T00:34:21.927Z</time>
      </trkpt>
      <trkpt lat="45.37335" lon="7.04257">
        <ele>1833.846548</ele>
        <time>2022-05-28T00:34:33.245Z</time>
      </trkpt>
      <trkpt lat="45.37355" lon="7.04382">
        <ele>1828.611454</ele>
        <time>2022-05-28T00:34:41.582Z</time>
      </trkpt>
      <trkpt lat="45.37369" lon="7.04443">
        <ele>1825.977122</ele>
        <time>2022-05-28T00:34:45.766Z</time>
      </trkpt>
      <trkpt lat="45.37372" lon="7.04515">
        <ele>1823.000594</ele>
        <time>2022-05-28T00:34:50.475Z</time>
      </trkpt>
      <trkpt lat="45.37363" lon="7.04566">
        <ele>1820.86566</ele>
        <time>2022-05-28T00:34:53.825Z</time>
      </trkpt>
      <trkpt lat="45.3736" lon="7.04671">
        <ele>1816.527645</ele>
        <time>2022-05-28T00:35:00.628Z</time>
      </trkpt>
      <trkpt lat="45.37372" lon="7.04786">
        <ele>1812.54993</ele>
        <time>2022-05-28T00:35:08.142Z</time>
      </trkpt>
      <trkpt lat="45.37388" lon="7.04861">
        <ele>1810.432428</ele>
        <time>2022-05-28T00:35:13.378Z</time>
      </trkpt>
      <trkpt lat="45.3743" lon="7.0511">
        <ele>1805.143024</ele>
        <time>2022-05-28T00:35:32.655Z</time>
      </trkpt>
      <trkpt lat="45.3743" lon="7.05164">
        <ele>1804.328064</ele>
        <time>2022-05-28T00:35:36.791Z</time>
      </trkpt>
      <trkpt lat="45.37428" lon="7.05187">
        <ele>1803.97943</ele>
        <time>2022-05-28T00:35:38.656Z</time>
      </trkpt>
      <trkpt lat="45.37425" lon="7.05212">
        <ele>1803.59653</ele>
        <time>2022-05-28T00:35:40.552Z</time>
      </trkpt>
      <trkpt lat="45.37415" lon="7.05242">
        <ele>1803.194126</ele>
        <time>2022-05-28T00:35:43.199Z</time>
      </trkpt>
      <trkpt lat="45.37386" lon="7.05276">
        <ele>1802.735353</ele>
        <time>2022-05-28T00:35:47.385Z</time>
      </trkpt>
      <trkpt lat="45.37375" lon="7.05281">
        <ele>1802.595815</ele>
        <time>2022-05-28T00:35:48.596Z</time>
      </trkpt>
      <trkpt lat="45.37354" lon="7.05283">
        <ele>1802.331137</ele>
        <time>2022-05-28T00:35:51.261Z</time>
      </trkpt>
      <trkpt lat="45.37322" lon="7.0527">
        <ele>1801.919537</ele>
        <time>2022-05-28T00:35:55.191Z</time>
      </trkpt>
      <trkpt lat="45.37311" lon="7.05258">
        <ele>1801.754641</ele>
        <time>2022-05-28T00:35:56.709Z</time>
      </trkpt>
      <trkpt lat="45.37279" lon="7.05202">
        <ele>1801.129223</ele>
        <time>2022-05-28T00:36:02.880Z</time>
      </trkpt>
      <trkpt lat="45.37182" lon="7.04992">
        <ele>1800.932423</ele>
        <time>2022-05-28T00:36:30.605Z</time>
      </trkpt>
      <trkpt lat="45.3705" lon="7.04678">
        <ele>1798.200611</ele>
        <time>2022-05-28T00:37:02.520Z</time>
      </trkpt>
      <trkpt lat="45.37031" lon="7.04618">
        <ele>1797.348871</ele>
        <time>2022-05-28T00:37:07.437Z</time>
      </trkpt>
      <trkpt lat="45.36936" lon="7.04297">
        <ele>1792.375529</ele>
        <time>2022-05-28T00:37:33.187Z</time>
      </trkpt>
      <trkpt lat="45.36926" lon="7.04268">
        <ele>1792.657107</ele>
        <time>2022-05-28T00:37:37.046Z</time>
      </trkpt>
      <trkpt lat="45.36898" lon="7.04228">
        <ele>1793.149707</ele>
        <time>2022-05-28T00:37:45.249Z</time>
      </trkpt>
      <trkpt lat="45.36872" lon="7.04194">
        <ele>1793.590088</ele>
        <time>2022-05-28T00:37:53.838Z</time>
      </trkpt>
      <trkpt lat="45.36776" lon="7.04068">
        <ele>1795.108155</ele>
        <time>2022-05-28T00:38:24.026Z</time>
      </trkpt>
      <trkpt lat="45.36753" lon="7.04037">
        <ele>1795.434104</ele>
        <time>2022-05-28T00:38:29.533Z</time>
      </trkpt>
      <trkpt lat="45.36733" lon="7.0401">
        <ele>1795.711022</ele>
        <time>2022-05-28T00:38:33.314Z</time>
      </trkpt>
      <trkpt lat="45.36618" lon="7.03891">
        <ele>1798.227628</ele>
        <time>2022-05-28T00:38:59.137Z</time>
      </trkpt>
      <trkpt lat="45.36417" lon="7.03685">
        <ele>1803.861814</ele>
        <time>2022-05-28T00:40:11.870Z</time>
      </trkpt>
      <trkpt lat="45.36363" lon="7.0362">
        <ele>1803.683534</ele>
        <time>2022-05-28T00:40:19.873Z</time>
      </trkpt>
      <trkpt lat="45.3628" lon="7.03506">
        <ele>1799.920852</ele>
        <time>2022-05-28T00:40:30.993Z</time>
      </trkpt>
      <trkpt lat="45.36195" lon="7.03434">
        <ele>1797.948211</ele>
        <time>2022-05-28T00:40:40.940Z</time>
      </trkpt>
      <trkpt lat="45.35979" lon="7.03203">
        <ele>1797.130414</ele>
        <time>2022-05-28T00:41:20.226Z</time>
      </trkpt>
      <trkpt lat="45.35768" lon="7.03065">
        <ele>1799.871542</ele>
        <time>2022-05-28T00:42:18.721Z</time>
      </trkpt>
      <trkpt lat="45.35721" lon="7.03021">
        <ele>1797.546062</ele>
        <time>2022-05-28T00:42:24.786Z</time>
      </trkpt>
      <trkpt lat="45.35706" lon="7.03004">
        <ele>1796.759185</ele>
        <time>2022-05-28T00:42:26.433Z</time>
      </trkpt>
      <trkpt lat="45.35668" lon="7.02979">
        <ele>1795.030566</ele>
        <time>2022-05-28T00:42:30.289Z</time>
      </trkpt>
      <trkpt lat="45.35633" lon="7.02963">
        <ele>1793.470256</ele>
        <time>2022-05-28T00:42:33.477Z</time>
      </trkpt>
      <trkpt lat="45.35584" lon="7.02959">
        <ele>1790.138912</ele>
        <time>2022-05-28T00:42:37.766Z</time>
      </trkpt>
      <trkpt lat="45.35211" lon="7.03018">
        <ele>1768.434265</ele>
        <time>2022-05-28T00:43:12.156Z</time>
      </trkpt>
      <trkpt lat="45.35177" lon="7.03017">
        <ele>1767.301734</ele>
        <time>2022-05-28T00:43:15.618Z</time>
      </trkpt>
      <trkpt lat="45.35098" lon="7.0301">
        <ele>1764.649884</ele>
        <time>2022-05-28T00:43:24.596Z</time>
      </trkpt>
      <trkpt lat="45.34924" lon="7.02978">
        <ele>1763.918048</ele>
        <time>2022-05-28T00:43:49.905Z</time>
      </trkpt>
      <trkpt lat="45.3467" lon="7.02948">
        <ele>1761.579633</ele>
        <time>2022-05-28T00:44:21.505Z</time>
      </trkpt>
      <trkpt lat="45.34585" lon="7.02919">
        <ele>1760.515143</ele>
        <time>2022-05-28T00:44:31.915Z</time>
      </trkpt>
      <trkpt lat="45.34389" lon="7.02834">
        <ele>1757.091095</ele>
        <time>2022-05-28T00:44:54.923Z</time>
      </trkpt>
      <trkpt lat="45.34355" lon="7.02814">
        <ele>1756.442065</ele>
        <time>2022-05-28T00:44:59.087Z</time>
      </trkpt>
      <trkpt lat="45.34082" lon="7.02615">
        <ele>1751.088747</ele>
        <time>2022-05-28T00:45:33.703Z</time>
      </trkpt>
      <trkpt lat="45.34011" lon="7.02545">
        <ele>1749.329273</ele>
        <time>2022-05-28T00:45:43.044Z</time>
      </trkpt>
      <trkpt lat="45.34009" lon="7.02543">
        <ele>1749.271122</ele>
        <time>2022-05-28T00:45:43.345Z</time>
      </trkpt>
      <trkpt lat="45.34003" lon="7.02535">
        <ele>1749.102712</ele>
        <time>2022-05-28T00:45:44.202Z</time>
      </trkpt>
      <trkpt lat="45.33927" lon="7.02431">
        <ele>1746.940526</ele>
        <time>2022-05-28T00:45:55.679Z</time>
      </trkpt>
      <trkpt lat="45.33873" lon="7.02364">
        <ele>1745.738903</ele>
        <time>2022-05-28T00:46:03.474Z</time>
      </trkpt>
      <trkpt lat="45.3358" lon="7.02067">
        <ele>1741.353517</ele>
        <time>2022-05-28T00:46:45.614Z</time>
      </trkpt>
      <trkpt lat="45.33182" lon="7.01659">
        <ele>1739.847316</ele>
        <time>2022-05-28T00:47:55.785Z</time>
      </trkpt>
      <trkpt lat="45.33151" lon="7.01623">
        <ele>1739.739784</ele>
        <time>2022-05-28T00:48:01.206Z</time>
      </trkpt>
      <trkpt lat="45.3303" lon="7.01429">
        <ele>1739.238958</ele>
        <time>2022-05-28T00:48:26.397Z</time>
      </trkpt>
      <trkpt lat="45.33023" lon="7.01413">
        <ele>1739.200913</ele>
        <time>2022-05-28T00:48:28.463Z</time>
      </trkpt>
      <trkpt lat="45.32947" lon="7.01181">
        <ele>1738.259962</ele>
        <time>2022-05-28T00:48:53.264Z</time>
      </trkpt>
      <trkpt lat="45.32939" lon="7.01153">
        <ele>1738.097397</ele>
        <time>2022-05-28T00:48:55.842Z</time>
      </trkpt>
      <trkpt lat="45.32926" lon="7.01117">
        <ele>1737.876122</ele>
        <time>2022-05-28T00:48:59.295Z</time>
      </trkpt>
      <trkpt lat="45.32922" lon="7.01106">
        <ele>1737.805915</ele>
        <time>2022-05-28T00:49:00.372Z</time>
      </trkpt>
      <trkpt lat="45.32918" lon="7.01098">
        <ele>1737.755845</ele>
        <time>2022-05-28T00:49:01.140Z</time>
      </trkpt>
      <trkpt lat="45.32912" lon="7.01081">
        <ele>1737.651631</ele>
        <time>2022-05-28T00:49:02.716Z</time>
      </trkpt>
      <trkpt lat="45.32879" lon="7.01018">
        <ele>1736.924681</ele>
        <time>2022-05-28T00:49:09.019Z</time>
      </trkpt>
      <trkpt lat="45.32855" lon="7.0097">
        <ele>1736.303004</ele>
        <time>2022-05-28T00:49:13.656Z</time>
      </trkpt>
      <trkpt lat="45.32758" lon="7.00766">
        <ele>1734.227912</ele>
        <time>2022-05-28T00:49:33.874Z</time>
      </trkpt>
      <trkpt lat="45.32718" lon="7.00682">
        <ele>1733.633568</ele>
        <time>2022-05-28T00:49:43.206Z</time>
      </trkpt>
      <trkpt lat="45.32632" lon="7.00512">
        <ele>1732.860287</ele>
        <time>2022-05-28T00:50:03.882Z</time>
      </trkpt>
      <trkpt lat="45.32617" lon="7.00481">
        <ele>1732.744946</ele>
        <time>2022-05-28T00:50:07.406Z</time>
      </trkpt>
      <trkpt lat="45.32585" lon="7.0042">
        <ele>1732.290739</ele>
        <time>2022-05-28T00:50:14.300Z</time>
      </trkpt>
      <trkpt lat="45.32516" lon="7.00328">
        <ele>1730.644395</ele>
        <time>2022-05-28T00:50:25.228Z</time>
      </trkpt>
      <trkpt lat="45.32457" lon="7.00269">
        <ele>1729.352273</ele>
        <time>2022-05-28T00:50:32.925Z</time>
      </trkpt>
      <trkpt lat="45.32354" lon="7.00174">
        <ele>1725.750206</ele>
        <time>2022-05-28T00:50:45.371Z</time>
      </trkpt>
      <trkpt lat="45.32342" lon="7.00154">
        <ele>1725.208174</ele>
        <time>2022-05-28T00:50:47.330Z</time>
      </trkpt>
      <trkpt lat="45.32347" lon="7.00133">
        <ele>1724.750602</ele>
        <time>2022-05-28T00:50:48.876Z</time>
      </trkpt>
      <trkpt lat="45.3234" lon="7.00026">
        <ele>1723.091012</ele>
        <time>2022-05-28T00:50:56.813Z</time>
      </trkpt>
      <trkpt lat="45.32303" lon="6.99932">
        <ele>1721.635026</ele>
        <time>2022-05-28T00:51:05.240Z</time>
      </trkpt>
      <trkpt lat="45.32301" lon="6.99929">
        <ele>1721.5797</ele>
        <time>2022-05-28T00:51:05.584Z</time>
      </trkpt>
      <trkpt lat="45.32295" lon="6.99915">
        <ele>1721.367307</ele>
        <time>2022-05-28T00:51:06.875Z</time>
      </trkpt>
      <trkpt lat="45.3229" lon="6.99902">
        <ele>1721.157069</ele>
        <time>2022-05-28T00:51:08.157Z</time>
      </trkpt>
      <trkpt lat="45.32269" lon="6.99854">
        <ele>1720.495698</ele>
        <time>2022-05-28T00:51:12.983Z</time>
      </trkpt>
      <trkpt lat="45.32245" lon="6.99795">
        <ele>1719.890415</ele>
        <time>2022-05-28T00:51:18.783Z</time>
      </trkpt>
      <trkpt lat="45.32206" lon="6.99675">
        <ele>1718.694602</ele>
        <time>2022-05-28T00:51:29.659Z</time>
      </trkpt>
      <trkpt lat="45.32179" lon="6.99619">
        <ele>1718.133985</ele>
        <time>2022-05-28T00:51:35.215Z</time>
      </trkpt>
      <trkpt lat="45.32176" lon="6.99605">
        <ele>1718.025718</ele>
        <time>2022-05-28T00:51:36.383Z</time>
      </trkpt>
      <trkpt lat="45.32173" lon="6.99582">
        <ele>1717.847408</ele>
        <time>2022-05-28T00:51:38.355Z</time>
      </trkpt>
      <trkpt lat="45.32168" lon="6.99552">
        <ele>1717.615097</ele>
        <time>2022-05-28T00:51:40.951Z</time>
      </trkpt>
      <trkpt lat="45.32149" lon="6.99508">
        <ele>1717.220405</ele>
        <time>2022-05-28T00:51:45.404Z</time>
      </trkpt>
      <trkpt lat="45.32123" lon="6.99446">
        <ele>1716.67189</ele>
        <time>2022-05-28T00:51:52.141Z</time>
      </trkpt>
      <trkpt lat="45.32119" lon="6.99441">
        <ele>1716.611498</ele>
        <time>2022-05-28T00:51:52.871Z</time>
      </trkpt>
      <trkpt lat="45.32086" lon="6.99399">
        <ele>1715.804646</ele>
        <time>2022-05-28T00:51:58.040Z</time>
      </trkpt>
      <trkpt lat="45.32084" lon="6.99396">
        <ele>1715.746181</ele>
        <time>2022-05-28T00:51:58.329Z</time>
      </trkpt>
      <trkpt lat="45.32076" lon="6.99385">
        <ele>1715.498128</ele>
        <time>2022-05-28T00:51:59.642Z</time>
      </trkpt>
      <trkpt lat="45.32071" lon="6.99378">
        <ele>1715.340362</ele>
        <time>2022-05-28T00:52:00.512Z</time>
      </trkpt>
      <trkpt lat="45.32057" lon="6.9935">
        <ele>1714.807363</ele>
        <time>2022-05-28T00:52:03.174Z</time>
      </trkpt>
      <trkpt lat="45.32042" lon="6.99366">
        <ele>1714.394456</ele>
        <time>2022-05-28T00:52:05.306Z</time>
      </trkpt>
      <trkpt lat="45.32023" lon="6.99381">
        <ele>1713.90936</ele>
        <time>2022-05-28T00:52:07.637Z</time>
      </trkpt>
      <trkpt lat="45.3202" lon="6.99373">
        <ele>1713.77982</ele>
        <time>2022-05-28T00:52:08.274Z</time>
      </trkpt>
      <trkpt lat="45.32019" lon="6.9937">
        <ele>1713.727164</ele>
        <time>2022-05-28T00:52:08.531Z</time>
      </trkpt>
      <trkpt lat="45.32008" lon="6.99335">
        <ele>1713.123717</ele>
        <time>2022-05-28T00:52:11.386Z</time>
      </trkpt>
      <trkpt lat="45.31985" lon="6.99266">
        <ele>1711.476458</ele>
        <time>2022-05-28T00:52:16.707Z</time>
      </trkpt>
      <trkpt lat="45.31984" lon="6.9926">
        <ele>1711.290288</ele>
        <time>2022-05-28T00:52:17.134Z</time>
      </trkpt>
      <trkpt lat="45.3197" lon="6.99212">
        <ele>1709.768705</ele>
        <time>2022-05-28T00:52:20.691Z</time>
      </trkpt>
      <trkpt lat="45.31966" lon="6.99197">
        <ele>1709.303161</ele>
        <time>2022-05-28T00:52:21.752Z</time>
      </trkpt>
      <trkpt lat="45.31962" lon="6.9918">
        <ele>1708.77974</ele>
        <time>2022-05-28T00:52:22.935Z</time>
      </trkpt>
      <trkpt lat="45.31961" lon="6.99176">
        <ele>1708.662662</ele>
        <time>2022-05-28T00:52:23.198Z</time>
      </trkpt>
      <trkpt lat="45.31959" lon="6.99169">
        <ele>1708.438131</ele>
        <time>2022-05-28T00:52:23.706Z</time>
      </trkpt>
      <trkpt lat="45.3194" lon="6.99101">
        <ele>1706.300864</ele>
        <time>2022-05-28T00:52:28.590Z</time>
      </trkpt>
      <trkpt lat="45.31935" lon="6.9908">
        <ele>1705.652149</ele>
        <time>2022-05-28T00:52:30.098Z</time>
      </trkpt>
      <trkpt lat="45.31922" lon="6.99036">
        <ele>1704.646776</ele>
        <time>2022-05-28T00:52:33.448Z</time>
      </trkpt>
      <trkpt lat="45.31904" lon="6.98979">
        <ele>1703.757187</ele>
        <time>2022-05-28T00:52:37.892Z</time>
      </trkpt>
      <trkpt lat="45.31889" lon="6.98935">
        <ele>1703.057598</ele>
        <time>2022-05-28T00:52:41.521Z</time>
      </trkpt>
      <trkpt lat="45.31817" lon="6.98708">
        <ele>1701.470485</ele>
        <time>2022-05-28T00:53:04.739Z</time>
      </trkpt>
      <trkpt lat="45.31773" lon="6.98613">
        <ele>1701.548265</ele>
        <time>2022-05-28T00:53:19.238Z</time>
      </trkpt>
      <trkpt lat="45.3177" lon="6.98608">
        <ele>1701.552028</ele>
        <time>2022-05-28T00:53:19.982Z</time>
      </trkpt>
      <trkpt lat="45.31768" lon="6.98604">
        <ele>1701.558458</ele>
        <time>2022-05-28T00:53:20.686Z</time>
      </trkpt>
      <trkpt lat="45.31735" lon="6.9855">
        <ele>1701.81904</ele>
        <time>2022-05-28T00:53:29.074Z</time>
      </trkpt>
      <trkpt lat="45.31689" lon="6.98495">
        <ele>1702.133445</ele>
        <time>2022-05-28T00:53:38.071Z</time>
      </trkpt>
      <trkpt lat="45.31596" lon="6.98403">
        <ele>1703.219526</ele>
        <time>2022-05-28T00:53:58.476Z</time>
      </trkpt>
      <trkpt lat="45.31555" lon="6.98363">
        <ele>1704.033423</ele>
        <time>2022-05-28T00:54:08.503Z</time>
      </trkpt>
      <trkpt lat="45.31522" lon="6.98335">
        <ele>1704.657633</ele>
        <time>2022-05-28T00:54:16.890Z</time>
      </trkpt>
      <trkpt lat="45.31482" lon="6.98302">
        <ele>1705.412568</ele>
        <time>2022-05-28T00:54:27.748Z</time>
      </trkpt>
      <trkpt lat="45.31414" lon="6.9826">
        <ele>1707.493478</ele>
        <time>2022-05-28T00:54:47.526Z</time>
      </trkpt>
      <trkpt lat="45.31325" lon="6.98216">
        <ele>1710.180008</ele>
        <time>2022-05-28T00:55:14.738Z</time>
      </trkpt>
      <trkpt lat="45.3118" lon="6.98131">
        <ele>1711.470322</ele>
        <time>2022-05-28T00:55:46.999Z</time>
      </trkpt>
      <trkpt lat="45.31141" lon="6.98091">
        <ele>1711.133398</ele>
        <time>2022-05-28T00:55:52.615Z</time>
      </trkpt>
      <trkpt lat="45.31064" lon="6.97998">
        <ele>1706.744653</ele>
        <time>2022-05-28T00:56:02.340Z</time>
      </trkpt>
      <trkpt lat="45.31014" lon="6.97915">
        <ele>1703.196966</ele>
        <time>2022-05-28T00:56:09.372Z</time>
      </trkpt>
      <trkpt lat="45.30931" lon="6.97781">
        <ele>1695.755103</ele>
        <time>2022-05-28T00:56:20.895Z</time>
      </trkpt>
      <trkpt lat="45.30867" lon="6.97666">
        <ele>1690.058857</ele>
        <time>2022-05-28T00:56:30.428Z</time>
      </trkpt>
      <trkpt lat="45.3086" lon="6.97651">
        <ele>1689.421655</ele>
        <time>2022-05-28T00:56:31.567Z</time>
      </trkpt>
      <trkpt lat="45.3085" lon="6.97624">
        <ele>1688.333756</ele>
        <time>2022-05-28T00:56:33.563Z</time>
      </trkpt>
      <trkpt lat="45.30847" lon="6.97599">
        <ele>1687.400466</ele>
        <time>2022-05-28T00:56:35.254Z</time>
      </trkpt>
      <trkpt lat="45.30849" lon="6.97554">
        <ele>1685.769293</ele>
        <time>2022-05-28T00:56:38.291Z</time>
      </trkpt>
      <trkpt lat="45.30863" lon="6.97492">
        <ele>1683.720092</ele>
        <time>2022-05-28T00:56:42.690Z</time>
      </trkpt>
      <trkpt lat="45.30888" lon="6.97393">
        <ele>1682.167239</ele>
        <time>2022-05-28T00:56:50.186Z</time>
      </trkpt>
      <trkpt lat="45.30898" lon="6.9732">
        <ele>1681.070294</ele>
        <time>2022-05-28T00:56:56.380Z</time>
      </trkpt>
      <trkpt lat="45.30897" lon="6.97268">
        <ele>1680.302863</ele>
        <time>2022-05-28T00:57:01.320Z</time>
      </trkpt>
      <trkpt lat="45.30885" lon="6.97209">
        <ele>1680.120381</ele>
        <time>2022-05-28T00:57:07.501Z</time>
      </trkpt>
      <trkpt lat="45.30787" lon="6.97019">
        <ele>1680.000024</ele>
        <time>2022-05-28T00:57:31.987Z</time>
      </trkpt>
      <trkpt lat="45.30708" lon="6.96878">
        <ele>1680.000024</ele>
        <time>2022-05-28T00:57:50.858Z</time>
      </trkpt>
      <trkpt lat="45.30684" lon="6.9682">
        <ele>1680.000024</ele>
        <time>2022-05-28T00:57:57.857Z</time>
      </trkpt>
      <trkpt lat="45.30661" lon="6.96751">
        <ele>1680.000024</ele>
        <time>2022-05-28T00:58:05.828Z</time>
      </trkpt>
      <trkpt lat="45.30645" lon="6.96679">
        <ele>1680.000024</ele>
        <time>2022-05-28T00:58:13.717Z</time>
      </trkpt>
      <trkpt lat="45.30632" lon="6.96502">
        <ele>1680.000024</ele>
        <time>2022-05-28T00:58:32.209Z</time>
      </trkpt>
      <trkpt lat="45.3063" lon="6.96357">
        <ele>1680.000024</ele>
        <time>2022-05-28T00:58:47.400Z</time>
      </trkpt>
      <trkpt lat="45.30635" lon="6.96248">
        <ele>1680.003871</ele>
        <time>2022-05-28T00:58:58.805Z</time>
      </trkpt>
      <trkpt lat="45.30646" lon="6.96094">
        <ele>1680.01011</ele>
        <time>2022-05-28T00:59:14.878Z</time>
      </trkpt>
      <trkpt lat="45.30645" lon="6.96048">
        <ele>1680.018814</ele>
        <time>2022-05-28T00:59:19.664Z</time>
      </trkpt>
      <trkpt lat="45.30621" lon="6.95904">
        <ele>1680.05053</ele>
        <time>2022-05-28T00:59:35.643Z</time>
      </trkpt>
      <trkpt lat="45.30597" lon="6.95814">
        <ele>1680.07383</ele>
        <time>2022-05-28T00:59:45.457Z</time>
      </trkpt>
      <trkpt lat="45.3057" lon="6.9576">
        <ele>1680.094409</ele>
        <time>2022-05-28T00:59:52.081Z</time>
      </trkpt>
      <trkpt lat="45.30545" lon="6.95722">
        <ele>1680.110573</ele>
        <time>2022-05-28T00:59:57.138Z</time>
      </trkpt>
      <trkpt lat="45.30503" lon="6.95687">
        <ele>1680.132079</ele>
        <time>2022-05-28T01:00:03.700Z</time>
      </trkpt>
      <trkpt lat="45.30353" lon="6.95605">
        <ele>1683.42817</ele>
        <time>2022-05-28T01:00:35.043Z</time>
      </trkpt>
      <trkpt lat="45.30318" lon="6.95568">
        <ele>1684.528371</ele>
        <time>2022-05-28T01:00:50.681Z</time>
      </trkpt>
      <trkpt lat="45.30296" lon="6.95515">
        <ele>1686.684439</ele>
        <time>2022-05-28T01:01:08.331Z</time>
      </trkpt>
      <trkpt lat="45.30262" lon="6.95349">
        <ele>1693.120451</ele>
        <time>2022-05-28T01:02:01.036Z</time>
      </trkpt>
      <trkpt lat="45.3024" lon="6.95302">
        <ele>1693.577183</ele>
        <time>2022-05-28T01:02:07.372Z</time>
      </trkpt>
      <trkpt lat="45.30219" lon="6.95289">
        <ele>1693.007471</ele>
        <time>2022-05-28T01:02:09.908Z</time>
      </trkpt>
      <trkpt lat="45.30156" lon="6.95299">
        <ele>1691.422415</ele>
        <time>2022-05-28T01:02:16.831Z</time>
      </trkpt>
      <trkpt lat="45.30134" lon="6.95305">
        <ele>1690.865721</ele>
        <time>2022-05-28T01:02:19.000Z</time>
      </trkpt>
      <trkpt lat="45.301" lon="6.95299">
        <ele>1690.00989</ele>
        <time>2022-05-28T01:02:22.138Z</time>
      </trkpt>
      <trkpt lat="45.30076" lon="6.95274">
        <ele>1689.383046</ele>
        <time>2022-05-28T01:02:24.811Z</time>
      </trkpt>
      <trkpt lat="45.30063" lon="6.95229">
        <ele>1688.82182</ele>
        <time>2022-05-28T01:02:27.862Z</time>
      </trkpt>
      <trkpt lat="45.30016" lon="6.95011">
        <ele>1689.877129</ele>
        <time>2022-05-28T01:02:49.165Z</time>
      </trkpt>
      <trkpt lat="45.30011" lon="6.94988">
        <ele>1691.750891</ele>
        <time>2022-05-28T01:02:57.864Z</time>
      </trkpt>
      <trkpt lat="45.30008" lon="6.9497">
        <ele>1693.26284</ele>
        <time>2022-05-28T01:03:06.387Z</time>
      </trkpt>
      <trkpt lat="45.30007" lon="6.94954">
        <ele>1694.545606</ele>
        <time>2022-05-28T01:03:13.586Z</time>
      </trkpt>
      <trkpt lat="45.30006" lon="6.94939">
        <ele>1695.702603</ele>
        <time>2022-05-28T01:03:20.711Z</time>
      </trkpt>
      <trkpt lat="45.30007" lon="6.94924">
        <ele>1696.920064</ele>
        <time>2022-05-28T01:03:29.004Z</time>
      </trkpt>
      <trkpt lat="45.3001" lon="6.94906">
        <ele>1698.356058</ele>
        <time>2022-05-28T01:03:38.512Z</time>
      </trkpt>
      <trkpt lat="45.30014" lon="6.94889">
        <ele>1699.814017</ele>
        <time>2022-05-28T01:03:47.883Z</time>
      </trkpt>
      <trkpt lat="45.30021" lon="6.94867">
        <ele>1701.705515</ele>
        <time>2022-05-28T01:04:01.757Z</time>
      </trkpt>
      <trkpt lat="45.30068" lon="6.94726">
        <ele>1712.88684</ele>
        <time>2022-05-28T01:05:29.293Z</time>
      </trkpt>
      <trkpt lat="45.30084" lon="6.94645">
        <ele>1718.415964</ele>
        <time>2022-05-28T01:06:04.892Z</time>
      </trkpt>
      <trkpt lat="45.30088" lon="6.94594">
        <ele>1721.834466</ele>
        <time>2022-05-28T01:06:18.159Z</time>
      </trkpt>
      <trkpt lat="45.3008" lon="6.94358">
        <ele>1717.804762</ele>
        <time>2022-05-28T01:06:34.486Z</time>
      </trkpt>
      <trkpt lat="45.30073" lon="6.94305">
        <ele>1716.145666</ele>
        <time>2022-05-28T01:06:37.829Z</time>
      </trkpt>
      <trkpt lat="45.30054" lon="6.94243">
        <ele>1712.684236</ele>
        <time>2022-05-28T01:06:41.992Z</time>
      </trkpt>
      <trkpt lat="45.30037" lon="6.94204">
        <ele>1710.312996</ele>
        <time>2022-05-28T01:06:44.828Z</time>
      </trkpt>
      <trkpt lat="45.29938" lon="6.94067">
        <ele>1702.219206</ele>
        <time>2022-05-28T01:06:57.289Z</time>
      </trkpt>
      <trkpt lat="45.29927" lon="6.94045">
        <ele>1701.728399</ele>
        <time>2022-05-28T01:06:59.196Z</time>
      </trkpt>
      <trkpt lat="45.2992" lon="6.94014">
        <ele>1701.128032</ele>
        <time>2022-05-28T01:07:01.603Z</time>
      </trkpt>
      <trkpt lat="45.2992" lon="6.9398">
        <ele>1700.518965</ele>
        <time>2022-05-28T01:07:04.232Z</time>
      </trkpt>
      <trkpt lat="45.29972" lon="6.93817">
        <ele>1696.561085</ele>
        <time>2022-05-28T01:07:23.859Z</time>
      </trkpt>
      <trkpt lat="45.2998" lon="6.93772">
        <ele>1695.286492</ele>
        <time>2022-05-28T01:07:27.320Z</time>
      </trkpt>
      <trkpt lat="45.29975" lon="6.93696">
        <ele>1693.183483</ele>
        <time>2022-05-28T01:07:32.341Z</time>
      </trkpt>
      <trkpt lat="45.29957" lon="6.93617">
        <ele>1688.996969</ele>
        <time>2022-05-28T01:07:37.770Z</time>
      </trkpt>
      <trkpt lat="45.29938" lon="6.93547">
        <ele>1681.471613</ele>
        <time>2022-05-28T01:07:42.158Z</time>
      </trkpt>
      <trkpt lat="45.29914" lon="6.93528">
        <ele>1677.488756</ele>
        <time>2022-05-28T01:07:44.452Z</time>
      </trkpt>
      <trkpt lat="45.29889" lon="6.93533">
        <ele>1673.913611</ele>
        <time>2022-05-28T01:07:46.513Z</time>
      </trkpt>
      <trkpt lat="45.29842" lon="6.93584">
        <ele>1665.534082</ele>
        <time>2022-05-28T01:07:51.365Z</time>
      </trkpt>
      <trkpt lat="45.29815" lon="6.9361">
        <ele>1661.871642</ele>
        <time>2022-05-28T01:07:54.035Z</time>
      </trkpt>
      <trkpt lat="45.29776" lon="6.9363">
        <ele>1657.141407</ele>
        <time>2022-05-28T01:07:57.618Z</time>
      </trkpt>
      <trkpt lat="45.29732" lon="6.93676">
        <ele>1651.030947</ele>
        <time>2022-05-28T01:08:02.228Z</time>
      </trkpt>
      <trkpt lat="45.29706" lon="6.93674">
        <ele>1648.116181</ele>
        <time>2022-05-28T01:08:04.444Z</time>
      </trkpt>
      <trkpt lat="45.29695" lon="6.93664">
        <ele>1646.652757</ele>
        <time>2022-05-28T01:08:05.555Z</time>
      </trkpt>
      <trkpt lat="45.29687" lon="6.93645">
        <ele>1645.470507</ele>
        <time>2022-05-28T01:08:06.906Z</time>
      </trkpt>
      <trkpt lat="45.29687" lon="6.93609">
        <ele>1644.979138</ele>
        <time>2022-05-28T01:08:10.519Z</time>
      </trkpt>
      <trkpt lat="45.29697" lon="6.93591">
        <ele>1644.65873</ele>
        <time>2022-05-28T01:08:12.816Z</time>
      </trkpt>
      <trkpt lat="45.29759" lon="6.9356">
        <ele>1643.406745</ele>
        <time>2022-05-28T01:08:21.995Z</time>
      </trkpt>
      <trkpt lat="45.29784" lon="6.93526">
        <ele>1642.746562</ele>
        <time>2022-05-28T01:08:26.668Z</time>
      </trkpt>
      <trkpt lat="45.29792" lon="6.93489">
        <ele>1642.215345</ele>
        <time>2022-05-28T01:08:30.102Z</time>
      </trkpt>
      <trkpt lat="45.29799" lon="6.93413">
        <ele>1638.399309</ele>
        <time>2022-05-28T01:08:36.099Z</time>
      </trkpt>
      <trkpt lat="45.29793" lon="6.9338">
        <ele>1636.604114</ele>
        <time>2022-05-28T01:08:38.354Z</time>
      </trkpt>
      <trkpt lat="45.29778" lon="6.9335">
        <ele>1634.662966</ele>
        <time>2022-05-28T01:08:40.771Z</time>
      </trkpt>
      <trkpt lat="45.29755" lon="6.93328">
        <ele>1632.576783</ele>
        <time>2022-05-28T01:08:43.185Z</time>
      </trkpt>
      <trkpt lat="45.2973" lon="6.93321">
        <ele>1630.628868</ele>
        <time>2022-05-28T01:08:45.343Z</time>
      </trkpt>
      <trkpt lat="45.29693" lon="6.93332">
        <ele>1626.648151</ele>
        <time>2022-05-28T01:08:48.491Z</time>
      </trkpt>
      <trkpt lat="45.29641" lon="6.93405">
        <ele>1612.579924</ele>
        <time>2022-05-28T01:08:54.526Z</time>
      </trkpt>
      <trkpt lat="45.29625" lon="6.93426">
        <ele>1608.436569</ele>
        <time>2022-05-28T01:08:56.279Z</time>
      </trkpt>
      <trkpt lat="45.29605" lon="6.93437">
        <ele>1604.193952</ele>
        <time>2022-05-28T01:08:58.095Z</time>
      </trkpt>
      <trkpt lat="45.29578" lon="6.93435">
        <ele>1599.106435</ele>
        <time>2022-05-28T01:09:00.249Z</time>
      </trkpt>
      <trkpt lat="45.29566" lon="6.93427">
        <ele>1596.554309</ele>
        <time>2022-05-28T01:09:01.339Z</time>
      </trkpt>
      <trkpt lat="45.29541" lon="6.93407">
        <ele>1591.103772</ele>
        <time>2022-05-28T01:09:03.691Z</time>
      </trkpt>
      <trkpt lat="45.29498" lon="6.93361">
        <ele>1581.087116</ele>
        <time>2022-05-28T01:09:08.110Z</time>
      </trkpt>
      <trkpt lat="45.29454" lon="6.9329">
        <ele>1568.740609</ele>
        <time>2022-05-28T01:09:13.562Z</time>
      </trkpt>
      <trkpt lat="45.29388" lon="6.93132">
        <ele>1558.151409</ele>
        <time>2022-05-28T01:09:24.690Z</time>
      </trkpt>
      <trkpt lat="45.29371" lon="6.93046">
        <ele>1556.436543</ele>
        <time>2022-05-28T01:09:37.804Z</time>
      </trkpt>
      <trkpt lat="45.29366" lon="6.92972">
        <ele>1556.680641</ele>
        <time>2022-05-28T01:10:02.839Z</time>
      </trkpt>
      <trkpt lat="45.29369" lon="6.92946">
        <ele>1557.725797</ele>
        <time>2022-05-28T01:10:10.683Z</time>
      </trkpt>
      <trkpt lat="45.29383" lon="6.92903">
        <ele>1559.598926</ele>
        <time>2022-05-28T01:10:25.936Z</time>
      </trkpt>
      <trkpt lat="45.29448" lon="6.92802">
        <ele>1564.977275</ele>
        <time>2022-05-28T01:11:03.121Z</time>
      </trkpt>
      <trkpt lat="45.29464" lon="6.92759">
        <ele>1564.67269</ele>
        <time>2022-05-28T01:11:11.214Z</time>
      </trkpt>
      <trkpt lat="45.29484" lon="6.92728">
        <ele>1563.410696</ele>
        <time>2022-05-28T01:11:16.289Z</time>
      </trkpt>
      <trkpt lat="45.29486" lon="6.92708">
        <ele>1562.806655</ele>
        <time>2022-05-28T01:11:18.183Z</time>
      </trkpt>
      <trkpt lat="45.2947" lon="6.92644">
        <ele>1560.798661</ele>
        <time>2022-05-28T01:11:22.762Z</time>
      </trkpt>
      <trkpt lat="45.29454" lon="6.92642">
        <ele>1560.106193</ele>
        <time>2022-05-28T01:11:24.197Z</time>
      </trkpt>
      <trkpt lat="45.29428" lon="6.92656">
        <ele>1558.931343</ele>
        <time>2022-05-28T01:11:26.536Z</time>
      </trkpt>
      <trkpt lat="45.29417" lon="6.92652">
        <ele>1558.460477</ele>
        <time>2022-05-28T01:11:27.490Z</time>
      </trkpt>
      <trkpt lat="45.29409" lon="6.92639">
        <ele>1557.844623</ele>
        <time>2022-05-28T01:11:28.521Z</time>
      </trkpt>
      <trkpt lat="45.29408" lon="6.92611">
        <ele>1555.487456</ele>
        <time>2022-05-28T01:11:30.278Z</time>
      </trkpt>
      <trkpt lat="45.29421" lon="6.9255">
        <ele>1550.247175</ele>
        <time>2022-05-28T01:11:34.090Z</time>
      </trkpt>
      <trkpt lat="45.29415" lon="6.92482">
        <ele>1544.630561</ele>
        <time>2022-05-28T01:11:38.128Z</time>
      </trkpt>
      <trkpt lat="45.29418" lon="6.92444">
        <ele>1541.502972</ele>
        <time>2022-05-28T01:11:40.397Z</time>
      </trkpt>
      <trkpt lat="45.29413" lon="6.92436">
        <ele>1540.577055</ele>
        <time>2022-05-28T01:11:41.056Z</time>
      </trkpt>
      <trkpt lat="45.2937" lon="6.92441">
        <ele>1535.651234</ele>
        <time>2022-05-28T01:11:44.721Z</time>
      </trkpt>
      <trkpt lat="45.29346" lon="6.92417">
        <ele>1532.463208</ele>
        <time>2022-05-28T01:11:47.227Z</time>
      </trkpt>
      <trkpt lat="45.29336" lon="6.92376">
        <ele>1529.153504</ele>
        <time>2022-05-28T01:11:49.829Z</time>
      </trkpt>
      <trkpt lat="45.29368" lon="6.92281">
        <ele>1521.210506</ele>
        <time>2022-05-28T01:11:56.177Z</time>
      </trkpt>
      <trkpt lat="45.29369" lon="6.92259">
        <ele>1519.550648</ele>
        <time>2022-05-28T01:11:57.510Z</time>
      </trkpt>
      <trkpt lat="45.29363" lon="6.92247">
        <ele>1518.452424</ele>
        <time>2022-05-28T01:11:58.405Z</time>
      </trkpt>
      <trkpt lat="45.2933" lon="6.92239">
        <ele>1514.706071</ele>
        <time>2022-05-28T01:12:01.337Z</time>
      </trkpt>
      <trkpt lat="45.29321" lon="6.92214">
        <ele>1512.565086</ele>
        <time>2022-05-28T01:12:02.970Z</time>
      </trkpt>
      <trkpt lat="45.29319" lon="6.92199">
        <ele>1511.347674</ele>
        <time>2022-05-28T01:12:03.941Z</time>
      </trkpt>
      <trkpt lat="45.29305" lon="6.92136">
        <ele>1506.121146</ele>
        <time>2022-05-28T01:12:07.955Z</time>
      </trkpt>
      <trkpt lat="45.29294" lon="6.92113">
        <ele>1503.944833</ele>
        <time>2022-05-28T01:12:09.590Z</time>
      </trkpt>
      <trkpt lat="45.29274" lon="6.92074">
        <ele>1500.203691</ele>
        <time>2022-05-28T01:12:12.412Z</time>
      </trkpt>
      <trkpt lat="45.29259" lon="6.92048">
        <ele>1497.544244</ele>
        <time>2022-05-28T01:12:14.428Z</time>
      </trkpt>
      <trkpt lat="45.29242" lon="6.92023">
        <ele>1494.888615</ele>
        <time>2022-05-28T01:12:16.519Z</time>
      </trkpt>
      <trkpt lat="45.29213" lon="6.91988">
        <ele>1490.90835</ele>
        <time>2022-05-28T01:12:19.706Z</time>
      </trkpt>
      <trkpt lat="45.29174" lon="6.9192">
        <ele>1484.313004</ele>
        <time>2022-05-28T01:12:25.004Z</time>
      </trkpt>
      <trkpt lat="45.29153" lon="6.9183">
        <ele>1477.735305</ele>
        <time>2022-05-28T01:12:30.810Z</time>
      </trkpt>
      <trkpt lat="45.29149" lon="6.91801">
        <ele>1476.532297</ele>
        <time>2022-05-28T01:12:32.574Z</time>
      </trkpt>
      <trkpt lat="45.29151" lon="6.91763">
        <ele>1474.908607</ele>
        <time>2022-05-28T01:12:34.969Z</time>
      </trkpt>
      <trkpt lat="45.29149" lon="6.91705">
        <ele>1472.453422</ele>
        <time>2022-05-28T01:12:38.655Z</time>
      </trkpt>
      <trkpt lat="45.2914" lon="6.91627">
        <ele>1469.123313</ele>
        <time>2022-05-28T01:12:44.005Z</time>
      </trkpt>
      <trkpt lat="45.29142" lon="6.91582">
        <ele>1467.622712</ele>
        <time>2022-05-28T01:12:47.386Z</time>
      </trkpt>
      <trkpt lat="45.29141" lon="6.91576">
        <ele>1467.591665</ele>
        <time>2022-05-28T01:12:47.836Z</time>
      </trkpt>
      <trkpt lat="45.29124" lon="6.91515">
        <ele>1467.254975</ele>
        <time>2022-05-28T01:12:53.134Z</time>
      </trkpt>
      <trkpt lat="45.29114" lon="6.91491">
        <ele>1467.110773</ele>
        <time>2022-05-28T01:12:55.622Z</time>
      </trkpt>
      <trkpt lat="45.29079" lon="6.91435">
        <ele>1466.726051</ele>
        <time>2022-05-28T01:13:02.484Z</time>
      </trkpt>
      <trkpt lat="45.29051" lon="6.9139">
        <ele>1466.412524</ele>
        <time>2022-05-28T01:13:09.771Z</time>
      </trkpt>
      <trkpt lat="45.29039" lon="6.91354">
        <ele>1466.4415</ele>
        <time>2022-05-28T01:13:15.095Z</time>
      </trkpt>
      <trkpt lat="45.29032" lon="6.91321">
        <ele>1466.541677</ele>
        <time>2022-05-28T01:13:20.389Z</time>
      </trkpt>
      <trkpt lat="45.29035" lon="6.91278">
        <ele>1466.666314</ele>
        <time>2022-05-28T01:13:26.588Z</time>
      </trkpt>
      <trkpt lat="45.29039" lon="6.91268">
        <ele>1466.701211</ele>
        <time>2022-05-28T01:13:27.791Z</time>
      </trkpt>
      <trkpt lat="45.29041" lon="6.91189">
        <ele>1466.931277</ele>
        <time>2022-05-28T01:13:36.289Z</time>
      </trkpt>
      <trkpt lat="45.2904" lon="6.91167">
        <ele>1466.994809</ele>
        <time>2022-05-28T01:13:38.268Z</time>
      </trkpt>
      <trkpt lat="45.29039" lon="6.91125">
        <ele>1467.06191</ele>
        <time>2022-05-28T01:13:42.495Z</time>
      </trkpt>
      <trkpt lat="45.2904" lon="6.90989">
        <ele>1466.161654</ele>
        <time>2022-05-28T01:13:55.598Z</time>
      </trkpt>
      <trkpt lat="45.29039" lon="6.90882">
        <ele>1465.454256</ele>
        <time>2022-05-28T01:14:04.460Z</time>
      </trkpt>
      <trkpt lat="45.29038" lon="6.90791">
        <ele>1463.372624</ele>
        <time>2022-05-28T01:14:11.200Z</time>
      </trkpt>
      <trkpt lat="45.29036" lon="6.90691">
        <ele>1460.923751</ele>
        <time>2022-05-28T01:14:18.212Z</time>
      </trkpt>
      <trkpt lat="45.29031" lon="6.90664">
        <ele>1460.250986</ele>
        <time>2022-05-28T01:14:20.075Z</time>
      </trkpt>
      <trkpt lat="45.29008" lon="6.90622">
        <ele>1458.901669</ele>
        <time>2022-05-28T01:14:23.619Z</time>
      </trkpt>
      <trkpt lat="45.28982" lon="6.90582">
        <ele>1457.258928</ele>
        <time>2022-05-28T01:14:27.246Z</time>
      </trkpt>
      <trkpt lat="45.28952" lon="6.90532">
        <ele>1455.273766</ele>
        <time>2022-05-28T01:14:31.686Z</time>
      </trkpt>
      <trkpt lat="45.28926" lon="6.90478">
        <ele>1453.287016</ele>
        <time>2022-05-28T01:14:36.132Z</time>
      </trkpt>
      <trkpt lat="45.28909" lon="6.90437">
        <ele>1451.826436</ele>
        <time>2022-05-28T01:14:39.419Z</time>
      </trkpt>
      <trkpt lat="45.28873" lon="6.90351">
        <ele>1449.487743</ele>
        <time>2022-05-28T01:14:46.420Z</time>
      </trkpt>
      <trkpt lat="45.28839" lon="6.90269">
        <ele>1447.353496</ele>
        <time>2022-05-28T01:14:53.475Z</time>
      </trkpt>
      <trkpt lat="45.28832" lon="6.90242">
        <ele>1446.706429</ele>
        <time>2022-05-28T01:14:55.643Z</time>
      </trkpt>
      <trkpt lat="45.28832" lon="6.90241">
        <ele>1446.686075</ele>
        <time>2022-05-28T01:14:55.704Z</time>
      </trkpt>
      <trkpt lat="45.28832" lon="6.90225">
        <ele>1446.31526</ele>
        <time>2022-05-28T01:14:56.850Z</time>
      </trkpt>
      <trkpt lat="45.28821" lon="6.90218">
        <ele>1445.94976</ele>
        <time>2022-05-28T01:14:58.067Z</time>
      </trkpt>
      <trkpt lat="45.28804" lon="6.90209">
        <ele>1445.236048</ele>
        <time>2022-05-28T01:14:59.920Z</time>
      </trkpt>
      <trkpt lat="45.28782" lon="6.90195">
        <ele>1444.203273</ele>
        <time>2022-05-28T01:15:02.336Z</time>
      </trkpt>
      <trkpt lat="45.28756" lon="6.90157">
        <ele>1442.638493</ele>
        <time>2022-05-28T01:15:05.896Z</time>
      </trkpt>
      <trkpt lat="45.28728" lon="6.90069">
        <ele>1439.741945</ele>
        <time>2022-05-28T01:15:12.388Z</time>
      </trkpt>
      <trkpt lat="45.28697" lon="6.89942">
        <ele>1435.424135</ele>
        <time>2022-05-28T01:15:21.430Z</time>
      </trkpt>
      <trkpt lat="45.28675" lon="6.89876">
        <ele>1433.004744</ele>
        <time>2022-05-28T01:15:26.209Z</time>
      </trkpt>
      <trkpt lat="45.28641" lon="6.89799">
        <ele>1429.920235</ele>
        <time>2022-05-28T01:15:32.359Z</time>
      </trkpt>
      <trkpt lat="45.28629" lon="6.89752">
        <ele>1428.14854</ele>
        <time>2022-05-28T01:15:35.701Z</time>
      </trkpt>
      <trkpt lat="45.28625" lon="6.89717">
        <ele>1426.844902</ele>
        <time>2022-05-28T01:15:38.106Z</time>
      </trkpt>
      <trkpt lat="45.28628" lon="6.89554">
        <ele>1420.91557</ele>
        <time>2022-05-28T01:15:48.859Z</time>
      </trkpt>
      <trkpt lat="45.28633" lon="6.89424">
        <ele>1416.164264</ele>
        <time>2022-05-28T01:15:57.254Z</time>
      </trkpt>
      <trkpt lat="45.28635" lon="6.89372">
        <ele>1414.258446</ele>
        <time>2022-05-28T01:16:00.635Z</time>
      </trkpt>
      <trkpt lat="45.28618" lon="6.8905">
        <ele>1405.57109</ele>
        <time>2022-05-28T01:16:22.832Z</time>
      </trkpt>
      <trkpt lat="45.28612" lon="6.8896">
        <ele>1404.989734</ele>
        <time>2022-05-28T01:16:31.384Z</time>
      </trkpt>
      <trkpt lat="45.28604" lon="6.88834">
        <ele>1405.031507</ele>
        <time>2022-05-28T01:16:46.828Z</time>
      </trkpt>
      <trkpt lat="45.28601" lon="6.88801">
        <ele>1405.042299</ele>
        <time>2022-05-28T01:16:51.480Z</time>
      </trkpt>
      <trkpt lat="45.28594" lon="6.88723">
        <ele>1404.818314</ele>
        <time>2022-05-28T01:17:00.987Z</time>
      </trkpt>
      <trkpt lat="45.28594" lon="6.88713">
        <ele>1404.769455</ele>
        <time>2022-05-28T01:17:02.059Z</time>
      </trkpt>
      <trkpt lat="45.28593" lon="6.88711">
        <ele>1404.761894</ele>
        <time>2022-05-28T01:17:02.217Z</time>
      </trkpt>
      <trkpt lat="45.28579" lon="6.88565">
        <ele>1404.03138</ele>
        <time>2022-05-28T01:17:15.147Z</time>
      </trkpt>
      <trkpt lat="45.28578" lon="6.88553">
        <ele>1403.971844</ele>
        <time>2022-05-28T01:17:16.100Z</time>
      </trkpt>
      <trkpt lat="45.28571" lon="6.88485">
        <ele>1403.355907</ele>
        <time>2022-05-28T01:17:21.582Z</time>
      </trkpt>
      <trkpt lat="45.28567" lon="6.88443">
        <ele>1402.787715</ele>
        <time>2022-05-28T01:17:24.849Z</time>
      </trkpt>
      <trkpt lat="45.28568" lon="6.88418">
        <ele>1402.452489</ele>
        <time>2022-05-28T01:17:26.761Z</time>
      </trkpt>
      <trkpt lat="45.28572" lon="6.88408">
        <ele>1402.307264</ele>
        <time>2022-05-28T01:17:27.576Z</time>
      </trkpt>
      <trkpt lat="45.28569" lon="6.88399">
        <ele>1402.177301</ele>
        <time>2022-05-28T01:17:28.310Z</time>
      </trkpt>
      <trkpt lat="45.28566" lon="6.88396">
        <ele>1402.098574</ele>
        <time>2022-05-28T01:17:28.769Z</time>
      </trkpt>
      <trkpt lat="45.28561" lon="6.8838">
        <ele>1401.856512</ele>
        <time>2022-05-28T01:17:30.146Z</time>
      </trkpt>
      <trkpt lat="45.28555" lon="6.88313">
        <ele>1400.952483</ele>
        <time>2022-05-28T01:17:35.242Z</time>
      </trkpt>
      <trkpt lat="45.28556" lon="6.88268">
        <ele>1400.354537</ele>
        <time>2022-05-28T01:17:38.726Z</time>
      </trkpt>
      <trkpt lat="45.28556" lon="6.88236">
        <ele>1400.033547</ele>
        <time>2022-05-28T01:17:41.278Z</time>
      </trkpt>
      <trkpt lat="45.28553" lon="6.88201">
        <ele>1399.677087</ele>
        <time>2022-05-28T01:17:44.214Z</time>
      </trkpt>
      <trkpt lat="45.28551" lon="6.88188">
        <ele>1399.545133</ele>
        <time>2022-05-28T01:17:45.342Z</time>
      </trkpt>
      <trkpt lat="45.28549" lon="6.88163">
        <ele>1399.292163</ele>
        <time>2022-05-28T01:17:47.524Z</time>
      </trkpt>
      <trkpt lat="45.28548" lon="6.88155">
        <ele>1399.21096</ele>
        <time>2022-05-28T01:17:48.201Z</time>
      </trkpt>
      <trkpt lat="45.28547" lon="6.88148">
        <ele>1399.131747</ele>
        <time>2022-05-28T01:17:48.856Z</time>
      </trkpt>
      <trkpt lat="45.28547" lon="6.88144">
        <ele>1399.096314</ele>
        <time>2022-05-28T01:17:49.142Z</time>
      </trkpt>
      <trkpt lat="45.28542" lon="6.88094">
        <ele>1398.590565</ele>
        <time>2022-05-28T01:17:53.297Z</time>
      </trkpt>
      <trkpt lat="45.2854" lon="6.88077">
        <ele>1398.420081</ele>
        <time>2022-05-28T01:17:54.667Z</time>
      </trkpt>
      <trkpt lat="45.28539" lon="6.88064">
        <ele>1398.28028</ele>
        <time>2022-05-28T01:17:55.794Z</time>
      </trkpt>
      <trkpt lat="45.28537" lon="6.88052">
        <ele>1398.165214</ele>
        <time>2022-05-28T01:17:56.712Z</time>
      </trkpt>
      <trkpt lat="45.28536" lon="6.88035">
        <ele>1397.989864</ele>
        <time>2022-05-28T01:17:58.123Z</time>
      </trkpt>
      <trkpt lat="45.28535" lon="6.88028">
        <ele>1397.918998</ele>
        <time>2022-05-28T01:17:58.701Z</time>
      </trkpt>
      <trkpt lat="45.28534" lon="6.88016">
        <ele>1397.799379</ele>
        <time>2022-05-28T01:17:59.679Z</time>
      </trkpt>
      <trkpt lat="45.28532" lon="6.87982">
        <ele>1397.3754</ele>
        <time>2022-05-28T01:18:02.528Z</time>
      </trkpt>
      <trkpt lat="45.28529" lon="6.87944">
        <ele>1396.913838</ele>
        <time>2022-05-28T01:18:05.643Z</time>
      </trkpt>
      <trkpt lat="45.28528" lon="6.87927">
        <ele>1396.706324</ele>
        <time>2022-05-28T01:18:07.037Z</time>
      </trkpt>
      <trkpt lat="45.28525" lon="6.87846">
        <ele>1395.707085</ele>
        <time>2022-05-28T01:18:13.688Z</time>
      </trkpt>
      <trkpt lat="45.2852" lon="6.87762">
        <ele>1394.675124</ele>
        <time>2022-05-28T01:18:20.102Z</time>
      </trkpt>
      <trkpt lat="45.2852" lon="6.87751">
        <ele>1394.513331</ele>
        <time>2022-05-28T01:18:20.908Z</time>
      </trkpt>
      <trkpt lat="45.2852" lon="6.87743">
        <ele>1394.385425</ele>
        <time>2022-05-28T01:18:21.515Z</time>
      </trkpt>
      <trkpt lat="45.2852" lon="6.8772">
        <ele>1394.021932</ele>
        <time>2022-05-28T01:18:23.227Z</time>
      </trkpt>
      <trkpt lat="45.2852" lon="6.87699">
        <ele>1393.69753</ele>
        <time>2022-05-28T01:18:24.744Z</time>
      </trkpt>
      <trkpt lat="45.2852" lon="6.87688">
        <ele>1393.52873</ele>
        <time>2022-05-28T01:18:25.538Z</time>
      </trkpt>
      <trkpt lat="45.2852" lon="6.87681">
        <ele>1393.420754</ele>
        <time>2022-05-28T01:18:26.054Z</time>
      </trkpt>
      <trkpt lat="45.28521" lon="6.87679">
        <ele>1393.387928</ele>
        <time>2022-05-28T01:18:26.205Z</time>
      </trkpt>
      <trkpt lat="45.28521" lon="6.87677">
        <ele>1393.362876</ele>
        <time>2022-05-28T01:18:26.326Z</time>
      </trkpt>
      <trkpt lat="45.28521" lon="6.8767">
        <ele>1393.240242</ele>
        <time>2022-05-28T01:18:26.914Z</time>
      </trkpt>
      <trkpt lat="45.28522" lon="6.87667">
        <ele>1393.19607</ele>
        <time>2022-05-28T01:18:27.119Z</time>
      </trkpt>
      <trkpt lat="45.28523" lon="6.87656">
        <ele>1393.03082</ele>
        <time>2022-05-28T01:18:27.905Z</time>
      </trkpt>
      <trkpt lat="45.28523" lon="6.8765">
        <ele>1392.929807</ele>
        <time>2022-05-28T01:18:28.386Z</time>
      </trkpt>
      <trkpt lat="45.28524" lon="6.87648">
        <ele>1392.897915</ele>
        <time>2022-05-28T01:18:28.546Z</time>
      </trkpt>
      <trkpt lat="45.28526" lon="6.87629">
        <ele>1392.592249</ele>
        <time>2022-05-28T01:18:30.038Z</time>
      </trkpt>
      <trkpt lat="45.28527" lon="6.87621">
        <ele>1392.476664</ele>
        <time>2022-05-28T01:18:30.607Z</time>
      </trkpt>
      <trkpt lat="45.28529" lon="6.87603">
        <ele>1392.188277</ele>
        <time>2022-05-28T01:18:32.015Z</time>
      </trkpt>
      <trkpt lat="45.28531" lon="6.87588">
        <ele>1391.952113</ele>
        <time>2022-05-28T01:18:33.204Z</time>
      </trkpt>
      <trkpt lat="45.28535" lon="6.8755">
        <ele>1391.354416</ele>
        <time>2022-05-28T01:18:36.158Z</time>
      </trkpt>
      <trkpt lat="45.28533" lon="6.87516">
        <ele>1390.808629</ele>
        <time>2022-05-28T01:18:38.883Z</time>
      </trkpt>
      <trkpt lat="45.28532" lon="6.875">
        <ele>1390.620363</ele>
        <time>2022-05-28T01:18:40.092Z</time>
      </trkpt>
      <trkpt lat="45.2853" lon="6.8748">
        <ele>1390.489475</ele>
        <time>2022-05-28T01:18:41.626Z</time>
      </trkpt>
      <trkpt lat="45.2853" lon="6.87474">
        <ele>1390.447835</ele>
        <time>2022-05-28T01:18:42.105Z</time>
      </trkpt>
      <trkpt lat="45.2853" lon="6.87473">
        <ele>1390.437781</ele>
        <time>2022-05-28T01:18:42.228Z</time>
      </trkpt>
      <trkpt lat="45.28527" lon="6.87451">
        <ele>1390.290833</ele>
        <time>2022-05-28T01:18:43.899Z</time>
      </trkpt>
      <trkpt lat="45.28514" lon="6.87379">
        <ele>1389.79291</ele>
        <time>2022-05-28T01:18:49.664Z</time>
      </trkpt>
      <trkpt lat="45.28489" lon="6.8727">
        <ele>1389.027424</ele>
        <time>2022-05-28T01:19:00.486Z</time>
      </trkpt>
      <trkpt lat="45.2848" lon="6.87243">
        <ele>1389.120454</ele>
        <time>2022-05-28T01:19:04.687Z</time>
      </trkpt>
      <trkpt lat="45.28473" lon="6.87217">
        <ele>1389.362583</ele>
        <time>2022-05-28T01:19:08.842Z</time>
      </trkpt>
      <trkpt lat="45.28456" lon="6.87164">
        <ele>1389.866108</ele>
        <time>2022-05-28T01:19:17.304Z</time>
      </trkpt>
      <trkpt lat="45.28447" lon="6.87122">
        <ele>1390.237649</ele>
        <time>2022-05-28T01:19:23.510Z</time>
      </trkpt>
      <trkpt lat="45.28444" lon="6.87111">
        <ele>1390.347544</ele>
        <time>2022-05-28T01:19:25.418Z</time>
      </trkpt>
      <trkpt lat="45.28426" lon="6.8702">
        <ele>1391.15885</ele>
        <time>2022-05-28T01:19:39.160Z</time>
      </trkpt>
      <trkpt lat="45.28421" lon="6.86929">
        <ele>1390.983044</ele>
        <time>2022-05-28T01:19:52.277Z</time>
      </trkpt>
      <trkpt lat="45.28426" lon="6.86861">
        <ele>1390.847178</ele>
        <time>2022-05-28T01:19:59.805Z</time>
      </trkpt>
      <trkpt lat="45.28475" lon="6.86491">
        <ele>1386.65559</ele>
        <time>2022-05-28T01:20:28.392Z</time>
      </trkpt>
      <trkpt lat="45.285" lon="6.86291">
        <ele>1384.983747</ele>
        <time>2022-05-28T01:20:45.827Z</time>
      </trkpt>
      <trkpt lat="45.28558" lon="6.86108">
        <ele>1383.69795</ele>
        <time>2022-05-28T01:21:04.114Z</time>
      </trkpt>
      <trkpt lat="45.28577" lon="6.85987">
        <ele>1382.701644</ele>
        <time>2022-05-28T01:21:14.458Z</time>
      </trkpt>
      <trkpt lat="45.28578" lon="6.85618">
        <ele>1378.138535</ele>
        <time>2022-05-28T01:21:43.467Z</time>
      </trkpt>
      <trkpt lat="45.28605" lon="6.85465">
        <ele>1376.267057</ele>
        <time>2022-05-28T01:21:55.694Z</time>
      </trkpt>
      <trkpt lat="45.28613" lon="6.85362">
        <ele>1375.265471</ele>
        <time>2022-05-28T01:22:03.926Z</time>
      </trkpt>
      <trkpt lat="45.286" lon="6.85035">
        <ele>1373.400587</ele>
        <time>2022-05-28T01:22:33.532Z</time>
      </trkpt>
      <trkpt lat="45.28588" lon="6.84871">
        <ele>1373.322164</ele>
        <time>2022-05-28T01:22:50.605Z</time>
      </trkpt>
      <trkpt lat="45.28589" lon="6.84818">
        <ele>1373.329016</ele>
        <time>2022-05-28T01:22:55.976Z</time>
      </trkpt>
      <trkpt lat="45.28611" lon="6.84617">
        <ele>1373.855314</ele>
        <time>2022-05-28T01:23:18.804Z</time>
      </trkpt>
      <trkpt lat="45.28612" lon="6.84568">
        <ele>1374.030288</ele>
        <time>2022-05-28T01:23:25.106Z</time>
      </trkpt>
      <trkpt lat="45.28606" lon="6.84496">
        <ele>1374.230655</ele>
        <time>2022-05-28T01:23:35.462Z</time>
      </trkpt>
      <trkpt lat="45.28584" lon="6.84319">
        <ele>1373.413084</ele>
        <time>2022-05-28T01:23:53.806Z</time>
      </trkpt>
      <trkpt lat="45.28575" lon="6.84251">
        <ele>1373.086123</ele>
        <time>2022-05-28T01:23:59.039Z</time>
      </trkpt>
      <trkpt lat="45.28558" lon="6.84102">
        <ele>1370.434397</ele>
        <time>2022-05-28T01:24:09.850Z</time>
      </trkpt>
      <trkpt lat="45.28545" lon="6.83888">
        <ele>1368.496279</ele>
        <time>2022-05-28T01:24:26.587Z</time>
      </trkpt>
      <trkpt lat="45.28525" lon="6.83779">
        <ele>1368.361557</ele>
        <time>2022-05-28T01:24:42.332Z</time>
      </trkpt>
      <trkpt lat="45.28513" lon="6.8364">
        <ele>1368.33126</ele>
        <time>2022-05-28T01:25:01.350Z</time>
      </trkpt>
      <trkpt lat="45.28505" lon="6.83593">
        <ele>1368.334323</ele>
        <time>2022-05-28T01:25:07.016Z</time>
      </trkpt>
      <trkpt lat="45.28417" lon="6.83273">
        <ele>1365.940421</ele>
        <time>2022-05-28T01:25:34.851Z</time>
      </trkpt>
      <trkpt lat="45.28383" lon="6.83112">
        <ele>1364.640611</ele>
        <time>2022-05-28T01:25:49.602Z</time>
      </trkpt>
      <trkpt lat="45.28335" lon="6.82971">
        <ele>1363.087543</ele>
        <time>2022-05-28T01:26:03.065Z</time>
      </trkpt>
      <trkpt lat="45.28297" lon="6.82823">
        <ele>1360.887337</ele>
        <time>2022-05-28T01:26:14.162Z</time>
      </trkpt>
      <trkpt lat="45.28219" lon="6.82686">
        <ele>1365.949166</ele>
        <time>2022-05-28T01:26:34.623Z</time>
      </trkpt>
      <trkpt lat="45.28097" lon="6.82351">
        <ele>1389.907934</ele>
        <time>2022-05-28T01:29:27.558Z</time>
      </trkpt>
      <trkpt lat="45.28036" lon="6.82195">
        <ele>1382.151116</ele>
        <time>2022-05-28T01:29:40.171Z</time>
      </trkpt>
      <trkpt lat="45.27908" lon="6.8199">
        <ele>1356.051904</ele>
        <time>2022-05-28T01:29:55.947Z</time>
      </trkpt>
      <trkpt lat="45.27884" lon="6.81921">
        <ele>1348.959961</ele>
        <time>2022-05-28T01:30:00.523Z</time>
      </trkpt>
      <trkpt lat="45.27874" lon="6.81857">
        <ele>1347.047823</ele>
        <time>2022-05-28T01:30:04.618Z</time>
      </trkpt>
      <trkpt lat="45.27886" lon="6.81817">
        <ele>1345.762718</ele>
        <time>2022-05-28T01:30:07.790Z</time>
      </trkpt>
      <trkpt lat="45.27914" lon="6.81777">
        <ele>1344.078832</ele>
        <time>2022-05-28T01:30:15.061Z</time>
      </trkpt>
      <trkpt lat="45.28063" lon="6.81661">
        <ele>1339.429333</ele>
        <time>2022-05-28T01:30:36.527Z</time>
      </trkpt>
      <trkpt lat="45.28125" lon="6.81632">
        <ele>1337.662428</ele>
        <time>2022-05-28T01:30:42.915Z</time>
      </trkpt>
      <trkpt lat="45.28131" lon="6.81614">
        <ele>1336.604864</ele>
        <time>2022-05-28T01:30:44.237Z</time>
      </trkpt>
      <trkpt lat="45.28121" lon="6.81604">
        <ele>1335.693178</ele>
        <time>2022-05-28T01:30:45.293Z</time>
      </trkpt>
      <trkpt lat="45.28007" lon="6.81642">
        <ele>1326.814441</ele>
        <time>2022-05-28T01:30:55.684Z</time>
      </trkpt>
      <trkpt lat="45.27828" lon="6.81691">
        <ele>1309.547854</ele>
        <time>2022-05-28T01:31:11.348Z</time>
      </trkpt>
      <trkpt lat="45.27738" lon="6.81726">
        <ele>1302.020817</ele>
        <time>2022-05-28T01:31:19.381Z</time>
      </trkpt>
      <trkpt lat="45.27724" lon="6.81731">
        <ele>1300.974934</ele>
        <time>2022-05-28T01:31:20.654Z</time>
      </trkpt>
      <trkpt lat="45.27724" lon="6.81731">
        <ele>1300.974934</ele>
        <time>2022-05-28T01:31:20.660Z</time>
      </trkpt>
      <trkpt lat="45.27718" lon="6.81733">
        <ele>1300.510021</ele>
        <time>2022-05-28T01:31:21.222Z</time>
      </trkpt>
      <trkpt lat="45.27706" lon="6.81733">
        <ele>1299.625148</ele>
        <time>2022-05-28T01:31:22.294Z</time>
      </trkpt>
      <trkpt lat="45.27694" lon="6.81729">
        <ele>1298.715508</ele>
        <time>2022-05-28T01:31:23.428Z</time>
      </trkpt>
      <trkpt lat="45.27683" lon="6.81715">
        <ele>1297.665654</ele>
        <time>2022-05-28T01:31:24.722Z</time>
      </trkpt>
      <trkpt lat="45.27678" lon="6.81684">
        <ele>1295.984545</ele>
        <time>2022-05-28T01:31:26.845Z</time>
      </trkpt>
      <trkpt lat="45.27683" lon="6.81621">
        <ele>1293.452278</ele>
        <time>2022-05-28T01:31:31.081Z</time>
      </trkpt>
      <trkpt lat="45.2769" lon="6.81576">
        <ele>1292.979584</ele>
        <time>2022-05-28T01:31:34.509Z</time>
      </trkpt>
      <trkpt lat="45.27697" lon="6.81523">
        <ele>1292.437106</ele>
        <time>2022-05-28T01:31:38.919Z</time>
      </trkpt>
      <trkpt lat="45.27706" lon="6.81487">
        <ele>1292.050254</ele>
        <time>2022-05-28T01:31:42.535Z</time>
      </trkpt>
      <trkpt lat="45.27707" lon="6.81481">
        <ele>1291.987245</ele>
        <time>2022-05-28T01:31:43.132Z</time>
      </trkpt>
      <trkpt lat="45.27708" lon="6.8146">
        <ele>1291.767059</ele>
        <time>2022-05-28T01:31:45.329Z</time>
      </trkpt>
      <trkpt lat="45.27707" lon="6.81454">
        <ele>1291.704003</ele>
        <time>2022-05-28T01:31:46.019Z</time>
      </trkpt>
      <trkpt lat="45.27699" lon="6.81437">
        <ele>1291.493735</ele>
        <time>2022-05-28T01:31:48.348Z</time>
      </trkpt>
      <trkpt lat="45.27678" lon="6.81419">
        <ele>1291.143272</ele>
        <time>2022-05-28T01:31:52.340Z</time>
      </trkpt>
      <trkpt lat="45.2767" lon="6.81413">
        <ele>1291.017541</ele>
        <time>2022-05-28T01:31:53.885Z</time>
      </trkpt>
      <trkpt lat="45.27662" lon="6.81409">
        <ele>1290.94897</ele>
        <time>2022-05-28T01:31:55.001Z</time>
      </trkpt>
      <trkpt lat="45.27539" lon="6.81337">
        <ele>1289.862178</ele>
        <time>2022-05-28T01:32:12.192Z</time>
      </trkpt>
      <trkpt lat="45.27515" lon="6.81322">
        <ele>1289.652143</ele>
        <time>2022-05-28T01:32:15.133Z</time>
      </trkpt>
      <trkpt lat="45.27453" lon="6.81292">
        <ele>1288.38853</ele>
        <time>2022-05-28T01:32:22.410Z</time>
      </trkpt>
      <trkpt lat="45.27415" lon="6.8129">
        <ele>1287.561765</ele>
        <time>2022-05-28T01:32:26.507Z</time>
      </trkpt>
      <trkpt lat="45.27389" lon="6.81298">
        <ele>1286.981998</ele>
        <time>2022-05-28T01:32:29.311Z</time>
      </trkpt>
      <trkpt lat="45.2735" lon="6.81328">
        <ele>1286.023851</ele>
        <time>2022-05-28T01:32:33.955Z</time>
      </trkpt>
      <trkpt lat="45.27288" lon="6.81419">
        <ele>1284.367227</ele>
        <time>2022-05-28T01:32:43.789Z</time>
      </trkpt>
      <trkpt lat="45.2727" lon="6.81434">
        <ele>1283.998108</ele>
        <time>2022-05-28T01:32:46.052Z</time>
      </trkpt>
      <trkpt lat="45.2725" lon="6.81442">
        <ele>1283.626456</ele>
        <time>2022-05-28T01:32:48.351Z</time>
      </trkpt>
      <trkpt lat="45.27212" lon="6.81436">
        <ele>1282.945771</ele>
        <time>2022-05-28T01:32:52.644Z</time>
      </trkpt>
      <trkpt lat="45.27116" lon="6.81379">
        <ele>1281.653151</ele>
        <time>2022-05-28T01:33:05.024Z</time>
      </trkpt>
      <trkpt lat="45.27066" lon="6.81369">
        <ele>1281.125185</ele>
        <time>2022-05-28T01:33:11.336Z</time>
      </trkpt>
      <trkpt lat="45.27013" lon="6.81388">
        <ele>1280.557724</ele>
        <time>2022-05-28T01:33:18.154Z</time>
      </trkpt>
      <trkpt lat="45.269" lon="6.81464">
        <ele>1279.244313</ele>
        <time>2022-05-28T01:33:33.698Z</time>
      </trkpt>
      <trkpt lat="45.26858" lon="6.81474">
        <ele>1278.803673</ele>
        <time>2022-05-28T01:33:38.709Z</time>
      </trkpt>
      <trkpt lat="45.2681" lon="6.81458">
        <ele>1278.123515</ele>
        <time>2022-05-28T01:33:44.496Z</time>
      </trkpt>
      <trkpt lat="45.26629" lon="6.81325">
        <ele>1275.076677</ele>
        <time>2022-05-28T01:34:07.920Z</time>
      </trkpt>
      <trkpt lat="45.26389" lon="6.81142">
        <ele>1271.006518</ele>
        <time>2022-05-28T01:34:39.049Z</time>
      </trkpt>
      <trkpt lat="45.2638" lon="6.81135">
        <ele>1270.866334</ele>
        <time>2022-05-28T01:34:40.300Z</time>
      </trkpt>
      <trkpt lat="45.26346" lon="6.81105">
        <ele>1270.679715</ele>
        <time>2022-05-28T01:34:45.142Z</time>
      </trkpt>
      <trkpt lat="45.26324" lon="6.81074">
        <ele>1270.697273</ele>
        <time>2022-05-28T01:34:49.006Z</time>
      </trkpt>
      <trkpt lat="45.26314" lon="6.81053">
        <ele>1270.707324</ele>
        <time>2022-05-28T01:34:51.124Z</time>
      </trkpt>
      <trkpt lat="45.2633" lon="6.81034">
        <ele>1270.718967</ele>
        <time>2022-05-28T01:34:54.078Z</time>
      </trkpt>
      <trkpt lat="45.26327" lon="6.81005">
        <ele>1270.730286</ele>
        <time>2022-05-28T01:34:56.634Z</time>
      </trkpt>
      <trkpt lat="45.26291" lon="6.8091">
        <ele>1271.490054</ele>
        <time>2022-05-28T01:35:09.839Z</time>
      </trkpt>
      <trkpt lat="45.26281" lon="6.80867">
        <ele>1273.370656</ele>
        <time>2022-05-28T01:35:19.163Z</time>
      </trkpt>
      <trkpt lat="45.26277" lon="6.80757">
        <ele>1277.947091</ele>
        <time>2022-05-28T01:35:51.088Z</time>
      </trkpt>
      <trkpt lat="45.26281" lon="6.8075">
        <ele>1278.346231</ele>
        <time>2022-05-28T01:35:54.171Z</time>
      </trkpt>
      <trkpt lat="45.2629" lon="6.80752">
        <ele>1278.853952</ele>
        <time>2022-05-28T01:35:58.268Z</time>
      </trkpt>
      <trkpt lat="45.26307" lon="6.80782">
        <ele>1280.455923</ele>
        <time>2022-05-28T01:36:11.431Z</time>
      </trkpt>
      <trkpt lat="45.26318" lon="6.80784">
        <ele>1281.143036</ele>
        <time>2022-05-28T01:36:17.018Z</time>
      </trkpt>
      <trkpt lat="45.2634" lon="6.80785">
        <ele>1282.547933</ele>
        <time>2022-05-28T01:36:27.998Z</time>
      </trkpt>
      <trkpt lat="45.26372" lon="6.80768">
        <ele>1284.847084</ele>
        <time>2022-05-28T01:36:45.045Z</time>
      </trkpt>
      <trkpt lat="45.2638" lon="6.80762">
        <ele>1285.490247</ele>
        <time>2022-05-28T01:36:49.596Z</time>
      </trkpt>
      <trkpt lat="45.26386" lon="6.8076">
        <ele>1285.919147</ele>
        <time>2022-05-28T01:36:52.629Z</time>
      </trkpt>
      <trkpt lat="45.26438" lon="6.80738">
        <ele>1289.547027</ele>
        <time>2022-05-28T01:37:18.730Z</time>
      </trkpt>
      <trkpt lat="45.2645" lon="6.80718">
        <ele>1290.807953</ele>
        <time>2022-05-28T01:37:25.766Z</time>
      </trkpt>
      <trkpt lat="45.2646" lon="6.8067">
        <ele>1293.177814</ele>
        <time>2022-05-28T01:37:37.075Z</time>
      </trkpt>
      <trkpt lat="45.26451" lon="6.80636">
        <ele>1293.852569</ele>
        <time>2022-05-28T01:37:43.122Z</time>
      </trkpt>
      <trkpt lat="45.26416" lon="6.80556">
        <ele>1294.890677</ele>
        <time>2022-05-28T01:37:54.674Z</time>
      </trkpt>
      <trkpt lat="45.26388" lon="6.805">
        <ele>1295.657246</ele>
        <time>2022-05-28T01:38:01.377Z</time>
      </trkpt>
      <trkpt lat="45.26379" lon="6.80469">
        <ele>1296.016181</ele>
        <time>2022-05-28T01:38:05.390Z</time>
      </trkpt>
      <trkpt lat="45.26357" lon="6.8025">
        <ele>1302.728359</ele>
        <time>2022-05-28T01:38:49.600Z</time>
      </trkpt>
      <trkpt lat="45.26358" lon="6.80199">
        <ele>1304.448629</ele>
        <time>2022-05-28T01:39:06.782Z</time>
      </trkpt>
      <trkpt lat="45.26363" lon="6.80163">
        <ele>1306.422914</ele>
        <time>2022-05-28T01:39:20.376Z</time>
      </trkpt>
      <trkpt lat="45.26364" lon="6.80119">
        <ele>1309.360862</ele>
        <time>2022-05-28T01:39:36.945Z</time>
      </trkpt>
      <trkpt lat="45.26359" lon="6.80078">
        <ele>1312.082748</ele>
        <time>2022-05-28T01:39:52.831Z</time>
      </trkpt>
      <trkpt lat="45.26345" lon="6.80033">
        <ele>1315.304198</ele>
        <time>2022-05-28T01:40:11.580Z</time>
      </trkpt>
      <trkpt lat="45.26301" lon="6.79965">
        <ele>1321.452053</ele>
        <time>2022-05-28T01:40:48.092Z</time>
      </trkpt>
      <trkpt lat="45.26206" lon="6.79861">
        <ele>1331.617723</ele>
        <time>2022-05-28T01:41:45.752Z</time>
      </trkpt>
      <trkpt lat="45.26156" lon="6.79791">
        <ele>1337.557709</ele>
        <time>2022-05-28T01:42:18.266Z</time>
      </trkpt>
      <trkpt lat="45.26117" lon="6.79749">
        <ele>1341.962</ele>
        <time>2022-05-28T01:42:42.243Z</time>
      </trkpt>
      <trkpt lat="45.25946" lon="6.79553">
        <ele>1361.088622</ele>
        <time>2022-05-28T01:44:36.940Z</time>
      </trkpt>
      <trkpt lat="45.25932" lon="6.79527">
        <ele>1363.055365</ele>
        <time>2022-05-28T01:44:48.145Z</time>
      </trkpt>
      <trkpt lat="45.25922" lon="6.79476">
        <ele>1366.190242</ele>
        <time>2022-05-28T01:45:05.106Z</time>
      </trkpt>
      <trkpt lat="45.25915" lon="6.79463">
        <ele>1367.141511</ele>
        <time>2022-05-28T01:45:09.999Z</time>
      </trkpt>
      <trkpt lat="45.25901" lon="6.79454">
        <ele>1368.377886</ele>
        <time>2022-05-28T01:45:16.704Z</time>
      </trkpt>
      <trkpt lat="45.25873" lon="6.79452">
        <ele>1369.892942</ele>
        <time>2022-05-28T01:45:27.998Z</time>
      </trkpt>
      <trkpt lat="45.25862" lon="6.7944">
        <ele>1370.63825</ele>
        <time>2022-05-28T01:45:33.650Z</time>
      </trkpt>
      <trkpt lat="45.25826" lon="6.79344">
        <ele>1374.767226</ele>
        <time>2022-05-28T01:46:00.751Z</time>
      </trkpt>
      <trkpt lat="45.25827" lon="6.79278">
        <ele>1377.279318</ele>
        <time>2022-05-28T01:46:16.508Z</time>
      </trkpt>
      <trkpt lat="45.25817" lon="6.79257">
        <ele>1378.16426</ele>
        <time>2022-05-28T01:46:22.716Z</time>
      </trkpt>
      <trkpt lat="45.25691" lon="6.7917">
        <ele>1383.679245</ele>
        <time>2022-05-28T01:47:05.021Z</time>
      </trkpt>
      <trkpt lat="45.25626" lon="6.79125">
        <ele>1386.313042</ele>
        <time>2022-05-28T01:47:26.699Z</time>
      </trkpt>
      <trkpt lat="45.25513" lon="6.79015">
        <ele>1390.917992</ele>
        <time>2022-05-28T01:48:04.281Z</time>
      </trkpt>
      <trkpt lat="45.25492" lon="6.78982">
        <ele>1392.362941</ele>
        <time>2022-05-28T01:48:12.539Z</time>
      </trkpt>
      <trkpt lat="45.25477" lon="6.78946">
        <ele>1393.805119</ele>
        <time>2022-05-28T01:48:21.049Z</time>
      </trkpt>
      <trkpt lat="45.25461" lon="6.78885">
        <ele>1396.032526</ele>
        <time>2022-05-28T01:48:36.434Z</time>
      </trkpt>
      <trkpt lat="45.25444" lon="6.7884">
        <ele>1397.799372</ele>
        <time>2022-05-28T01:48:50.541Z</time>
      </trkpt>
      <trkpt lat="45.25413" lon="6.78788">
        <ele>1400.114342</ele>
        <time>2022-05-28T01:49:11.746Z</time>
      </trkpt>
      <trkpt lat="45.25303" lon="6.78649">
        <ele>1406.726287</ele>
        <time>2022-05-28T01:50:02.675Z</time>
      </trkpt>
      <trkpt lat="45.25282" lon="6.78634">
        <ele>1407.793116</ele>
        <time>2022-05-28T01:50:07.761Z</time>
      </trkpt>
      <trkpt lat="45.25205" lon="6.78598">
        <ele>1409.523076</ele>
        <time>2022-05-28T01:50:24.029Z</time>
      </trkpt>
      <trkpt lat="45.25165" lon="6.78568">
        <ele>1410.461262</ele>
        <time>2022-05-28T01:50:33.652Z</time>
      </trkpt>
      <trkpt lat="45.25123" lon="6.78525">
        <ele>1411.52401</ele>
        <time>2022-05-28T01:50:44.655Z</time>
      </trkpt>
      <trkpt lat="45.25103" lon="6.78505">
        <ele>1412.65472</ele>
        <time>2022-05-28T01:50:52.293Z</time>
      </trkpt>
      <trkpt lat="45.25054" lon="6.78484">
        <ele>1415.31818</ele>
        <time>2022-05-28T01:51:07.761Z</time>
      </trkpt>
      <trkpt lat="45.25036" lon="6.78466">
        <ele>1416.469251</ele>
        <time>2022-05-28T01:51:14.529Z</time>
      </trkpt>
      <trkpt lat="45.25024" lon="6.78439">
        <ele>1417.625506</ele>
        <time>2022-05-28T01:51:22.624Z</time>
      </trkpt>
      <trkpt lat="45.2501" lon="6.78382">
        <ele>1419.826897</ele>
        <time>2022-05-28T01:51:39.298Z</time>
      </trkpt>
      <trkpt lat="45.25" lon="6.78369">
        <ele>1420.521644</ele>
        <time>2022-05-28T01:51:45.510Z</time>
      </trkpt>
      <trkpt lat="45.24991" lon="6.78366">
        <ele>1421.106788</ele>
        <time>2022-05-28T01:51:51.034Z</time>
      </trkpt>
      <trkpt lat="45.24981" lon="6.7837">
        <ele>1422.301116</ele>
        <time>2022-05-28T01:51:55.802Z</time>
      </trkpt>
      <trkpt lat="45.24953" lon="6.78425">
        <ele>1427.586622</ele>
        <time>2022-05-28T01:52:20.003Z</time>
      </trkpt>
      <trkpt lat="45.24939" lon="6.78431">
        <ele>1429.151326</ele>
        <time>2022-05-28T01:52:30.558Z</time>
      </trkpt>
      <trkpt lat="45.24884" lon="6.78409">
        <ele>1435.476186</ele>
        <time>2022-05-28T01:53:04.614Z</time>
      </trkpt>
      <trkpt lat="45.2482" lon="6.78349">
        <ele>1445.07098</ele>
        <time>2022-05-28T01:53:53.102Z</time>
      </trkpt>
      <trkpt lat="45.24808" lon="6.7833">
        <ele>1447.852479</ele>
        <time>2022-05-28T01:54:09.348Z</time>
      </trkpt>
      <trkpt lat="45.24798" lon="6.78292">
        <ele>1452.213367</ele>
        <time>2022-05-28T01:54:35.443Z</time>
      </trkpt>
      <trkpt lat="45.24788" lon="6.78284">
        <ele>1453.975034</ele>
        <time>2022-05-28T01:54:45.692Z</time>
      </trkpt>
      <trkpt lat="45.24779" lon="6.78287">
        <ele>1455.342486</ele>
        <time>2022-05-28T01:54:52.969Z</time>
      </trkpt>
      <trkpt lat="45.24761" lon="6.78318">
        <ele>1459.596518</ele>
        <time>2022-05-28T01:55:18.972Z</time>
      </trkpt>
      <trkpt lat="45.24745" lon="6.78333">
        <ele>1462.533856</ele>
        <time>2022-05-28T01:55:35.049Z</time>
      </trkpt>
      <trkpt lat="45.24699" lon="6.7835">
        <ele>1468.531574</ele>
        <time>2022-05-28T01:56:07.793Z</time>
      </trkpt>
      <trkpt lat="45.24674" lon="6.78357">
        <ele>1469.538617</ele>
        <time>2022-05-28T01:56:20.031Z</time>
      </trkpt>
      <trkpt lat="45.24656" lon="6.78369">
        <ele>1470.29444</ele>
        <time>2022-05-28T01:56:26.934Z</time>
      </trkpt>
      <trkpt lat="45.24648" lon="6.78385">
        <ele>1470.8448</ele>
        <time>2022-05-28T01:56:32.124Z</time>
      </trkpt>
      <trkpt lat="45.24646" lon="6.78402">
        <ele>1471.315411</ele>
        <time>2022-05-28T01:56:34.981Z</time>
      </trkpt>
      <trkpt lat="45.24681" lon="6.78505">
        <ele>1474.459152</ele>
        <time>2022-05-28T01:56:53.433Z</time>
      </trkpt>
      <trkpt lat="45.24729" lon="6.78678">
        <ele>1474.173154</ele>
        <time>2022-05-28T01:57:06.076Z</time>
      </trkpt>
      <trkpt lat="45.24732" lon="6.78702">
        <ele>1474.029729</ele>
        <time>2022-05-28T01:57:09.876Z</time>
      </trkpt>
      <trkpt lat="45.24729" lon="6.78728">
        <ele>1473.877341</ele>
        <time>2022-05-28T01:57:12.189Z</time>
      </trkpt>
      <trkpt lat="45.24713" lon="6.78739">
        <ele>1473.726068</ele>
        <time>2022-05-28T01:57:17.720Z</time>
      </trkpt>
      <trkpt lat="45.24701" lon="6.78731">
        <ele>1473.78858</ele>
        <time>2022-05-28T01:57:20.083Z</time>
      </trkpt>
      <trkpt lat="45.24658" lon="6.78625">
        <ele>1482.996096</ele>
        <time>2022-05-28T01:58:01.431Z</time>
      </trkpt>
      <trkpt lat="45.24568" lon="6.78503">
        <ele>1495.858007</ele>
        <time>2022-05-28T01:59:36.871Z</time>
      </trkpt>
      <trkpt lat="45.24491" lon="6.78373">
        <ele>1506.951981</ele>
        <time>2022-05-28T02:00:39.348Z</time>
      </trkpt>
      <trkpt lat="45.24444" lon="6.78279">
        <ele>1509.483926</ele>
        <time>2022-05-28T02:01:01.128Z</time>
      </trkpt>
      <trkpt lat="45.24388" lon="6.78169">
        <ele>1509.354061</ele>
        <time>2022-05-28T02:01:11.423Z</time>
      </trkpt>
      <trkpt lat="45.24325" lon="6.78048">
        <ele>1509.305353</ele>
        <time>2022-05-28T02:01:23.046Z</time>
      </trkpt>
      <trkpt lat="45.24299" lon="6.78016">
        <ele>1509.302539</ele>
        <time>2022-05-28T02:01:28.417Z</time>
      </trkpt>
      <trkpt lat="45.24182" lon="6.77863">
        <ele>1510.696354</ele>
        <time>2022-05-28T02:02:04.848Z</time>
      </trkpt>
      <trkpt lat="45.24079" lon="6.77764">
        <ele>1512.002791</ele>
        <time>2022-05-28T02:02:30.426Z</time>
      </trkpt>
      <trkpt lat="45.24014" lon="6.77661">
        <ele>1511.522486</ele>
        <time>2022-05-28T02:02:42.692Z</time>
      </trkpt>
      <trkpt lat="45.2395" lon="6.7755">
        <ele>1510.44369</ele>
        <time>2022-05-28T02:02:54.267Z</time>
      </trkpt>
      <trkpt lat="45.23902" lon="6.77452">
        <ele>1509.073101</ele>
        <time>2022-05-28T02:03:03.897Z</time>
      </trkpt>
      <trkpt lat="45.23833" lon="6.77302">
        <ele>1503.367373</ele>
        <time>2022-05-28T02:03:17.788Z</time>
      </trkpt>
      <trkpt lat="45.23824" lon="6.7727">
        <ele>1501.918064</ele>
        <time>2022-05-28T02:03:20.013Z</time>
      </trkpt>
      <trkpt lat="45.23822" lon="6.77245">
        <ele>1500.857669</ele>
        <time>2022-05-28T02:03:21.563Z</time>
      </trkpt>
      <trkpt lat="45.23833" lon="6.77207">
        <ele>1499.10582</ele>
        <time>2022-05-28T02:03:24.060Z</time>
      </trkpt>
      <trkpt lat="45.23856" lon="6.77172">
        <ele>1496.54675</ele>
        <time>2022-05-28T02:03:26.938Z</time>
      </trkpt>
      <trkpt lat="45.23879" lon="6.77136">
        <ele>1491.64484</ele>
        <time>2022-05-28T02:03:29.836Z</time>
      </trkpt>
      <trkpt lat="45.23901" lon="6.77088">
        <ele>1485.942892</ele>
        <time>2022-05-28T02:03:33.192Z</time>
      </trkpt>
      <trkpt lat="45.23907" lon="6.77059">
        <ele>1482.932358</ele>
        <time>2022-05-28T02:03:34.928Z</time>
      </trkpt>
      <trkpt lat="45.23906" lon="6.77037">
        <ele>1480.674587</ele>
        <time>2022-05-28T02:03:36.262Z</time>
      </trkpt>
      <trkpt lat="45.23876" lon="6.76992">
        <ele>1474.514728</ele>
        <time>2022-05-28T02:03:39.836Z</time>
      </trkpt>
      <trkpt lat="45.23839" lon="6.76954">
        <ele>1469.327088</ele>
        <time>2022-05-28T02:03:43.627Z</time>
      </trkpt>
      <trkpt lat="45.2382" lon="6.76902">
        <ele>1465.457001</ele>
        <time>2022-05-28T02:03:47.115Z</time>
      </trkpt>
      <trkpt lat="45.23805" lon="6.76823">
        <ele>1460.093935</ele>
        <time>2022-05-28T02:03:52.220Z</time>
      </trkpt>
      <trkpt lat="45.23793" lon="6.76799">
        <ele>1458.131657</ele>
        <time>2022-05-28T02:03:54.138Z</time>
      </trkpt>
      <trkpt lat="45.23777" lon="6.76778">
        <ele>1456.160715</ele>
        <time>2022-05-28T02:03:56.099Z</time>
      </trkpt>
      <trkpt lat="45.23727" lon="6.7674">
        <ele>1454.04893</ele>
        <time>2022-05-28T02:04:01.628Z</time>
      </trkpt>
      <trkpt lat="45.23693" lon="6.76678">
        <ele>1452.836485</ele>
        <time>2022-05-28T02:04:07.529Z</time>
      </trkpt>
      <trkpt lat="45.2364" lon="6.76624">
        <ele>1451.389068</ele>
        <time>2022-05-28T02:04:15.809Z</time>
      </trkpt>
      <trkpt lat="45.23617" lon="6.76586">
        <ele>1451.134132</ele>
        <time>2022-05-28T02:04:20.940Z</time>
      </trkpt>
      <trkpt lat="45.2352" lon="6.76409">
        <ele>1451.500326</ele>
        <time>2022-05-28T02:04:47.179Z</time>
      </trkpt>
      <trkpt lat="45.23431" lon="6.76329">
        <ele>1451.113937</ele>
        <time>2022-05-28T02:05:03.103Z</time>
      </trkpt>
      <trkpt lat="45.2336" lon="6.7619">
        <ele>1451.254826</ele>
        <time>2022-05-28T02:05:17.703Z</time>
      </trkpt>
      <trkpt lat="45.2335" lon="6.7617">
        <ele>1451.416516</ele>
        <time>2022-05-28T02:05:20.100Z</time>
      </trkpt>
      <trkpt lat="45.23346" lon="6.76142">
        <ele>1451.603243</ele>
        <time>2022-05-28T02:05:23.098Z</time>
      </trkpt>
      <trkpt lat="45.23361" lon="6.76089">
        <ele>1451.978824</ele>
        <time>2022-05-28T02:05:30.484Z</time>
      </trkpt>
      <trkpt lat="45.23359" lon="6.76072">
        <ele>1452.089386</ele>
        <time>2022-05-28T02:05:32.990Z</time>
      </trkpt>
      <trkpt lat="45.23341" lon="6.76055">
        <ele>1452.288529</ele>
        <time>2022-05-28T02:05:38.043Z</time>
      </trkpt>
      <trkpt lat="45.23302" lon="6.76048">
        <ele>1453.514621</ele>
        <time>2022-05-28T02:05:49.336Z</time>
      </trkpt>
      <trkpt lat="45.23288" lon="6.76036">
        <ele>1454.505398</ele>
        <time>2022-05-28T02:05:54.493Z</time>
      </trkpt>
      <trkpt lat="45.23262" lon="6.76">
        <ele>1456.763781</ele>
        <time>2022-05-28T02:06:07.511Z</time>
      </trkpt>
      <trkpt lat="45.23225" lon="6.75923">
        <ele>1460.856851</ele>
        <time>2022-05-28T02:06:33.903Z</time>
      </trkpt>
      <trkpt lat="45.23218" lon="6.75894">
        <ele>1462.168051</ele>
        <time>2022-05-28T02:06:44.140Z</time>
      </trkpt>
      <trkpt lat="45.23219" lon="6.75815">
        <ele>1466.997181</ele>
        <time>2022-05-28T02:07:12.941Z</time>
      </trkpt>
      <trkpt lat="45.23215" lon="6.75797">
        <ele>1468.415123</ele>
        <time>2022-05-28T02:07:20.492Z</time>
      </trkpt>
      <trkpt lat="45.232" lon="6.75773">
        <ele>1470.747447</ele>
        <time>2022-05-28T02:07:32.720Z</time>
      </trkpt>
      <trkpt lat="45.23147" lon="6.75712">
        <ele>1477.893702</ele>
        <time>2022-05-28T02:08:12.098Z</time>
      </trkpt>
      <trkpt lat="45.2313" lon="6.75677">
        <ele>1481.052972</ele>
        <time>2022-05-28T02:08:30.192Z</time>
      </trkpt>
      <trkpt lat="45.23097" lon="6.75576">
        <ele>1490.002284</ele>
        <time>2022-05-28T02:09:20.982Z</time>
      </trkpt>
      <trkpt lat="45.23074" lon="6.75431">
        <ele>1502.130156</ele>
        <time>2022-05-28T02:10:26.168Z</time>
      </trkpt>
      <trkpt lat="45.23071" lon="6.7538">
        <ele>1504.738578</ele>
        <time>2022-05-28T02:10:46.756Z</time>
      </trkpt>
      <trkpt lat="45.23077" lon="6.75339">
        <ele>1506.317444</ele>
        <time>2022-05-28T02:11:01.365Z</time>
      </trkpt>
      <trkpt lat="45.2309" lon="6.753">
        <ele>1507.998487</ele>
        <time>2022-05-28T02:11:15.179Z</time>
      </trkpt>
      <trkpt lat="45.23129" lon="6.75238">
        <ele>1511.173696</ele>
        <time>2022-05-28T02:11:36.317Z</time>
      </trkpt>
      <trkpt lat="45.23134" lon="6.75227">
        <ele>1511.695492</ele>
        <time>2022-05-28T02:11:39.073Z</time>
      </trkpt>
      <trkpt lat="45.23143" lon="6.75172">
        <ele>1512.347558</ele>
        <time>2022-05-28T02:11:44.134Z</time>
      </trkpt>
      <trkpt lat="45.23147" lon="6.75005">
        <ele>1504.813949</ele>
        <time>2022-05-28T02:11:54.842Z</time>
      </trkpt>
      <trkpt lat="45.23168" lon="6.7495">
        <ele>1501.958923</ele>
        <time>2022-05-28T02:11:58.604Z</time>
      </trkpt>
      <trkpt lat="45.23182" lon="6.74865">
        <ele>1496.016868</ele>
        <time>2022-05-28T02:12:03.962Z</time>
      </trkpt>
      <trkpt lat="45.2319" lon="6.74773">
        <ele>1489.514993</ele>
        <time>2022-05-28T02:12:09.687Z</time>
      </trkpt>
      <trkpt lat="45.232" lon="6.74751">
        <ele>1487.72549</ele>
        <time>2022-05-28T02:12:11.185Z</time>
      </trkpt>
      <trkpt lat="45.23244" lon="6.74712">
        <ele>1482.726611</ele>
        <time>2022-05-28T02:12:15.640Z</time>
      </trkpt>
      <trkpt lat="45.23297" lon="6.74694">
        <ele>1477.980388</ele>
        <time>2022-05-28T02:12:20.247Z</time>
      </trkpt>
      <trkpt lat="45.23303" lon="6.7468">
        <ele>1476.988229</ele>
        <time>2022-05-28T02:12:21.252Z</time>
      </trkpt>
      <trkpt lat="45.23302" lon="6.74656">
        <ele>1475.472308</ele>
        <time>2022-05-28T02:12:22.768Z</time>
      </trkpt>
      <trkpt lat="45.23292" lon="6.74637">
        <ele>1474.053429</ele>
        <time>2022-05-28T02:12:24.193Z</time>
      </trkpt>
      <trkpt lat="45.23272" lon="6.74626">
        <ele>1472.199647</ele>
        <time>2022-05-28T02:12:26.224Z</time>
      </trkpt>
      <trkpt lat="45.23223" lon="6.74604">
        <ele>1468.13539</ele>
        <time>2022-05-28T02:12:30.922Z</time>
      </trkpt>
      <trkpt lat="45.23201" lon="6.74581">
        <ele>1468.111481</ele>
        <time>2022-05-28T02:12:33.506Z</time>
      </trkpt>
      <trkpt lat="45.23189" lon="6.74555">
        <ele>1468.093222</ele>
        <time>2022-05-28T02:12:35.487Z</time>
      </trkpt>
      <trkpt lat="45.23184" lon="6.74527">
        <ele>1468.07582</ele>
        <time>2022-05-28T02:12:37.442Z</time>
      </trkpt>
      <trkpt lat="45.23175" lon="6.74331">
        <ele>1469.072623</ele>
        <time>2022-05-28T02:13:17.682Z</time>
      </trkpt>
      <trkpt lat="45.23169" lon="6.74303">
        <ele>1469.779517</ele>
        <time>2022-05-28T02:13:24.924Z</time>
      </trkpt>
      <trkpt lat="45.23151" lon="6.74276">
        <ele>1470.66136</ele>
        <time>2022-05-28T02:13:33.298Z</time>
      </trkpt>
      <trkpt lat="45.23076" lon="6.74204">
        <ele>1473.730056</ele>
        <time>2022-05-28T02:13:58.491Z</time>
      </trkpt>
      <trkpt lat="45.23059" lon="6.74194">
        <ele>1474.162436</ele>
        <time>2022-05-28T02:14:02.858Z</time>
      </trkpt>
      <trkpt lat="45.22987" lon="6.74178">
        <ele>1474.739857</ele>
        <time>2022-05-28T02:14:19.217Z</time>
      </trkpt>
      <trkpt lat="45.22962" lon="6.74171">
        <ele>1474.934694</ele>
        <time>2022-05-28T02:14:23.915Z</time>
      </trkpt>
      <trkpt lat="45.22928" lon="6.74141">
        <ele>1475.250775</ele>
        <time>2022-05-28T02:14:29.418Z</time>
      </trkpt>
      <trkpt lat="45.22914" lon="6.74118">
        <ele>1475.422279</ele>
        <time>2022-05-28T02:14:32.249Z</time>
      </trkpt>
      <trkpt lat="45.22903" lon="6.74123">
        <ele>1475.514146</ele>
        <time>2022-05-28T02:14:33.571Z</time>
      </trkpt>
      <trkpt lat="45.22882" lon="6.7413">
        <ele>1475.515555</ele>
        <time>2022-05-28T02:14:36.111Z</time>
      </trkpt>
      <trkpt lat="45.22859" lon="6.74156">
        <ele>1475.515555</ele>
        <time>2022-05-28T02:14:39.441Z</time>
      </trkpt>
      <trkpt lat="45.22863" lon="6.74188">
        <ele>1475.515555</ele>
        <time>2022-05-28T02:14:42.023Z</time>
      </trkpt>
      <trkpt lat="45.22872" lon="6.74221">
        <ele>1475.515555</ele>
        <time>2022-05-28T02:14:44.718Z</time>
      </trkpt>
      <trkpt lat="45.2289" lon="6.74269">
        <ele>1475.515555</ele>
        <time>2022-05-28T02:14:48.762Z</time>
      </trkpt>
      <trkpt lat="45.22899" lon="6.74293">
        <ele>1475.515555</ele>
        <time>2022-05-28T02:14:50.728Z</time>
      </trkpt>
      <trkpt lat="45.22906" lon="6.74302">
        <ele>1475.515555</ele>
        <time>2022-05-28T02:14:51.673Z</time>
      </trkpt>
    </trkseg>
  </trk>
</gpx>